<?xml version="1.0" encoding="UTF-8" standalone="no" ?>
<gpx xmlns="http://www.topografix.com/GPX/1/1" xmlns:xsi="http://www.w3.org/2001/XMLSchema-instance" xsi:schemaLocation="http://www.topografix.com/GPX/1/1 http://www.topografix.com/GPX/1/1/gpx.xsd" version="1.1" creator="VisuGPX - https://www.visugpx.com">
  <metadata>
    <name>carte Normandie</name>
  </metadata>
  <trk>
    <name><![CDATA[carte Normandie_4]]></name>
    <trkseg>
      <trkpt lat="49.30035" lon="-1.12788">
        <ele>1</ele>
        <time>2019-02-14T20:04:24Z</time>
      </trkpt>
      <trkpt lat="49.29081" lon="-1.12217">
        <ele>3</ele>
        <time>2019-02-14T20:03:24Z</time>
      </trkpt>
      <trkpt lat="49.28907" lon="-1.11962">
        <ele>2</ele>
        <time>2019-02-14T20:02:24Z</time>
      </trkpt>
      <trkpt lat="49.29054" lon="-1.1172">
        <ele>1</ele>
        <time>2019-02-14T20:01:24Z</time>
      </trkpt>
      <trkpt lat="49.29065" lon="-1.11471">
        <ele>4</ele>
        <time>2019-02-14T20:00:24Z</time>
      </trkpt>
      <trkpt lat="49.28282" lon="-1.11659">
        <ele>3</ele>
        <time>2019-02-14T19:59:24Z</time>
      </trkpt>
      <trkpt lat="49.27514" lon="-1.11155">
        <ele>13</ele>
        <time>2019-02-14T19:58:24Z</time>
      </trkpt>
      <trkpt lat="49.27581" lon="-1.11404">
        <ele>10</ele>
        <time>2019-02-14T19:57:24Z</time>
      </trkpt>
      <trkpt lat="49.27593" lon="-1.11519">
        <ele>4</ele>
        <time>2019-02-14T19:56:24Z</time>
      </trkpt>
      <trkpt lat="49.2749" lon="-1.11544">
        <ele>2</ele>
        <time>2019-02-14T19:55:24Z</time>
      </trkpt>
      <trkpt lat="49.27419" lon="-1.11811">
        <ele>1</ele>
        <time>2019-02-14T19:54:24Z</time>
      </trkpt>
      <trkpt lat="49.27462" lon="-1.11896">
        <ele>1</ele>
        <time>2019-02-14T19:53:24Z</time>
      </trkpt>
      <trkpt lat="49.27411" lon="-1.12035">
        <ele>1</ele>
        <time>2019-02-14T19:52:24Z</time>
      </trkpt>
      <trkpt lat="49.2728" lon="-1.1192">
        <ele>1</ele>
        <time>2019-02-14T19:51:24Z</time>
      </trkpt>
      <trkpt lat="49.26967" lon="-1.11926">
        <ele>1</ele>
        <time>2019-02-14T19:50:24Z</time>
      </trkpt>
      <trkpt lat="49.26908" lon="-1.10821">
        <ele>1.1</ele>
        <time>2019-02-14T19:49:24Z</time>
      </trkpt>
      <trkpt lat="49.26587" lon="-1.10809">
        <ele>4</ele>
        <time>2019-02-14T19:48:24Z</time>
      </trkpt>
      <trkpt lat="49.25791" lon="-1.0999">
        <ele>1</ele>
        <time>2019-02-14T19:47:24Z</time>
      </trkpt>
      <trkpt lat="49.25997" lon="-1.09498">
        <ele>1</ele>
        <time>2019-02-14T19:46:24Z</time>
      </trkpt>
      <trkpt lat="49.26084" lon="-1.09231">
        <ele>6</ele>
        <time>2019-02-14T19:45:24Z</time>
      </trkpt>
      <trkpt lat="49.26223" lon="-1.09061">
        <ele>14</ele>
        <time>2019-02-14T19:44:24Z</time>
      </trkpt>
      <trkpt lat="49.265" lon="-1.08382">
        <ele>31</ele>
        <time>2019-02-14T19:43:24Z</time>
      </trkpt>
      <trkpt lat="49.26448" lon="-1.08102">
        <ele>38</ele>
        <time>2019-02-14T19:42:24Z</time>
      </trkpt>
      <trkpt lat="49.26662" lon="-1.07975">
        <ele>38</ele>
        <time>2019-02-14T19:41:24Z</time>
      </trkpt>
      <trkpt lat="49.26595" lon="-1.0786">
        <ele>40</ele>
        <time>2019-02-14T19:40:24Z</time>
      </trkpt>
      <trkpt lat="49.26737" lon="-1.07514">
        <ele>37</ele>
        <time>2019-02-14T19:39:24Z</time>
      </trkpt>
      <trkpt lat="49.26951" lon="-1.0735">
        <ele>42</ele>
        <time>2019-02-14T19:38:24Z</time>
      </trkpt>
      <trkpt lat="49.26975" lon="-1.06816">
        <ele>44</ele>
        <time>2019-02-14T19:37:24Z</time>
      </trkpt>
      <trkpt lat="49.26995" lon="-1.06549">
        <ele>44</ele>
        <time>2019-02-14T19:36:24Z</time>
      </trkpt>
      <trkpt lat="49.26979" lon="-1.0627">
        <ele>44</ele>
        <time>2019-02-14T19:35:24Z</time>
      </trkpt>
      <trkpt lat="49.27157" lon="-1.05875">
        <ele>41</ele>
        <time>2019-02-14T19:34:24Z</time>
      </trkpt>
      <trkpt lat="49.27213" lon="-1.05596">
        <ele>38</ele>
        <time>2019-02-14T19:33:24Z</time>
      </trkpt>
      <trkpt lat="49.27217" lon="-1.05402">
        <ele>37</ele>
        <time>2019-02-14T19:32:24Z</time>
      </trkpt>
      <trkpt lat="49.27122" lon="-1.05025">
        <ele>38</ele>
        <time>2019-02-14T19:31:24Z</time>
      </trkpt>
      <trkpt lat="49.27042" lon="-1.05044">
        <ele>40</ele>
        <time>2019-02-14T19:30:24Z</time>
      </trkpt>
      <trkpt lat="49.26769" lon="-1.04661">
        <ele>41</ele>
        <time>2019-02-14T19:29:24Z</time>
      </trkpt>
      <trkpt lat="49.2669" lon="-1.04485">
        <ele>37</ele>
        <time>2019-02-14T19:28:24Z</time>
      </trkpt>
      <trkpt lat="49.26777" lon="-1.03514">
        <ele>31</ele>
        <time>2019-02-14T19:27:24Z</time>
      </trkpt>
      <trkpt lat="49.26729" lon="-1.03053">
        <ele>26</ele>
        <time>2019-02-14T19:26:24Z</time>
      </trkpt>
      <trkpt lat="49.26504" lon="-1.0301">
        <ele>28</ele>
        <time>2019-02-14T19:25:24Z</time>
      </trkpt>
      <trkpt lat="49.26179" lon="-1.03144">
        <ele>27</ele>
        <time>2019-02-14T19:24:24Z</time>
      </trkpt>
      <trkpt lat="49.26028" lon="-1.03041">
        <ele>33</ele>
        <time>2019-02-14T19:23:24Z</time>
      </trkpt>
      <trkpt lat="49.25775" lon="-1.03023">
        <ele>42</ele>
        <time>2019-02-14T19:22:24Z</time>
      </trkpt>
      <trkpt lat="49.25842" lon="-1.02634">
        <ele>39</ele>
        <time>2019-02-14T19:21:24Z</time>
      </trkpt>
      <trkpt lat="49.26096" lon="-1.02276">
        <ele>44</ele>
        <time>2019-02-14T19:20:24Z</time>
      </trkpt>
      <trkpt lat="49.26678" lon="-1.02252">
        <ele>38</ele>
        <time>2019-02-14T19:19:24Z</time>
      </trkpt>
      <trkpt lat="49.26634" lon="-1.00789">
        <ele>34</ele>
        <time>2019-02-14T19:18:24Z</time>
      </trkpt>
      <trkpt lat="49.26619" lon="-0.99751">
        <ele>63</ele>
        <time>2019-02-14T19:17:24Z</time>
      </trkpt>
      <trkpt lat="49.26638" lon="-0.99466">
        <ele>62</ele>
        <time>2019-02-14T19:16:24Z</time>
      </trkpt>
      <trkpt lat="49.26175" lon="-0.98968">
        <ele>41</ele>
        <time>2019-02-14T19:15:24Z</time>
      </trkpt>
      <trkpt lat="49.261" lon="-0.98804">
        <ele>40</ele>
        <time>2019-02-14T19:14:24Z</time>
      </trkpt>
      <trkpt lat="49.26009" lon="-0.98896">
        <ele>40</ele>
        <time>2019-02-14T19:13:24Z</time>
      </trkpt>
      <trkpt lat="49.25811" lon="-0.98786">
        <ele>42</ele>
        <time>2019-02-14T19:12:24Z</time>
      </trkpt>
      <trkpt lat="49.25945" lon="-0.98416">
        <ele>41</ele>
        <time>2019-02-14T19:11:24Z</time>
      </trkpt>
      <trkpt lat="49.26048" lon="-0.98204">
        <ele>38</ele>
        <time>2019-02-14T19:10:24Z</time>
      </trkpt>
      <trkpt lat="49.25953" lon="-0.98131">
        <ele>39</ele>
        <time>2019-02-14T19:09:24Z</time>
      </trkpt>
      <trkpt lat="49.25866" lon="-0.97773">
        <ele>38</ele>
        <time>2019-02-14T19:08:24Z</time>
      </trkpt>
      <trkpt lat="49.25601" lon="-0.97791">
        <ele>38</ele>
        <time>2019-02-14T19:07:24Z</time>
      </trkpt>
      <trkpt lat="49.2543" lon="-0.97469">
        <ele>35</ele>
        <time>2019-02-14T19:06:24Z</time>
      </trkpt>
      <trkpt lat="49.25236" lon="-0.97184">
        <ele>35</ele>
        <time>2019-02-14T19:05:24Z</time>
      </trkpt>
      <trkpt lat="49.2509" lon="-0.96535">
        <ele>34</ele>
        <time>2019-02-14T19:04:24Z</time>
      </trkpt>
      <trkpt lat="49.24495" lon="-0.96753">
        <ele>38</ele>
        <time>2019-02-14T19:03:24Z</time>
      </trkpt>
      <trkpt lat="49.23992" lon="-0.97038">
        <ele>35</ele>
        <time>2019-02-14T19:02:24Z</time>
      </trkpt>
      <trkpt lat="49.23846" lon="-0.9617">
        <ele>34</ele>
        <time>2019-02-14T19:01:24Z</time>
      </trkpt>
      <trkpt lat="49.23774" lon="-0.96243">
        <ele>35</ele>
        <time>2019-02-14T19:00:24Z</time>
      </trkpt>
      <trkpt lat="49.23632" lon="-0.95764">
        <ele>29</ele>
        <time>2019-02-14T18:59:24Z</time>
      </trkpt>
      <trkpt lat="49.23544" lon="-0.95642">
        <ele>30</ele>
        <time>2019-02-14T18:58:24Z</time>
      </trkpt>
      <trkpt lat="49.23311" lon="-0.95831">
        <ele>34</ele>
        <time>2019-02-14T18:57:24Z</time>
      </trkpt>
      <trkpt lat="49.22962" lon="-0.95424">
        <ele>62</ele>
        <time>2019-02-14T18:56:24Z</time>
      </trkpt>
      <trkpt lat="49.22898" lon="-0.95102">
        <ele>68</ele>
        <time>2019-02-14T18:55:24Z</time>
      </trkpt>
      <trkpt lat="49.22736" lon="-0.94987">
        <ele>70</ele>
        <time>2019-02-14T18:54:24Z</time>
      </trkpt>
      <trkpt lat="49.22712" lon="-0.94811">
        <ele>70</ele>
        <time>2019-02-14T18:53:24Z</time>
      </trkpt>
      <trkpt lat="49.22387" lon="-0.95029">
        <ele>72</ele>
        <time>2019-02-14T18:52:24Z</time>
      </trkpt>
      <trkpt lat="49.22026" lon="-0.94562">
        <ele>68</ele>
        <time>2019-02-14T18:51:24Z</time>
      </trkpt>
      <trkpt lat="49.2163" lon="-0.94344">
        <ele>72</ele>
        <time>2019-02-14T18:50:24Z</time>
      </trkpt>
      <trkpt lat="49.21122" lon="-0.94289">
        <ele>65</ele>
        <time>2019-02-14T18:49:24Z</time>
      </trkpt>
      <trkpt lat="49.21059" lon="-0.9438">
        <ele>65</ele>
        <time>2019-02-14T18:48:24Z</time>
      </trkpt>
      <trkpt lat="49.2096" lon="-0.94228">
        <ele>68</ele>
        <time>2019-02-14T18:47:24Z</time>
      </trkpt>
      <trkpt lat="49.20789" lon="-0.94216">
        <ele>66</ele>
        <time>2019-02-14T18:46:24Z</time>
      </trkpt>
      <trkpt lat="49.20508" lon="-0.94162">
        <ele>63</ele>
        <time>2019-02-14T18:45:24Z</time>
      </trkpt>
      <trkpt lat="49.19945" lon="-0.93719">
        <ele>76</ele>
        <time>2019-02-14T18:44:24Z</time>
      </trkpt>
      <trkpt lat="49.19885" lon="-0.93476">
        <ele>81</ele>
        <time>2019-02-14T18:43:24Z</time>
      </trkpt>
      <trkpt lat="49.19772" lon="-0.93334">
        <ele>84.9</ele>
      </trkpt>
      <trkpt lat="49.19802" lon="-0.9337">
        <ele>83.4</ele>
      </trkpt>
      <trkpt lat="49.19811" lon="-0.9338">
        <ele>83.2</ele>
      </trkpt>
      <trkpt lat="49.19814" lon="-0.93383">
        <ele>83.1</ele>
      </trkpt>
      <trkpt lat="49.19841" lon="-0.93419">
        <ele>82.8</ele>
      </trkpt>
      <trkpt lat="49.19868" lon="-0.93454">
        <ele>81.5</ele>
      </trkpt>
      <trkpt lat="49.19873" lon="-0.93462">
        <ele>81.2</ele>
      </trkpt>
      <trkpt lat="49.19889" lon="-0.93493">
        <ele>80.1</ele>
      </trkpt>
      <trkpt lat="49.1988" lon="-0.93498">
        <ele>80.4</ele>
      </trkpt>
      <trkpt lat="49.1985" lon="-0.93518">
        <ele>81.4</ele>
      </trkpt>
      <trkpt lat="49.19817" lon="-0.93541">
        <ele>82.4</ele>
      </trkpt>
      <trkpt lat="49.1979" lon="-0.93561">
        <ele>83.1</ele>
      </trkpt>
      <trkpt lat="49.19764" lon="-0.93581">
        <ele>83.7</ele>
      </trkpt>
      <trkpt lat="49.19756" lon="-0.93587">
        <ele>83.8</ele>
      </trkpt>
      <trkpt lat="49.19739" lon="-0.93605">
        <ele>84.1</ele>
      </trkpt>
      <trkpt lat="49.19723" lon="-0.93623">
        <ele>84</ele>
      </trkpt>
      <trkpt lat="49.19721" lon="-0.93626">
        <ele>84</ele>
      </trkpt>
      <trkpt lat="49.19718" lon="-0.9363">
        <ele>84</ele>
      </trkpt>
      <trkpt lat="49.19712" lon="-0.93636">
        <ele>83.9</ele>
      </trkpt>
      <trkpt lat="49.19706" lon="-0.93639">
        <ele>83.8</ele>
      </trkpt>
      <trkpt lat="49.19693" lon="-0.93643">
        <ele>83.7</ele>
      </trkpt>
      <trkpt lat="49.19679" lon="-0.93646">
        <ele>83.6</ele>
      </trkpt>
      <trkpt lat="49.19623" lon="-0.93658">
        <ele>84.8</ele>
      </trkpt>
      <trkpt lat="49.19606" lon="-0.93661">
        <ele>85.3</ele>
      </trkpt>
      <trkpt lat="49.19569" lon="-0.93669">
        <ele>86.2</ele>
      </trkpt>
      <trkpt lat="49.19511" lon="-0.93681">
        <ele>86.9</ele>
      </trkpt>
      <trkpt lat="49.19508" lon="-0.93681">
        <ele>86.9</ele>
      </trkpt>
      <trkpt lat="49.19473" lon="-0.93687">
        <ele>87.9</ele>
      </trkpt>
      <trkpt lat="49.19449" lon="-0.93691">
        <ele>88.6</ele>
      </trkpt>
      <trkpt lat="49.19426" lon="-0.93693">
        <ele>89.4</ele>
      </trkpt>
      <trkpt lat="49.19405" lon="-0.93693">
        <ele>89.7</ele>
      </trkpt>
      <trkpt lat="49.19385" lon="-0.93697">
        <ele>89.8</ele>
      </trkpt>
      <trkpt lat="49.19376" lon="-0.93697">
        <ele>89.8</ele>
      </trkpt>
      <trkpt lat="49.19368" lon="-0.93695">
        <ele>89.9</ele>
      </trkpt>
      <trkpt lat="49.19359" lon="-0.93691">
        <ele>89.9</ele>
      </trkpt>
      <trkpt lat="49.19342" lon="-0.93683">
        <ele>90</ele>
      </trkpt>
      <trkpt lat="49.19291" lon="-0.93659">
        <ele>90.5</ele>
      </trkpt>
      <trkpt lat="49.19272" lon="-0.93655">
        <ele>90.8</ele>
      </trkpt>
      <trkpt lat="49.19231" lon="-0.93643">
        <ele>91.7</ele>
      </trkpt>
      <trkpt lat="49.19228" lon="-0.93663">
        <ele>91.6</ele>
      </trkpt>
      <trkpt lat="49.19221" lon="-0.93697">
        <ele>91.6</ele>
      </trkpt>
      <trkpt lat="49.19209" lon="-0.93758">
        <ele>91.2</ele>
      </trkpt>
      <trkpt lat="49.19206" lon="-0.93771">
        <ele>90.8</ele>
      </trkpt>
      <trkpt lat="49.19187" lon="-0.93842">
        <ele>88.3</ele>
      </trkpt>
      <trkpt lat="49.19184" lon="-0.93861">
        <ele>87.2</ele>
      </trkpt>
      <trkpt lat="49.19183" lon="-0.93875">
        <ele>86.5</ele>
      </trkpt>
      <trkpt lat="49.19183" lon="-0.93889">
        <ele>85.7</ele>
      </trkpt>
      <trkpt lat="49.19183" lon="-0.93894">
        <ele>85.5</ele>
      </trkpt>
      <trkpt lat="49.19182" lon="-0.93926">
        <ele>84.2</ele>
      </trkpt>
      <trkpt lat="49.19182" lon="-0.9395">
        <ele>84.1</ele>
      </trkpt>
      <trkpt lat="49.1918" lon="-0.9396">
        <ele>84.1</ele>
      </trkpt>
      <trkpt lat="49.19179" lon="-0.93968">
        <ele>84.1</ele>
      </trkpt>
      <trkpt lat="49.19177" lon="-0.93983">
        <ele>84</ele>
      </trkpt>
      <trkpt lat="49.19175" lon="-0.93999">
        <ele>84</ele>
      </trkpt>
      <trkpt lat="49.19173" lon="-0.94014">
        <ele>84.3</ele>
      </trkpt>
      <trkpt lat="49.19167" lon="-0.94009">
        <ele>84.2</ele>
      </trkpt>
      <trkpt lat="49.19163" lon="-0.94004">
        <ele>84.2</ele>
      </trkpt>
      <trkpt lat="49.19157" lon="-0.93998">
        <ele>84.2</ele>
      </trkpt>
      <trkpt lat="49.19153" lon="-0.93996">
        <ele>84.3</ele>
      </trkpt>
      <trkpt lat="49.1915" lon="-0.93996">
        <ele>84.4</ele>
      </trkpt>
      <trkpt lat="49.19148" lon="-0.93996">
        <ele>84.4</ele>
      </trkpt>
      <trkpt lat="49.19141" lon="-0.93999">
        <ele>84.6</ele>
      </trkpt>
      <trkpt lat="49.19127" lon="-0.94008">
        <ele>85.2</ele>
      </trkpt>
      <trkpt lat="49.19101" lon="-0.94031">
        <ele>86.9</ele>
      </trkpt>
      <trkpt lat="49.19094" lon="-0.94037">
        <ele>87.4</ele>
      </trkpt>
      <trkpt lat="49.19066" lon="-0.94059">
        <ele>89.1</ele>
      </trkpt>
      <trkpt lat="49.19041" lon="-0.94074">
        <ele>90.1</ele>
      </trkpt>
      <trkpt lat="49.19033" lon="-0.94079">
        <ele>90.4</ele>
      </trkpt>
      <trkpt lat="49.19006" lon="-0.94092">
        <ele>90.8</ele>
      </trkpt>
      <trkpt lat="49.18992" lon="-0.94099">
        <ele>90.8</ele>
      </trkpt>
      <trkpt lat="49.1895" lon="-0.94117">
        <ele>90.5</ele>
      </trkpt>
      <trkpt lat="49.18938" lon="-0.94123">
        <ele>90.5</ele>
      </trkpt>
      <trkpt lat="49.18894" lon="-0.94138">
        <ele>91.5</ele>
      </trkpt>
      <trkpt lat="49.1883" lon="-0.9416">
        <ele>94.1</ele>
      </trkpt>
      <trkpt lat="49.188" lon="-0.94166">
        <ele>95.2</ele>
      </trkpt>
      <trkpt lat="49.18798" lon="-0.94166">
        <ele>95.3</ele>
      </trkpt>
      <trkpt lat="49.18787" lon="-0.94166">
        <ele>95.7</ele>
      </trkpt>
      <trkpt lat="49.1878" lon="-0.94166">
        <ele>95.9</ele>
      </trkpt>
      <trkpt lat="49.18773" lon="-0.94169">
        <ele>96.2</ele>
      </trkpt>
      <trkpt lat="49.1877" lon="-0.9417">
        <ele>96.3</ele>
      </trkpt>
      <trkpt lat="49.18761" lon="-0.94178">
        <ele>96.5</ele>
      </trkpt>
      <trkpt lat="49.18751" lon="-0.94184">
        <ele>96.7</ele>
      </trkpt>
      <trkpt lat="49.18739" lon="-0.94192">
        <ele>97.1</ele>
      </trkpt>
      <trkpt lat="49.18725" lon="-0.94199">
        <ele>97.5</ele>
      </trkpt>
      <trkpt lat="49.18708" lon="-0.94205">
        <ele>98.1</ele>
      </trkpt>
      <trkpt lat="49.18683" lon="-0.94212">
        <ele>98.9</ele>
      </trkpt>
      <trkpt lat="49.18627" lon="-0.94233">
        <ele>100.1</ele>
      </trkpt>
      <trkpt lat="49.18574" lon="-0.94254">
        <ele>101.1</ele>
      </trkpt>
      <trkpt lat="49.18528" lon="-0.94272">
        <ele>101.4</ele>
      </trkpt>
      <trkpt lat="49.18526" lon="-0.9423">
        <ele>101.7</ele>
      </trkpt>
      <trkpt lat="49.18522" lon="-0.94159">
        <ele>101.6</ele>
      </trkpt>
      <trkpt lat="49.18522" lon="-0.94126">
        <ele>101</ele>
      </trkpt>
      <trkpt lat="49.18462" lon="-0.94127">
        <ele>100.3</ele>
      </trkpt>
      <trkpt lat="49.18409" lon="-0.94128">
        <ele>99.4</ele>
      </trkpt>
      <trkpt lat="49.1836" lon="-0.94131">
        <ele>99.1</ele>
      </trkpt>
      <trkpt lat="49.18295" lon="-0.94142">
        <ele>98.5</ele>
      </trkpt>
      <trkpt lat="49.18283" lon="-0.94144">
        <ele>98.4</ele>
      </trkpt>
      <trkpt lat="49.18258" lon="-0.94153">
        <ele>98.1</ele>
      </trkpt>
      <trkpt lat="49.18244" lon="-0.94158">
        <ele>98.1</ele>
      </trkpt>
      <trkpt lat="49.18229" lon="-0.94161">
        <ele>98.2</ele>
      </trkpt>
      <trkpt lat="49.18207" lon="-0.94164">
        <ele>98.5</ele>
      </trkpt>
      <trkpt lat="49.18196" lon="-0.94163">
        <ele>98.6</ele>
      </trkpt>
      <trkpt lat="49.18156" lon="-0.94162">
        <ele>99.1</ele>
      </trkpt>
      <trkpt lat="49.18146" lon="-0.94162">
        <ele>99.2</ele>
      </trkpt>
      <trkpt lat="49.18132" lon="-0.94165">
        <ele>99.4</ele>
      </trkpt>
      <trkpt lat="49.18122" lon="-0.94169">
        <ele>99.4</ele>
      </trkpt>
      <trkpt lat="49.18111" lon="-0.94173">
        <ele>99.4</ele>
      </trkpt>
      <trkpt lat="49.18101" lon="-0.9418">
        <ele>99.3</ele>
      </trkpt>
      <trkpt lat="49.1809" lon="-0.94188">
        <ele>99.1</ele>
      </trkpt>
      <trkpt lat="49.18072" lon="-0.942">
        <ele>98.7</ele>
      </trkpt>
      <trkpt lat="49.18069" lon="-0.94202">
        <ele>98.6</ele>
      </trkpt>
      <trkpt lat="49.1806" lon="-0.94207">
        <ele>98.4</ele>
      </trkpt>
      <trkpt lat="49.18039" lon="-0.94216">
        <ele>98.2</ele>
      </trkpt>
      <trkpt lat="49.1802" lon="-0.94221">
        <ele>98.2</ele>
      </trkpt>
      <trkpt lat="49.17997" lon="-0.94221">
        <ele>98.2</ele>
      </trkpt>
      <trkpt lat="49.17982" lon="-0.94221">
        <ele>97.5</ele>
      </trkpt>
      <trkpt lat="49.17971" lon="-0.94223">
        <ele>97.1</ele>
      </trkpt>
      <trkpt lat="49.17952" lon="-0.94226">
        <ele>96.3</ele>
      </trkpt>
      <trkpt lat="49.1794" lon="-0.94226">
        <ele>95.7</ele>
      </trkpt>
      <trkpt lat="49.17926" lon="-0.94222">
        <ele>95.1</ele>
      </trkpt>
      <trkpt lat="49.17917" lon="-0.94219">
        <ele>94.6</ele>
      </trkpt>
      <trkpt lat="49.17896" lon="-0.94215">
        <ele>92.9</ele>
      </trkpt>
      <trkpt lat="49.17867" lon="-0.94209">
        <ele>90.6</ele>
      </trkpt>
      <trkpt lat="49.17846" lon="-0.94203">
        <ele>89.1</ele>
      </trkpt>
      <trkpt lat="49.17828" lon="-0.94206">
        <ele>88.1</ele>
      </trkpt>
      <trkpt lat="49.17811" lon="-0.94212">
        <ele>88.2</ele>
      </trkpt>
      <trkpt lat="49.17796" lon="-0.94216">
        <ele>88.2</ele>
      </trkpt>
      <trkpt lat="49.17793" lon="-0.94217">
        <ele>88.2</ele>
      </trkpt>
      <trkpt lat="49.1778" lon="-0.9422">
        <ele>88.2</ele>
      </trkpt>
      <trkpt lat="49.17759" lon="-0.94223">
        <ele>88.2</ele>
      </trkpt>
      <trkpt lat="49.17742" lon="-0.94223">
        <ele>88.9</ele>
      </trkpt>
      <trkpt lat="49.1771" lon="-0.94221">
        <ele>91.4</ele>
      </trkpt>
      <trkpt lat="49.17709" lon="-0.94234">
        <ele>91</ele>
      </trkpt>
      <trkpt lat="49.1771" lon="-0.94252">
        <ele>90.3</ele>
      </trkpt>
      <trkpt lat="49.17711" lon="-0.94276">
        <ele>89.8</ele>
      </trkpt>
      <trkpt lat="49.1771" lon="-0.9429">
        <ele>89.6</ele>
      </trkpt>
      <trkpt lat="49.17708" lon="-0.94305">
        <ele>89.6</ele>
      </trkpt>
      <trkpt lat="49.177" lon="-0.94336">
        <ele>89.9</ele>
      </trkpt>
      <trkpt lat="49.17697" lon="-0.94351">
        <ele>89.9</ele>
      </trkpt>
      <trkpt lat="49.17687" lon="-0.94389">
        <ele>89.8</ele>
      </trkpt>
      <trkpt lat="49.17683" lon="-0.94411">
        <ele>89.6</ele>
      </trkpt>
      <trkpt lat="49.17677" lon="-0.94439">
        <ele>89.5</ele>
      </trkpt>
      <trkpt lat="49.17668" lon="-0.94491">
        <ele>89.1</ele>
      </trkpt>
      <trkpt lat="49.17665" lon="-0.94518">
        <ele>88.5</ele>
      </trkpt>
      <trkpt lat="49.17663" lon="-0.9453">
        <ele>88.1</ele>
      </trkpt>
      <trkpt lat="49.1766" lon="-0.94564">
        <ele>87</ele>
      </trkpt>
      <trkpt lat="49.17654" lon="-0.94619">
        <ele>85.7</ele>
      </trkpt>
      <trkpt lat="49.1765" lon="-0.94635">
        <ele>85.4</ele>
      </trkpt>
      <trkpt lat="49.17643" lon="-0.94668">
        <ele>84.8</ele>
      </trkpt>
      <trkpt lat="49.17633" lon="-0.94716">
        <ele>84.3</ele>
      </trkpt>
      <trkpt lat="49.1763" lon="-0.94733">
        <ele>84.1</ele>
      </trkpt>
      <trkpt lat="49.17624" lon="-0.94769">
        <ele>83.4</ele>
      </trkpt>
      <trkpt lat="49.17612" lon="-0.94879">
        <ele>78.5</ele>
      </trkpt>
      <trkpt lat="49.1761" lon="-0.94894">
        <ele>77.5</ele>
      </trkpt>
      <trkpt lat="49.17608" lon="-0.94907">
        <ele>76.6</ele>
      </trkpt>
      <trkpt lat="49.17605" lon="-0.94924">
        <ele>75.4</ele>
      </trkpt>
      <trkpt lat="49.17595" lon="-0.94971">
        <ele>71.2</ele>
      </trkpt>
      <trkpt lat="49.1759" lon="-0.95004">
        <ele>68.2</ele>
      </trkpt>
      <trkpt lat="49.1759" lon="-0.95006">
        <ele>68.1</ele>
      </trkpt>
      <trkpt lat="49.17589" lon="-0.95013">
        <ele>67.8</ele>
      </trkpt>
      <trkpt lat="49.17589" lon="-0.95014">
        <ele>67.7</ele>
      </trkpt>
      <trkpt lat="49.17589" lon="-0.95025">
        <ele>67.4</ele>
      </trkpt>
      <trkpt lat="49.17589" lon="-0.95033">
        <ele>67.1</ele>
      </trkpt>
      <trkpt lat="49.17593" lon="-0.95052">
        <ele>66.5</ele>
      </trkpt>
      <trkpt lat="49.17596" lon="-0.9507">
        <ele>65.9</ele>
      </trkpt>
      <trkpt lat="49.17602" lon="-0.95131">
        <ele>67.7</ele>
      </trkpt>
      <trkpt lat="49.17602" lon="-0.95135">
        <ele>67.9</ele>
      </trkpt>
      <trkpt lat="49.17602" lon="-0.95137">
        <ele>68</ele>
      </trkpt>
      <trkpt lat="49.17604" lon="-0.95155">
        <ele>68.6</ele>
      </trkpt>
      <trkpt lat="49.17606" lon="-0.95184">
        <ele>70</ele>
      </trkpt>
      <trkpt lat="49.17607" lon="-0.95212">
        <ele>71.9</ele>
      </trkpt>
      <trkpt lat="49.17605" lon="-0.95246">
        <ele>74.3</ele>
      </trkpt>
      <trkpt lat="49.17605" lon="-0.95248">
        <ele>74.6</ele>
      </trkpt>
      <trkpt lat="49.17602" lon="-0.9529">
        <ele>75.9</ele>
      </trkpt>
      <trkpt lat="49.17599" lon="-0.95349">
        <ele>76.5</ele>
      </trkpt>
      <trkpt lat="49.17599" lon="-0.95363">
        <ele>76</ele>
      </trkpt>
      <trkpt lat="49.176" lon="-0.95373">
        <ele>75.6</ele>
      </trkpt>
      <trkpt lat="49.17602" lon="-0.95381">
        <ele>75.3</ele>
      </trkpt>
      <trkpt lat="49.17605" lon="-0.95388">
        <ele>74.9</ele>
      </trkpt>
      <trkpt lat="49.17612" lon="-0.95399">
        <ele>74.5</ele>
      </trkpt>
      <trkpt lat="49.17637" lon="-0.95435">
        <ele>74.9</ele>
      </trkpt>
      <trkpt lat="49.1764" lon="-0.95441">
        <ele>75.2</ele>
      </trkpt>
      <trkpt lat="49.17643" lon="-0.9545">
        <ele>75.6</ele>
      </trkpt>
      <trkpt lat="49.17644" lon="-0.95456">
        <ele>76</ele>
      </trkpt>
      <trkpt lat="49.17644" lon="-0.95462">
        <ele>76.3</ele>
      </trkpt>
      <trkpt lat="49.17644" lon="-0.95469">
        <ele>76.6</ele>
      </trkpt>
      <trkpt lat="49.17642" lon="-0.95478">
        <ele>77</ele>
      </trkpt>
      <trkpt lat="49.17632" lon="-0.95519">
        <ele>78.8</ele>
      </trkpt>
      <trkpt lat="49.17628" lon="-0.95535">
        <ele>79.5</ele>
      </trkpt>
      <trkpt lat="49.17628" lon="-0.95545">
        <ele>80</ele>
      </trkpt>
      <trkpt lat="49.17628" lon="-0.95556">
        <ele>80.6</ele>
      </trkpt>
      <trkpt lat="49.17631" lon="-0.95576">
        <ele>81.7</ele>
      </trkpt>
      <trkpt lat="49.17635" lon="-0.956">
        <ele>83.1</ele>
      </trkpt>
      <trkpt lat="49.17635" lon="-0.95602">
        <ele>83.2</ele>
      </trkpt>
      <trkpt lat="49.17635" lon="-0.95618">
        <ele>84.1</ele>
      </trkpt>
      <trkpt lat="49.17637" lon="-0.95619">
        <ele>84.2</ele>
      </trkpt>
      <trkpt lat="49.17641" lon="-0.95625">
        <ele>84.5</ele>
      </trkpt>
      <trkpt lat="49.17646" lon="-0.95631">
        <ele>84.9</ele>
      </trkpt>
      <trkpt lat="49.17661" lon="-0.95673">
        <ele>87</ele>
      </trkpt>
      <trkpt lat="49.17667" lon="-0.95691">
        <ele>87.3</ele>
      </trkpt>
      <trkpt lat="49.17679" lon="-0.95711">
        <ele>87.2</ele>
      </trkpt>
      <trkpt lat="49.17691" lon="-0.95732">
        <ele>87.2</ele>
      </trkpt>
      <trkpt lat="49.17694" lon="-0.95736">
        <ele>87.2</ele>
      </trkpt>
      <trkpt lat="49.17721" lon="-0.95783">
        <ele>85.8</ele>
      </trkpt>
      <trkpt lat="49.17734" lon="-0.95811">
        <ele>84.4</ele>
      </trkpt>
      <trkpt lat="49.17739" lon="-0.95823">
        <ele>83.9</ele>
      </trkpt>
      <trkpt lat="49.17742" lon="-0.95837">
        <ele>83.4</ele>
      </trkpt>
      <trkpt lat="49.17742" lon="-0.95843">
        <ele>83.4</ele>
      </trkpt>
      <trkpt lat="49.17743" lon="-0.95847">
        <ele>83.4</ele>
      </trkpt>
      <trkpt lat="49.17743" lon="-0.9586">
        <ele>83.3</ele>
      </trkpt>
      <trkpt lat="49.17743" lon="-0.95863">
        <ele>83.3</ele>
      </trkpt>
      <trkpt lat="49.17743" lon="-0.95878">
        <ele>83.3</ele>
      </trkpt>
      <trkpt lat="49.17743" lon="-0.9593">
        <ele>83.5</ele>
      </trkpt>
      <trkpt lat="49.17743" lon="-0.95946">
        <ele>83.6</ele>
      </trkpt>
      <trkpt lat="49.17743" lon="-0.95959">
        <ele>83.8</ele>
      </trkpt>
      <trkpt lat="49.17744" lon="-0.95969">
        <ele>83.8</ele>
      </trkpt>
      <trkpt lat="49.17744" lon="-0.9597">
        <ele>83.8</ele>
      </trkpt>
      <trkpt lat="49.17748" lon="-0.95979">
        <ele>83.8</ele>
      </trkpt>
      <trkpt lat="49.17767" lon="-0.96015">
        <ele>84.5</ele>
      </trkpt>
      <trkpt lat="49.17776" lon="-0.96031">
        <ele>85</ele>
      </trkpt>
      <trkpt lat="49.17792" lon="-0.96063">
        <ele>85.9</ele>
      </trkpt>
      <trkpt lat="49.17799" lon="-0.96075">
        <ele>86.2</ele>
      </trkpt>
      <trkpt lat="49.17803" lon="-0.96079">
        <ele>86.2</ele>
      </trkpt>
      <trkpt lat="49.17808" lon="-0.96085">
        <ele>86.3</ele>
      </trkpt>
      <trkpt lat="49.1784" lon="-0.96116">
        <ele>86.2</ele>
      </trkpt>
      <trkpt lat="49.17869" lon="-0.96147">
        <ele>86.1</ele>
      </trkpt>
      <trkpt lat="49.17878" lon="-0.9616">
        <ele>86.3</ele>
      </trkpt>
      <trkpt lat="49.17905" lon="-0.96207">
        <ele>87</ele>
      </trkpt>
      <trkpt lat="49.17938" lon="-0.96262">
        <ele>88.3</ele>
      </trkpt>
      <trkpt lat="49.1796" lon="-0.96303">
        <ele>88.2</ele>
      </trkpt>
      <trkpt lat="49.17961" lon="-0.96305">
        <ele>88.1</ele>
      </trkpt>
      <trkpt lat="49.17983" lon="-0.96353">
        <ele>87.6</ele>
      </trkpt>
      <trkpt lat="49.18012" lon="-0.9642">
        <ele>87.9</ele>
      </trkpt>
      <trkpt lat="49.18076" lon="-0.96368">
        <ele>87.4</ele>
      </trkpt>
      <trkpt lat="49.18102" lon="-0.96347">
        <ele>87.3</ele>
      </trkpt>
      <trkpt lat="49.1812" lon="-0.96339">
        <ele>87.5</ele>
      </trkpt>
      <trkpt lat="49.18146" lon="-0.96328">
        <ele>87.8</ele>
      </trkpt>
      <trkpt lat="49.18166" lon="-0.9632">
        <ele>88</ele>
      </trkpt>
      <trkpt lat="49.18178" lon="-0.96312">
        <ele>87.6</ele>
      </trkpt>
      <trkpt lat="49.18182" lon="-0.96309">
        <ele>87.5</ele>
      </trkpt>
      <trkpt lat="49.18197" lon="-0.96294">
        <ele>86.9</ele>
      </trkpt>
      <trkpt lat="49.18214" lon="-0.96276">
        <ele>86.3</ele>
      </trkpt>
      <trkpt lat="49.18224" lon="-0.96265">
        <ele>85.9</ele>
      </trkpt>
      <trkpt lat="49.18229" lon="-0.9626">
        <ele>85.8</ele>
      </trkpt>
      <trkpt lat="49.1825" lon="-0.96282">
        <ele>85</ele>
      </trkpt>
      <trkpt lat="49.18286" lon="-0.9631">
        <ele>84.6</ele>
      </trkpt>
      <trkpt lat="49.18306" lon="-0.96323">
        <ele>84.3</ele>
      </trkpt>
      <trkpt lat="49.18329" lon="-0.96333">
        <ele>84.1</ele>
      </trkpt>
      <trkpt lat="49.18344" lon="-0.96338">
        <ele>83.9</ele>
      </trkpt>
      <trkpt lat="49.18353" lon="-0.96342">
        <ele>83.8</ele>
      </trkpt>
      <trkpt lat="49.18355" lon="-0.96343">
        <ele>83.7</ele>
      </trkpt>
      <trkpt lat="49.18368" lon="-0.96351">
        <ele>83.6</ele>
      </trkpt>
      <trkpt lat="49.18388" lon="-0.96369">
        <ele>83.3</ele>
      </trkpt>
      <trkpt lat="49.18428" lon="-0.96403">
        <ele>83</ele>
      </trkpt>
      <trkpt lat="49.1849" lon="-0.96454">
        <ele>83.3</ele>
      </trkpt>
      <trkpt lat="49.18537" lon="-0.96496">
        <ele>82.6</ele>
      </trkpt>
      <trkpt lat="49.18547" lon="-0.96505">
        <ele>82.3</ele>
      </trkpt>
      <trkpt lat="49.18548" lon="-0.96508">
        <ele>82.2</ele>
      </trkpt>
      <trkpt lat="49.18547" lon="-0.96514">
        <ele>82.2</ele>
      </trkpt>
      <trkpt lat="49.18544" lon="-0.96524">
        <ele>82.1</ele>
      </trkpt>
      <trkpt lat="49.18518" lon="-0.96594">
        <ele>81.2</ele>
      </trkpt>
      <trkpt lat="49.18517" lon="-0.96597">
        <ele>81</ele>
      </trkpt>
      <trkpt lat="49.18519" lon="-0.96601">
        <ele>80.8</ele>
      </trkpt>
      <trkpt lat="49.18523" lon="-0.96605">
        <ele>80.5</ele>
      </trkpt>
      <trkpt lat="49.18534" lon="-0.96616">
        <ele>79.8</ele>
      </trkpt>
      <trkpt lat="49.18545" lon="-0.96629">
        <ele>79</ele>
      </trkpt>
      <trkpt lat="49.18547" lon="-0.96637">
        <ele>78.6</ele>
      </trkpt>
      <trkpt lat="49.18547" lon="-0.96643">
        <ele>78.2</ele>
      </trkpt>
      <trkpt lat="49.18544" lon="-0.96653">
        <ele>77.7</ele>
      </trkpt>
      <trkpt lat="49.18534" lon="-0.96686">
        <ele>76.4</ele>
      </trkpt>
      <trkpt lat="49.18527" lon="-0.96703">
        <ele>76</ele>
      </trkpt>
      <trkpt lat="49.1852" lon="-0.96711">
        <ele>75.9</ele>
      </trkpt>
      <trkpt lat="49.18517" lon="-0.96715">
        <ele>75.9</ele>
      </trkpt>
      <trkpt lat="49.18512" lon="-0.96722">
        <ele>75.9</ele>
      </trkpt>
      <trkpt lat="49.18505" lon="-0.96737">
        <ele>75.9</ele>
      </trkpt>
      <trkpt lat="49.18501" lon="-0.96751">
        <ele>76</ele>
      </trkpt>
      <trkpt lat="49.18499" lon="-0.96755">
        <ele>76.3</ele>
      </trkpt>
      <trkpt lat="49.18495" lon="-0.96768">
        <ele>77.1</ele>
      </trkpt>
      <trkpt lat="49.18492" lon="-0.96774">
        <ele>77.5</ele>
      </trkpt>
      <trkpt lat="49.18487" lon="-0.968">
        <ele>78.8</ele>
      </trkpt>
      <trkpt lat="49.18476" lon="-0.96835">
        <ele>80.8</ele>
      </trkpt>
      <trkpt lat="49.1846" lon="-0.96887">
        <ele>83.2</ele>
      </trkpt>
      <trkpt lat="49.18442" lon="-0.96946">
        <ele>84.7</ele>
      </trkpt>
      <trkpt lat="49.18437" lon="-0.96961">
        <ele>85</ele>
      </trkpt>
      <trkpt lat="49.18427" lon="-0.96996">
        <ele>85.7</ele>
      </trkpt>
      <trkpt lat="49.18422" lon="-0.97009">
        <ele>85.9</ele>
      </trkpt>
      <trkpt lat="49.18397" lon="-0.97084">
        <ele>86.2</ele>
      </trkpt>
      <trkpt lat="49.18369" lon="-0.97163">
        <ele>87.7</ele>
      </trkpt>
      <trkpt lat="49.18353" lon="-0.97149">
        <ele>88</ele>
      </trkpt>
      <trkpt lat="49.18342" lon="-0.9714">
        <ele>88.1</ele>
      </trkpt>
      <trkpt lat="49.18291" lon="-0.97096">
        <ele>88.7</ele>
      </trkpt>
      <trkpt lat="49.18279" lon="-0.97087">
        <ele>89</ele>
      </trkpt>
      <trkpt lat="49.18265" lon="-0.97076">
        <ele>89.2</ele>
      </trkpt>
      <trkpt lat="49.18255" lon="-0.97068">
        <ele>89.3</ele>
      </trkpt>
      <trkpt lat="49.18223" lon="-0.97044">
        <ele>89.2</ele>
      </trkpt>
      <trkpt lat="49.18206" lon="-0.97032">
        <ele>89.3</ele>
      </trkpt>
      <trkpt lat="49.18176" lon="-0.97009">
        <ele>89.8</ele>
      </trkpt>
      <trkpt lat="49.18152" lon="-0.96991">
        <ele>90.6</ele>
      </trkpt>
      <trkpt lat="49.18125" lon="-0.9697">
        <ele>91.5</ele>
      </trkpt>
      <trkpt lat="49.18115" lon="-0.96966">
        <ele>91.8</ele>
      </trkpt>
      <trkpt lat="49.18108" lon="-0.96964">
        <ele>92.1</ele>
      </trkpt>
      <trkpt lat="49.18101" lon="-0.96965">
        <ele>92.4</ele>
      </trkpt>
      <trkpt lat="49.18099" lon="-0.96967">
        <ele>92.5</ele>
      </trkpt>
      <trkpt lat="49.18094" lon="-0.9697">
        <ele>92.8</ele>
      </trkpt>
      <trkpt lat="49.18075" lon="-0.96998">
        <ele>93.9</ele>
      </trkpt>
      <trkpt lat="49.18051" lon="-0.97032">
        <ele>93.8</ele>
      </trkpt>
      <trkpt lat="49.18047" lon="-0.97038">
        <ele>93.7</ele>
      </trkpt>
      <trkpt lat="49.18059" lon="-0.9711">
        <ele>93.3</ele>
      </trkpt>
      <trkpt lat="49.18062" lon="-0.97128">
        <ele>93.3</ele>
      </trkpt>
      <trkpt lat="49.18065" lon="-0.97142">
        <ele>93.2</ele>
      </trkpt>
      <trkpt lat="49.18072" lon="-0.97184">
        <ele>93.2</ele>
      </trkpt>
      <trkpt lat="49.18072" lon="-0.97187">
        <ele>93.2</ele>
      </trkpt>
      <trkpt lat="49.18079" lon="-0.97234">
        <ele>93.1</ele>
      </trkpt>
      <trkpt lat="49.1808" lon="-0.9724">
        <ele>93.1</ele>
      </trkpt>
      <trkpt lat="49.18081" lon="-0.97261">
        <ele>92.9</ele>
      </trkpt>
      <trkpt lat="49.18081" lon="-0.97265">
        <ele>92.9</ele>
      </trkpt>
      <trkpt lat="49.18081" lon="-0.97279">
        <ele>92.7</ele>
      </trkpt>
      <trkpt lat="49.18081" lon="-0.97282">
        <ele>92.7</ele>
      </trkpt>
      <trkpt lat="49.18077" lon="-0.97307">
        <ele>92.4</ele>
      </trkpt>
      <trkpt lat="49.18067" lon="-0.97371">
        <ele>90.9</ele>
      </trkpt>
      <trkpt lat="49.18057" lon="-0.9743">
        <ele>89.3</ele>
      </trkpt>
      <trkpt lat="49.18057" lon="-0.97432">
        <ele>89.2</ele>
      </trkpt>
      <trkpt lat="49.18054" lon="-0.97451">
        <ele>88.7</ele>
      </trkpt>
      <trkpt lat="49.18053" lon="-0.97502">
        <ele>87.3</ele>
      </trkpt>
      <trkpt lat="49.18055" lon="-0.97583">
        <ele>85.7</ele>
      </trkpt>
      <trkpt lat="49.18056" lon="-0.97599">
        <ele>85.2</ele>
      </trkpt>
      <trkpt lat="49.18056" lon="-0.97604">
        <ele>85</ele>
      </trkpt>
      <trkpt lat="49.18057" lon="-0.97608">
        <ele>84.8</ele>
      </trkpt>
      <trkpt lat="49.18061" lon="-0.97627">
        <ele>84.1</ele>
      </trkpt>
      <trkpt lat="49.18063" lon="-0.9763">
        <ele>83.9</ele>
      </trkpt>
      <trkpt lat="49.18072" lon="-0.97644">
        <ele>83.2</ele>
      </trkpt>
      <trkpt lat="49.18089" lon="-0.97667">
        <ele>81.7</ele>
      </trkpt>
      <trkpt lat="49.181" lon="-0.97683">
        <ele>81.1</ele>
      </trkpt>
      <trkpt lat="49.18105" lon="-0.97693">
        <ele>80.8</ele>
      </trkpt>
      <trkpt lat="49.18107" lon="-0.97699">
        <ele>80.7</ele>
      </trkpt>
      <trkpt lat="49.18125" lon="-0.97738">
        <ele>80</ele>
      </trkpt>
      <trkpt lat="49.18139" lon="-0.97768">
        <ele>80.7</ele>
      </trkpt>
      <trkpt lat="49.1814" lon="-0.9777">
        <ele>80.8</ele>
      </trkpt>
      <trkpt lat="49.18144" lon="-0.97782">
        <ele>81.4</ele>
      </trkpt>
      <trkpt lat="49.18149" lon="-0.97793">
        <ele>81.9</ele>
      </trkpt>
      <trkpt lat="49.18155" lon="-0.9781">
        <ele>82.8</ele>
      </trkpt>
      <trkpt lat="49.18158" lon="-0.97829">
        <ele>83.9</ele>
      </trkpt>
      <trkpt lat="49.18159" lon="-0.97832">
        <ele>84</ele>
      </trkpt>
      <trkpt lat="49.18161" lon="-0.9785">
        <ele>84.7</ele>
      </trkpt>
      <trkpt lat="49.18168" lon="-0.97896">
        <ele>86.2</ele>
      </trkpt>
      <trkpt lat="49.1817" lon="-0.9791">
        <ele>86.7</ele>
      </trkpt>
      <trkpt lat="49.18172" lon="-0.97926">
        <ele>86.8</ele>
      </trkpt>
      <trkpt lat="49.18175" lon="-0.9795">
        <ele>86.5</ele>
      </trkpt>
      <trkpt lat="49.18179" lon="-0.97992">
        <ele>86.1</ele>
      </trkpt>
      <trkpt lat="49.1818" lon="-0.98025">
        <ele>86.2</ele>
      </trkpt>
      <trkpt lat="49.18182" lon="-0.98051">
        <ele>86.4</ele>
      </trkpt>
      <trkpt lat="49.18185" lon="-0.98074">
        <ele>86.5</ele>
      </trkpt>
      <trkpt lat="49.1819" lon="-0.98091">
        <ele>86.4</ele>
      </trkpt>
      <trkpt lat="49.18191" lon="-0.98094">
        <ele>86.3</ele>
      </trkpt>
      <trkpt lat="49.182" lon="-0.98115">
        <ele>86</ele>
      </trkpt>
      <trkpt lat="49.18201" lon="-0.98119">
        <ele>85.9</ele>
      </trkpt>
      <trkpt lat="49.18209" lon="-0.98144">
        <ele>85.6</ele>
      </trkpt>
      <trkpt lat="49.18222" lon="-0.98199">
        <ele>85.2</ele>
      </trkpt>
      <trkpt lat="49.18225" lon="-0.98215">
        <ele>85.1</ele>
      </trkpt>
      <trkpt lat="49.1823" lon="-0.9824">
        <ele>85</ele>
      </trkpt>
      <trkpt lat="49.18233" lon="-0.98256">
        <ele>84.8</ele>
      </trkpt>
      <trkpt lat="49.18235" lon="-0.9828">
        <ele>84.1</ele>
      </trkpt>
      <trkpt lat="49.18236" lon="-0.98291">
        <ele>83.7</ele>
      </trkpt>
      <trkpt lat="49.18236" lon="-0.98299">
        <ele>83.4</ele>
      </trkpt>
      <trkpt lat="49.18234" lon="-0.98322">
        <ele>82.7</ele>
      </trkpt>
      <trkpt lat="49.18229" lon="-0.98352">
        <ele>82.1</ele>
      </trkpt>
      <trkpt lat="49.18224" lon="-0.98377">
        <ele>81.7</ele>
      </trkpt>
      <trkpt lat="49.18222" lon="-0.98397">
        <ele>81.4</ele>
      </trkpt>
      <trkpt lat="49.18222" lon="-0.98414">
        <ele>81.1</ele>
      </trkpt>
      <trkpt lat="49.18225" lon="-0.98427">
        <ele>80.6</ele>
      </trkpt>
      <trkpt lat="49.1823" lon="-0.98435">
        <ele>80.2</ele>
      </trkpt>
      <trkpt lat="49.18231" lon="-0.98437">
        <ele>80.2</ele>
      </trkpt>
      <trkpt lat="49.18235" lon="-0.98444">
        <ele>79.9</ele>
      </trkpt>
      <trkpt lat="49.1825" lon="-0.98465">
        <ele>78.8</ele>
      </trkpt>
      <trkpt lat="49.18261" lon="-0.98485">
        <ele>78.4</ele>
      </trkpt>
      <trkpt lat="49.18265" lon="-0.98498">
        <ele>78.1</ele>
      </trkpt>
      <trkpt lat="49.1827" lon="-0.98495">
        <ele>78.1</ele>
      </trkpt>
      <trkpt lat="49.18295" lon="-0.98482">
        <ele>78.4</ele>
      </trkpt>
      <trkpt lat="49.18323" lon="-0.98467">
        <ele>78.8</ele>
      </trkpt>
      <trkpt lat="49.1835" lon="-0.98456">
        <ele>78.6</ele>
      </trkpt>
      <trkpt lat="49.18377" lon="-0.98447">
        <ele>78.2</ele>
      </trkpt>
      <trkpt lat="49.1838" lon="-0.98446">
        <ele>78.2</ele>
      </trkpt>
      <trkpt lat="49.18402" lon="-0.9844">
        <ele>77.8</ele>
      </trkpt>
      <trkpt lat="49.18413" lon="-0.98437">
        <ele>77.6</ele>
      </trkpt>
      <trkpt lat="49.18448" lon="-0.98426">
        <ele>77.7</ele>
      </trkpt>
      <trkpt lat="49.18479" lon="-0.98417">
        <ele>78</ele>
      </trkpt>
      <trkpt lat="49.18499" lon="-0.98412">
        <ele>78.1</ele>
      </trkpt>
      <trkpt lat="49.18519" lon="-0.98411">
        <ele>78.1</ele>
      </trkpt>
      <trkpt lat="49.18532" lon="-0.98412">
        <ele>78.1</ele>
      </trkpt>
      <trkpt lat="49.18545" lon="-0.98413">
        <ele>78.1</ele>
      </trkpt>
      <trkpt lat="49.1858" lon="-0.98415">
        <ele>78</ele>
      </trkpt>
      <trkpt lat="49.18605" lon="-0.98416">
        <ele>77.5</ele>
      </trkpt>
      <trkpt lat="49.18612" lon="-0.98419">
        <ele>77.2</ele>
      </trkpt>
      <trkpt lat="49.18657" lon="-0.98452">
        <ele>75.7</ele>
      </trkpt>
      <trkpt lat="49.18707" lon="-0.9849">
        <ele>74.6</ele>
      </trkpt>
      <trkpt lat="49.18711" lon="-0.98493">
        <ele>74.5</ele>
      </trkpt>
      <trkpt lat="49.18734" lon="-0.9851">
        <ele>73.9</ele>
      </trkpt>
      <trkpt lat="49.18764" lon="-0.98533">
        <ele>72.8</ele>
      </trkpt>
      <trkpt lat="49.18813" lon="-0.98569">
        <ele>71.3</ele>
      </trkpt>
      <trkpt lat="49.18824" lon="-0.98577">
        <ele>71.1</ele>
      </trkpt>
      <trkpt lat="49.18832" lon="-0.98583">
        <ele>71</ele>
      </trkpt>
      <trkpt lat="49.18841" lon="-0.98588">
        <ele>70.8</ele>
      </trkpt>
      <trkpt lat="49.1886" lon="-0.98591">
        <ele>70.3</ele>
      </trkpt>
      <trkpt lat="49.18905" lon="-0.98594">
        <ele>69.2</ele>
      </trkpt>
      <trkpt lat="49.18932" lon="-0.98596">
        <ele>68.8</ele>
      </trkpt>
      <trkpt lat="49.18967" lon="-0.98594">
        <ele>68.8</ele>
      </trkpt>
      <trkpt lat="49.18991" lon="-0.9859">
        <ele>68.8</ele>
      </trkpt>
      <trkpt lat="49.19021" lon="-0.98582">
        <ele>68</ele>
      </trkpt>
      <trkpt lat="49.19044" lon="-0.98571">
        <ele>66.7</ele>
      </trkpt>
      <trkpt lat="49.19072" lon="-0.98552">
        <ele>65.2</ele>
      </trkpt>
      <trkpt lat="49.19094" lon="-0.98531">
        <ele>64.1</ele>
      </trkpt>
      <trkpt lat="49.19116" lon="-0.98507">
        <ele>63</ele>
      </trkpt>
      <trkpt lat="49.19122" lon="-0.98497">
        <ele>62.6</ele>
      </trkpt>
      <trkpt lat="49.19123" lon="-0.98493">
        <ele>62.6</ele>
      </trkpt>
      <trkpt lat="49.19124" lon="-0.98489">
        <ele>62.6</ele>
      </trkpt>
      <trkpt lat="49.19126" lon="-0.98475">
        <ele>62.5</ele>
      </trkpt>
      <trkpt lat="49.19127" lon="-0.98475">
        <ele>62.4</ele>
      </trkpt>
      <trkpt lat="49.19133" lon="-0.98475">
        <ele>62.1</ele>
      </trkpt>
      <trkpt lat="49.19138" lon="-0.98473">
        <ele>61.9</ele>
      </trkpt>
      <trkpt lat="49.1915" lon="-0.98464">
        <ele>61.3</ele>
      </trkpt>
      <trkpt lat="49.19166" lon="-0.9845">
        <ele>60.4</ele>
      </trkpt>
      <trkpt lat="49.19182" lon="-0.98434">
        <ele>59.4</ele>
      </trkpt>
      <trkpt lat="49.19189" lon="-0.98427">
        <ele>58.7</ele>
      </trkpt>
      <trkpt lat="49.19193" lon="-0.98424">
        <ele>58.4</ele>
      </trkpt>
      <trkpt lat="49.19208" lon="-0.98415">
        <ele>57</ele>
      </trkpt>
      <trkpt lat="49.19209" lon="-0.98415">
        <ele>56.9</ele>
      </trkpt>
      <trkpt lat="49.19239" lon="-0.98402">
        <ele>54.4</ele>
      </trkpt>
      <trkpt lat="49.19274" lon="-0.98388">
        <ele>50.7</ele>
      </trkpt>
      <trkpt lat="49.19288" lon="-0.98384">
        <ele>49</ele>
      </trkpt>
      <trkpt lat="49.19298" lon="-0.98383">
        <ele>48</ele>
      </trkpt>
      <trkpt lat="49.19306" lon="-0.98386">
        <ele>47.4</ele>
      </trkpt>
      <trkpt lat="49.19312" lon="-0.98391">
        <ele>47.2</ele>
      </trkpt>
      <trkpt lat="49.19326" lon="-0.98408">
        <ele>47.7</ele>
      </trkpt>
      <trkpt lat="49.19335" lon="-0.98421">
        <ele>48.2</ele>
      </trkpt>
      <trkpt lat="49.19343" lon="-0.98433">
        <ele>48.1</ele>
      </trkpt>
      <trkpt lat="49.19358" lon="-0.98453">
        <ele>47.8</ele>
      </trkpt>
      <trkpt lat="49.19368" lon="-0.98473">
        <ele>47.7</ele>
      </trkpt>
      <trkpt lat="49.19373" lon="-0.98492">
        <ele>47.8</ele>
      </trkpt>
      <trkpt lat="49.19374" lon="-0.98498">
        <ele>48</ele>
      </trkpt>
      <trkpt lat="49.19375" lon="-0.98506">
        <ele>47.9</ele>
      </trkpt>
      <trkpt lat="49.19374" lon="-0.98522">
        <ele>47.9</ele>
      </trkpt>
      <trkpt lat="49.1937" lon="-0.98546">
        <ele>48.2</ele>
      </trkpt>
      <trkpt lat="49.19364" lon="-0.98579">
        <ele>48.7</ele>
      </trkpt>
      <trkpt lat="49.19361" lon="-0.986">
        <ele>49.3</ele>
      </trkpt>
      <trkpt lat="49.19361" lon="-0.98618">
        <ele>49.6</ele>
      </trkpt>
      <trkpt lat="49.19363" lon="-0.98647">
        <ele>49.6</ele>
      </trkpt>
      <trkpt lat="49.19369" lon="-0.98685">
        <ele>48.9</ele>
      </trkpt>
      <trkpt lat="49.19374" lon="-0.9872">
        <ele>48.1</ele>
      </trkpt>
      <trkpt lat="49.19378" lon="-0.98734">
        <ele>47.4</ele>
      </trkpt>
      <trkpt lat="49.19383" lon="-0.98749">
        <ele>46.5</ele>
      </trkpt>
      <trkpt lat="49.19385" lon="-0.98754">
        <ele>46.3</ele>
      </trkpt>
      <trkpt lat="49.19389" lon="-0.98763">
        <ele>46.2</ele>
      </trkpt>
      <trkpt lat="49.19392" lon="-0.98769">
        <ele>45.9</ele>
      </trkpt>
      <trkpt lat="49.19397" lon="-0.98776">
        <ele>45.6</ele>
      </trkpt>
      <trkpt lat="49.1941" lon="-0.98794">
        <ele>44.7</ele>
      </trkpt>
      <trkpt lat="49.19425" lon="-0.98813">
        <ele>44.6</ele>
      </trkpt>
      <trkpt lat="49.19429" lon="-0.98818">
        <ele>44.7</ele>
      </trkpt>
      <trkpt lat="49.19456" lon="-0.98847">
        <ele>44.1</ele>
      </trkpt>
      <trkpt lat="49.19492" lon="-0.98878">
        <ele>41.6</ele>
      </trkpt>
      <trkpt lat="49.19507" lon="-0.98893">
        <ele>40.7</ele>
      </trkpt>
      <trkpt lat="49.19514" lon="-0.98899">
        <ele>40.6</ele>
      </trkpt>
      <trkpt lat="49.19541" lon="-0.98923">
        <ele>39.3</ele>
      </trkpt>
      <trkpt lat="49.19566" lon="-0.98947">
        <ele>38.3</ele>
      </trkpt>
      <trkpt lat="49.19567" lon="-0.98948">
        <ele>38.3</ele>
      </trkpt>
      <trkpt lat="49.19579" lon="-0.98961">
        <ele>38.4</ele>
      </trkpt>
      <trkpt lat="49.19588" lon="-0.98974">
        <ele>39.4</ele>
      </trkpt>
      <trkpt lat="49.1958" lon="-0.98988">
        <ele>40.2</ele>
      </trkpt>
      <trkpt lat="49.19574" lon="-0.99001">
        <ele>41.2</ele>
      </trkpt>
      <trkpt lat="49.19567" lon="-0.99019">
        <ele>42.8</ele>
      </trkpt>
      <trkpt lat="49.19561" lon="-0.99039">
        <ele>44.3</ele>
      </trkpt>
      <trkpt lat="49.19555" lon="-0.99058">
        <ele>45.5</ele>
      </trkpt>
      <trkpt lat="49.19547" lon="-0.99076">
        <ele>46.3</ele>
      </trkpt>
      <trkpt lat="49.19535" lon="-0.9909">
        <ele>46.8</ele>
      </trkpt>
      <trkpt lat="49.1952" lon="-0.99105">
        <ele>47.6</ele>
      </trkpt>
      <trkpt lat="49.19506" lon="-0.99117">
        <ele>48.6</ele>
      </trkpt>
      <trkpt lat="49.19491" lon="-0.9913">
        <ele>50</ele>
      </trkpt>
      <trkpt lat="49.19478" lon="-0.99145">
        <ele>51.3</ele>
      </trkpt>
      <trkpt lat="49.19476" lon="-0.99147">
        <ele>51.4</ele>
      </trkpt>
      <trkpt lat="49.19466" lon="-0.99158">
        <ele>52.2</ele>
      </trkpt>
      <trkpt lat="49.19458" lon="-0.99172">
        <ele>52.9</ele>
      </trkpt>
      <trkpt lat="49.19453" lon="-0.99185">
        <ele>53.8</ele>
      </trkpt>
      <trkpt lat="49.1945" lon="-0.99197">
        <ele>54.9</ele>
      </trkpt>
      <trkpt lat="49.1945" lon="-0.99198">
        <ele>55</ele>
      </trkpt>
      <trkpt lat="49.1943" lon="-0.99206">
        <ele>55.1</ele>
      </trkpt>
      <trkpt lat="49.19419" lon="-0.99212">
        <ele>55.5</ele>
      </trkpt>
      <trkpt lat="49.19402" lon="-0.99222">
        <ele>55.6</ele>
      </trkpt>
      <trkpt lat="49.19375" lon="-0.99241">
        <ele>55.7</ele>
      </trkpt>
      <trkpt lat="49.19356" lon="-0.99257">
        <ele>55.5</ele>
      </trkpt>
      <trkpt lat="49.19345" lon="-0.99269">
        <ele>55.7</ele>
      </trkpt>
      <trkpt lat="49.19344" lon="-0.9927">
        <ele>55.7</ele>
      </trkpt>
      <trkpt lat="49.19332" lon="-0.99284">
        <ele>56.3</ele>
      </trkpt>
      <trkpt lat="49.19318" lon="-0.99295">
        <ele>57.5</ele>
      </trkpt>
      <trkpt lat="49.19304" lon="-0.99301">
        <ele>58.3</ele>
      </trkpt>
      <trkpt lat="49.19286" lon="-0.99306">
        <ele>59.1</ele>
      </trkpt>
      <trkpt lat="49.19274" lon="-0.99308">
        <ele>59.5</ele>
      </trkpt>
      <trkpt lat="49.19266" lon="-0.99309">
        <ele>59.8</ele>
      </trkpt>
      <trkpt lat="49.19241" lon="-0.99314">
        <ele>60.9</ele>
      </trkpt>
      <trkpt lat="49.1924" lon="-0.99314">
        <ele>61</ele>
      </trkpt>
      <trkpt lat="49.19236" lon="-0.99315">
        <ele>61.2</ele>
      </trkpt>
      <trkpt lat="49.19218" lon="-0.99318">
        <ele>62</ele>
      </trkpt>
      <trkpt lat="49.19191" lon="-0.99327">
        <ele>63.2</ele>
      </trkpt>
      <trkpt lat="49.1916" lon="-0.99339">
        <ele>64.2</ele>
      </trkpt>
      <trkpt lat="49.1914" lon="-0.99343">
        <ele>64.9</ele>
      </trkpt>
      <trkpt lat="49.19135" lon="-0.99343">
        <ele>65.1</ele>
      </trkpt>
      <trkpt lat="49.19126" lon="-0.99343">
        <ele>65.4</ele>
      </trkpt>
      <trkpt lat="49.19123" lon="-0.99343">
        <ele>65.5</ele>
      </trkpt>
      <trkpt lat="49.19107" lon="-0.99337">
        <ele>66.1</ele>
      </trkpt>
      <trkpt lat="49.19104" lon="-0.99336">
        <ele>66.2</ele>
      </trkpt>
      <trkpt lat="49.19081" lon="-0.99321">
        <ele>67.2</ele>
      </trkpt>
      <trkpt lat="49.1908" lon="-0.9932">
        <ele>67.2</ele>
      </trkpt>
      <trkpt lat="49.19049" lon="-0.99299">
        <ele>68.2</ele>
      </trkpt>
      <trkpt lat="49.19043" lon="-0.99295">
        <ele>68.4</ele>
      </trkpt>
      <trkpt lat="49.19018" lon="-0.99279">
        <ele>69.2</ele>
      </trkpt>
      <trkpt lat="49.19015" lon="-0.99278">
        <ele>69.3</ele>
      </trkpt>
      <trkpt lat="49.18986" lon="-0.99261">
        <ele>70.2</ele>
      </trkpt>
      <trkpt lat="49.18956" lon="-0.99247">
        <ele>71.1</ele>
      </trkpt>
      <trkpt lat="49.18944" lon="-0.99243">
        <ele>71.4</ele>
      </trkpt>
      <trkpt lat="49.18938" lon="-0.99241">
        <ele>71.5</ele>
      </trkpt>
      <trkpt lat="49.18931" lon="-0.99239">
        <ele>71.7</ele>
      </trkpt>
      <trkpt lat="49.18929" lon="-0.99251">
        <ele>71.7</ele>
      </trkpt>
      <trkpt lat="49.18925" lon="-0.99272">
        <ele>71.8</ele>
      </trkpt>
      <trkpt lat="49.18917" lon="-0.9932">
        <ele>72</ele>
      </trkpt>
      <trkpt lat="49.18913" lon="-0.99358">
        <ele>71.7</ele>
      </trkpt>
      <trkpt lat="49.18908" lon="-0.994">
        <ele>71.3</ele>
      </trkpt>
      <trkpt lat="49.18905" lon="-0.99422">
        <ele>70.9</ele>
      </trkpt>
      <trkpt lat="49.18901" lon="-0.99441">
        <ele>70.4</ele>
      </trkpt>
      <trkpt lat="49.18898" lon="-0.99455">
        <ele>70</ele>
      </trkpt>
      <trkpt lat="49.18892" lon="-0.99471">
        <ele>69.5</ele>
      </trkpt>
      <trkpt lat="49.18886" lon="-0.99485">
        <ele>69.2</ele>
      </trkpt>
      <trkpt lat="49.18877" lon="-0.99503">
        <ele>68.9</ele>
      </trkpt>
      <trkpt lat="49.18873" lon="-0.99509">
        <ele>68.9</ele>
      </trkpt>
      <trkpt lat="49.1887" lon="-0.99515">
        <ele>68.9</ele>
      </trkpt>
      <trkpt lat="49.18866" lon="-0.99525">
        <ele>68.9</ele>
      </trkpt>
      <trkpt lat="49.18862" lon="-0.99534">
        <ele>68.9</ele>
      </trkpt>
      <trkpt lat="49.18859" lon="-0.99544">
        <ele>68.9</ele>
      </trkpt>
      <trkpt lat="49.18855" lon="-0.99565">
        <ele>68.7</ele>
      </trkpt>
      <trkpt lat="49.18847" lon="-0.9961">
        <ele>68.7</ele>
      </trkpt>
      <trkpt lat="49.18842" lon="-0.99639">
        <ele>68.8</ele>
      </trkpt>
      <trkpt lat="49.1884" lon="-0.99647">
        <ele>68.8</ele>
      </trkpt>
      <trkpt lat="49.18837" lon="-0.99666">
        <ele>68.9</ele>
      </trkpt>
      <trkpt lat="49.18828" lon="-0.99718">
        <ele>67.9</ele>
      </trkpt>
      <trkpt lat="49.18824" lon="-0.9974">
        <ele>67.5</ele>
      </trkpt>
      <trkpt lat="49.18821" lon="-0.99746">
        <ele>67.4</ele>
      </trkpt>
      <trkpt lat="49.18818" lon="-0.99753">
        <ele>67.3</ele>
      </trkpt>
      <trkpt lat="49.18809" lon="-0.99766">
        <ele>67.1</ele>
      </trkpt>
      <trkpt lat="49.18803" lon="-0.99774">
        <ele>67.1</ele>
      </trkpt>
      <trkpt lat="49.18786" lon="-0.99797">
        <ele>67.1</ele>
      </trkpt>
      <trkpt lat="49.18778" lon="-0.99808">
        <ele>67.2</ele>
      </trkpt>
      <trkpt lat="49.18774" lon="-0.99815">
        <ele>67.2</ele>
      </trkpt>
      <trkpt lat="49.18771" lon="-0.99823">
        <ele>67.2</ele>
      </trkpt>
      <trkpt lat="49.18769" lon="-0.9983">
        <ele>67.1</ele>
      </trkpt>
      <trkpt lat="49.18762" lon="-0.99866">
        <ele>67.1</ele>
      </trkpt>
      <trkpt lat="49.18757" lon="-0.99896">
        <ele>67</ele>
      </trkpt>
      <trkpt lat="49.18755" lon="-0.99908">
        <ele>66.9</ele>
      </trkpt>
      <trkpt lat="49.18751" lon="-0.9993">
        <ele>67</ele>
      </trkpt>
      <trkpt lat="49.18747" lon="-0.99942">
        <ele>67.1</ele>
      </trkpt>
      <trkpt lat="49.18743" lon="-0.99952">
        <ele>67.3</ele>
      </trkpt>
      <trkpt lat="49.18738" lon="-0.99962">
        <ele>67.6</ele>
      </trkpt>
      <trkpt lat="49.18728" lon="-0.99976">
        <ele>68.1</ele>
      </trkpt>
      <trkpt lat="49.18715" lon="-0.99991">
        <ele>68.7</ele>
      </trkpt>
      <trkpt lat="49.18686" lon="-0.99977">
        <ele>70.1</ele>
      </trkpt>
      <trkpt lat="49.18663" lon="-0.99967">
        <ele>71.2</ele>
      </trkpt>
      <trkpt lat="49.18618" lon="-0.99945">
        <ele>73.7</ele>
      </trkpt>
      <trkpt lat="49.18615" lon="-0.99943">
        <ele>73.9</ele>
      </trkpt>
      <trkpt lat="49.18597" lon="-0.99935">
        <ele>75</ele>
      </trkpt>
      <trkpt lat="49.1858" lon="-0.99926">
        <ele>76</ele>
      </trkpt>
      <trkpt lat="49.18556" lon="-0.99915">
        <ele>77</ele>
      </trkpt>
      <trkpt lat="49.18537" lon="-0.99908">
        <ele>77.7</ele>
      </trkpt>
      <trkpt lat="49.18536" lon="-0.99925">
        <ele>77.6</ele>
      </trkpt>
      <trkpt lat="49.18534" lon="-0.99945">
        <ele>77.5</ele>
      </trkpt>
      <trkpt lat="49.1853" lon="-0.99966">
        <ele>77.3</ele>
      </trkpt>
      <trkpt lat="49.18524" lon="-1.00001">
        <ele>77.1</ele>
      </trkpt>
      <trkpt lat="49.18518" lon="-1.00031">
        <ele>76.5</ele>
      </trkpt>
      <trkpt lat="49.18516" lon="-1.00045">
        <ele>76.3</ele>
      </trkpt>
      <trkpt lat="49.18513" lon="-1.00058">
        <ele>76</ele>
      </trkpt>
      <trkpt lat="49.18508" lon="-1.00086">
        <ele>75.6</ele>
      </trkpt>
      <trkpt lat="49.18504" lon="-1.00115">
        <ele>75.4</ele>
      </trkpt>
      <trkpt lat="49.18502" lon="-1.00125">
        <ele>75.4</ele>
      </trkpt>
      <trkpt lat="49.18501" lon="-1.00137">
        <ele>75.3</ele>
      </trkpt>
      <trkpt lat="49.185" lon="-1.00143">
        <ele>75.3</ele>
      </trkpt>
      <trkpt lat="49.18498" lon="-1.00155">
        <ele>75.2</ele>
      </trkpt>
      <trkpt lat="49.18497" lon="-1.00174">
        <ele>75</ele>
      </trkpt>
      <trkpt lat="49.18496" lon="-1.0018">
        <ele>75</ele>
      </trkpt>
      <trkpt lat="49.18495" lon="-1.00198">
        <ele>74.8</ele>
      </trkpt>
      <trkpt lat="49.18493" lon="-1.00222">
        <ele>74.6</ele>
      </trkpt>
      <trkpt lat="49.18491" lon="-1.00274">
        <ele>74</ele>
      </trkpt>
      <trkpt lat="49.1849" lon="-1.00282">
        <ele>74</ele>
      </trkpt>
      <trkpt lat="49.18489" lon="-1.00285">
        <ele>74</ele>
      </trkpt>
      <trkpt lat="49.18488" lon="-1.0029">
        <ele>74</ele>
      </trkpt>
      <trkpt lat="49.18482" lon="-1.00308">
        <ele>74</ele>
      </trkpt>
      <trkpt lat="49.18468" lon="-1.00343">
        <ele>74</ele>
      </trkpt>
      <trkpt lat="49.18462" lon="-1.00361">
        <ele>74</ele>
      </trkpt>
      <trkpt lat="49.18456" lon="-1.0038">
        <ele>74</ele>
      </trkpt>
      <trkpt lat="49.18454" lon="-1.00385">
        <ele>74</ele>
      </trkpt>
      <trkpt lat="49.18446" lon="-1.00412">
        <ele>74</ele>
      </trkpt>
      <trkpt lat="49.1844" lon="-1.00431">
        <ele>74</ele>
      </trkpt>
      <trkpt lat="49.18438" lon="-1.00443">
        <ele>73.9</ele>
      </trkpt>
      <trkpt lat="49.18435" lon="-1.00462">
        <ele>73.8</ele>
      </trkpt>
      <trkpt lat="49.18432" lon="-1.0048">
        <ele>73.7</ele>
      </trkpt>
      <trkpt lat="49.18429" lon="-1.00516">
        <ele>73.4</ele>
      </trkpt>
      <trkpt lat="49.18425" lon="-1.00561">
        <ele>73</ele>
      </trkpt>
      <trkpt lat="49.18422" lon="-1.00596">
        <ele>72.9</ele>
      </trkpt>
      <trkpt lat="49.18413" lon="-1.00663">
        <ele>73</ele>
      </trkpt>
      <trkpt lat="49.18413" lon="-1.00664">
        <ele>73</ele>
      </trkpt>
      <trkpt lat="49.18407" lon="-1.00704">
        <ele>73.1</ele>
      </trkpt>
      <trkpt lat="49.18403" lon="-1.00726">
        <ele>73.2</ele>
      </trkpt>
      <trkpt lat="49.18398" lon="-1.00755">
        <ele>73.2</ele>
      </trkpt>
      <trkpt lat="49.18398" lon="-1.00757">
        <ele>73.2</ele>
      </trkpt>
      <trkpt lat="49.18392" lon="-1.0079">
        <ele>73.1</ele>
      </trkpt>
      <trkpt lat="49.18388" lon="-1.00805">
        <ele>73.1</ele>
      </trkpt>
      <trkpt lat="49.18385" lon="-1.00816">
        <ele>73.2</ele>
      </trkpt>
      <trkpt lat="49.1838" lon="-1.00828">
        <ele>73.3</ele>
      </trkpt>
      <trkpt lat="49.1838" lon="-1.00829">
        <ele>73.3</ele>
      </trkpt>
      <trkpt lat="49.18379" lon="-1.00837">
        <ele>73.2</ele>
      </trkpt>
      <trkpt lat="49.18376" lon="-1.00861">
        <ele>72.3</ele>
      </trkpt>
      <trkpt lat="49.18366" lon="-1.0094">
        <ele>69.8</ele>
      </trkpt>
      <trkpt lat="49.18357" lon="-1.0101">
        <ele>68.6</ele>
      </trkpt>
      <trkpt lat="49.18357" lon="-1.01011">
        <ele>68.6</ele>
      </trkpt>
      <trkpt lat="49.18351" lon="-1.01059">
        <ele>68.1</ele>
      </trkpt>
      <trkpt lat="49.18349" lon="-1.01081">
        <ele>67.8</ele>
      </trkpt>
      <trkpt lat="49.18349" lon="-1.01086">
        <ele>67.8</ele>
      </trkpt>
      <trkpt lat="49.18349" lon="-1.01101">
        <ele>67.4</ele>
      </trkpt>
      <trkpt lat="49.18352" lon="-1.01116">
        <ele>67.1</ele>
      </trkpt>
      <trkpt lat="49.18353" lon="-1.01118">
        <ele>67</ele>
      </trkpt>
      <trkpt lat="49.18359" lon="-1.01141">
        <ele>66.5</ele>
      </trkpt>
      <trkpt lat="49.18362" lon="-1.01161">
        <ele>66.1</ele>
      </trkpt>
      <trkpt lat="49.18362" lon="-1.01173">
        <ele>65.9</ele>
      </trkpt>
      <trkpt lat="49.18362" lon="-1.01185">
        <ele>65.7</ele>
      </trkpt>
      <trkpt lat="49.18361" lon="-1.01219">
        <ele>65.2</ele>
      </trkpt>
      <trkpt lat="49.18361" lon="-1.01228">
        <ele>65</ele>
      </trkpt>
      <trkpt lat="49.18362" lon="-1.01241">
        <ele>64.8</ele>
      </trkpt>
      <trkpt lat="49.18362" lon="-1.01244">
        <ele>64.8</ele>
      </trkpt>
      <trkpt lat="49.18363" lon="-1.01258">
        <ele>64.7</ele>
      </trkpt>
      <trkpt lat="49.18367" lon="-1.01297">
        <ele>64.7</ele>
      </trkpt>
      <trkpt lat="49.18374" lon="-1.01335">
        <ele>64.5</ele>
      </trkpt>
      <trkpt lat="49.18377" lon="-1.01351">
        <ele>64.2</ele>
      </trkpt>
      <trkpt lat="49.1839" lon="-1.01413">
        <ele>63</ele>
      </trkpt>
      <trkpt lat="49.18401" lon="-1.01463">
        <ele>61</ele>
      </trkpt>
      <trkpt lat="49.18416" lon="-1.01513">
        <ele>58.7</ele>
      </trkpt>
      <trkpt lat="49.1843" lon="-1.0156">
        <ele>57.2</ele>
      </trkpt>
      <trkpt lat="49.18436" lon="-1.01578">
        <ele>56.5</ele>
      </trkpt>
      <trkpt lat="49.18439" lon="-1.01586">
        <ele>56.1</ele>
      </trkpt>
      <trkpt lat="49.18446" lon="-1.01611">
        <ele>55.2</ele>
      </trkpt>
      <trkpt lat="49.18457" lon="-1.01641">
        <ele>54.1</ele>
      </trkpt>
      <trkpt lat="49.18461" lon="-1.01652">
        <ele>53.8</ele>
      </trkpt>
      <trkpt lat="49.18465" lon="-1.01664">
        <ele>53.5</ele>
      </trkpt>
      <trkpt lat="49.18477" lon="-1.01658">
        <ele>53.4</ele>
      </trkpt>
      <trkpt lat="49.18481" lon="-1.01678">
        <ele>53.5</ele>
      </trkpt>
      <trkpt lat="49.18487" lon="-1.01714">
        <ele>54.6</ele>
      </trkpt>
      <trkpt lat="49.18493" lon="-1.01746">
        <ele>55.7</ele>
      </trkpt>
      <trkpt lat="49.18496" lon="-1.01759">
        <ele>56.1</ele>
      </trkpt>
      <trkpt lat="49.18504" lon="-1.01794">
        <ele>57.1</ele>
      </trkpt>
      <trkpt lat="49.18521" lon="-1.01857">
        <ele>58.9</ele>
      </trkpt>
      <trkpt lat="49.18523" lon="-1.01862">
        <ele>58.9</ele>
      </trkpt>
      <trkpt lat="49.18536" lon="-1.01919">
        <ele>59.6</ele>
      </trkpt>
      <trkpt lat="49.18547" lon="-1.01965">
        <ele>60.3</ele>
      </trkpt>
      <trkpt lat="49.1855" lon="-1.01976">
        <ele>60.5</ele>
      </trkpt>
      <trkpt lat="49.18554" lon="-1.01985">
        <ele>60.7</ele>
      </trkpt>
      <trkpt lat="49.18555" lon="-1.01986">
        <ele>60.7</ele>
      </trkpt>
      <trkpt lat="49.18559" lon="-1.0199">
        <ele>60.8</ele>
      </trkpt>
      <trkpt lat="49.18566" lon="-1.01992">
        <ele>60.8</ele>
      </trkpt>
      <trkpt lat="49.18581" lon="-1.0199">
        <ele>60.8</ele>
      </trkpt>
      <trkpt lat="49.18582" lon="-1.0199">
        <ele>60.8</ele>
      </trkpt>
      <trkpt lat="49.18599" lon="-1.01986">
        <ele>60.5</ele>
      </trkpt>
      <trkpt lat="49.1861" lon="-1.0198">
        <ele>60.3</ele>
      </trkpt>
      <trkpt lat="49.18612" lon="-1.0198">
        <ele>60.3</ele>
      </trkpt>
      <trkpt lat="49.18629" lon="-1.0197">
        <ele>59.9</ele>
      </trkpt>
      <trkpt lat="49.18639" lon="-1.01966">
        <ele>59.8</ele>
      </trkpt>
      <trkpt lat="49.18671" lon="-1.01962">
        <ele>59.5</ele>
      </trkpt>
      <trkpt lat="49.1872" lon="-1.01954">
        <ele>58.8</ele>
      </trkpt>
      <trkpt lat="49.18763" lon="-1.01948">
        <ele>58.3</ele>
      </trkpt>
      <trkpt lat="49.18793" lon="-1.01946">
        <ele>58</ele>
      </trkpt>
      <trkpt lat="49.1881" lon="-1.01946">
        <ele>57.9</ele>
      </trkpt>
      <trkpt lat="49.18813" lon="-1.01946">
        <ele>57.9</ele>
      </trkpt>
      <trkpt lat="49.1883" lon="-1.01946">
        <ele>57.7</ele>
      </trkpt>
      <trkpt lat="49.18847" lon="-1.01944">
        <ele>57.2</ele>
      </trkpt>
      <trkpt lat="49.18874" lon="-1.01938">
        <ele>56.3</ele>
      </trkpt>
      <trkpt lat="49.18919" lon="-1.01928">
        <ele>55</ele>
      </trkpt>
      <trkpt lat="49.18965" lon="-1.01916">
        <ele>53.8</ele>
      </trkpt>
      <trkpt lat="49.18979" lon="-1.01912">
        <ele>53.5</ele>
      </trkpt>
      <trkpt lat="49.19001" lon="-1.01906">
        <ele>53</ele>
      </trkpt>
      <trkpt lat="49.19002" lon="-1.01906">
        <ele>53</ele>
      </trkpt>
      <trkpt lat="49.19008" lon="-1.01904">
        <ele>52.9</ele>
      </trkpt>
      <trkpt lat="49.1903" lon="-1.01898">
        <ele>52.7</ele>
      </trkpt>
      <trkpt lat="49.19049" lon="-1.01893">
        <ele>52.6</ele>
      </trkpt>
      <trkpt lat="49.19078" lon="-1.01884">
        <ele>52.4</ele>
      </trkpt>
      <trkpt lat="49.1908" lon="-1.01883">
        <ele>52.4</ele>
      </trkpt>
      <trkpt lat="49.19097" lon="-1.01875">
        <ele>52.2</ele>
      </trkpt>
      <trkpt lat="49.1911" lon="-1.01869">
        <ele>51.9</ele>
      </trkpt>
      <trkpt lat="49.19121" lon="-1.01863">
        <ele>51.6</ele>
      </trkpt>
      <trkpt lat="49.19137" lon="-1.01855">
        <ele>51.1</ele>
      </trkpt>
      <trkpt lat="49.19146" lon="-1.01851">
        <ele>50.9</ele>
      </trkpt>
      <trkpt lat="49.19149" lon="-1.0185">
        <ele>50.8</ele>
      </trkpt>
      <trkpt lat="49.19158" lon="-1.01846">
        <ele>50.4</ele>
      </trkpt>
      <trkpt lat="49.19169" lon="-1.01842">
        <ele>50.1</ele>
      </trkpt>
      <trkpt lat="49.19194" lon="-1.01834">
        <ele>49.3</ele>
      </trkpt>
      <trkpt lat="49.19229" lon="-1.01822">
        <ele>48.3</ele>
      </trkpt>
      <trkpt lat="49.19239" lon="-1.01819">
        <ele>48</ele>
      </trkpt>
      <trkpt lat="49.19254" lon="-1.01814">
        <ele>47.5</ele>
      </trkpt>
      <trkpt lat="49.19276" lon="-1.01807">
        <ele>47.3</ele>
      </trkpt>
      <trkpt lat="49.19293" lon="-1.018">
        <ele>47</ele>
      </trkpt>
      <trkpt lat="49.19311" lon="-1.01793">
        <ele>46.7</ele>
      </trkpt>
      <trkpt lat="49.19324" lon="-1.01791">
        <ele>46.5</ele>
      </trkpt>
      <trkpt lat="49.19344" lon="-1.01793">
        <ele>45.9</ele>
      </trkpt>
      <trkpt lat="49.19345" lon="-1.01783">
        <ele>45.4</ele>
      </trkpt>
      <trkpt lat="49.1935" lon="-1.01738">
        <ele>43.6</ele>
      </trkpt>
      <trkpt lat="49.19356" lon="-1.01704">
        <ele>42.9</ele>
      </trkpt>
      <trkpt lat="49.19365" lon="-1.01672">
        <ele>42.3</ele>
      </trkpt>
      <trkpt lat="49.19375" lon="-1.01636">
        <ele>42.6</ele>
      </trkpt>
      <trkpt lat="49.19375" lon="-1.01635">
        <ele>42.6</ele>
      </trkpt>
      <trkpt lat="49.19389" lon="-1.01588">
        <ele>43.6</ele>
      </trkpt>
      <trkpt lat="49.19396" lon="-1.01565">
        <ele>43.6</ele>
      </trkpt>
      <trkpt lat="49.19396" lon="-1.01585">
        <ele>43.7</ele>
      </trkpt>
      <trkpt lat="49.19395" lon="-1.01605">
        <ele>43.2</ele>
      </trkpt>
      <trkpt lat="49.19395" lon="-1.01619">
        <ele>42.8</ele>
      </trkpt>
      <trkpt lat="49.19395" lon="-1.01634">
        <ele>42.4</ele>
      </trkpt>
      <trkpt lat="49.19396" lon="-1.01637">
        <ele>42.3</ele>
      </trkpt>
      <trkpt lat="49.19398" lon="-1.01655">
        <ele>41.8</ele>
      </trkpt>
      <trkpt lat="49.19406" lon="-1.01678">
        <ele>41.1</ele>
      </trkpt>
      <trkpt lat="49.19414" lon="-1.01697">
        <ele>40.4</ele>
      </trkpt>
      <trkpt lat="49.19427" lon="-1.01725">
        <ele>40.2</ele>
      </trkpt>
      <trkpt lat="49.19442" lon="-1.01746">
        <ele>40.3</ele>
      </trkpt>
      <trkpt lat="49.19463" lon="-1.01774">
        <ele>41.1</ele>
      </trkpt>
      <trkpt lat="49.19487" lon="-1.01807">
        <ele>40.5</ele>
      </trkpt>
      <trkpt lat="49.19506" lon="-1.01833">
        <ele>39.3</ele>
      </trkpt>
      <trkpt lat="49.19521" lon="-1.01857">
        <ele>40.4</ele>
      </trkpt>
      <trkpt lat="49.19524" lon="-1.01862">
        <ele>40.5</ele>
      </trkpt>
      <trkpt lat="49.19534" lon="-1.01879">
        <ele>40.7</ele>
      </trkpt>
      <trkpt lat="49.19548" lon="-1.01899">
        <ele>40.5</ele>
      </trkpt>
      <trkpt lat="49.19565" lon="-1.01918">
        <ele>39.7</ele>
      </trkpt>
      <trkpt lat="49.19581" lon="-1.01931">
        <ele>39.8</ele>
      </trkpt>
      <trkpt lat="49.19592" lon="-1.01938">
        <ele>39.7</ele>
      </trkpt>
      <trkpt lat="49.19603" lon="-1.01941">
        <ele>39.4</ele>
      </trkpt>
      <trkpt lat="49.19617" lon="-1.01942">
        <ele>38.8</ele>
      </trkpt>
      <trkpt lat="49.19632" lon="-1.01944">
        <ele>38.2</ele>
      </trkpt>
      <trkpt lat="49.19651" lon="-1.01949">
        <ele>37.4</ele>
      </trkpt>
      <trkpt lat="49.19668" lon="-1.01952">
        <ele>36.6</ele>
      </trkpt>
      <trkpt lat="49.19672" lon="-1.01952">
        <ele>36.5</ele>
      </trkpt>
      <trkpt lat="49.19679" lon="-1.01952">
        <ele>36.4</ele>
      </trkpt>
      <trkpt lat="49.19686" lon="-1.01952">
        <ele>36.3</ele>
      </trkpt>
      <trkpt lat="49.19689" lon="-1.01962">
        <ele>36</ele>
      </trkpt>
      <trkpt lat="49.19703" lon="-1.01973">
        <ele>35.4</ele>
      </trkpt>
      <trkpt lat="49.19727" lon="-1.01987">
        <ele>34.3</ele>
      </trkpt>
      <trkpt lat="49.19746" lon="-1.01996">
        <ele>33.3</ele>
      </trkpt>
      <trkpt lat="49.19754" lon="-1.02002">
        <ele>33.3</ele>
      </trkpt>
      <trkpt lat="49.19761" lon="-1.0201">
        <ele>33.9</ele>
      </trkpt>
      <trkpt lat="49.19764" lon="-1.02014">
        <ele>34.1</ele>
      </trkpt>
      <trkpt lat="49.19767" lon="-1.02021">
        <ele>34.5</ele>
      </trkpt>
      <trkpt lat="49.19769" lon="-1.02025">
        <ele>34.6</ele>
      </trkpt>
      <trkpt lat="49.19771" lon="-1.02032">
        <ele>34.9</ele>
      </trkpt>
      <trkpt lat="49.19772" lon="-1.02036">
        <ele>35</ele>
      </trkpt>
      <trkpt lat="49.19773" lon="-1.02041">
        <ele>35.1</ele>
      </trkpt>
      <trkpt lat="49.19774" lon="-1.02051">
        <ele>35.4</ele>
      </trkpt>
      <trkpt lat="49.19774" lon="-1.02062">
        <ele>35.6</ele>
      </trkpt>
      <trkpt lat="49.19773" lon="-1.02072">
        <ele>35.9</ele>
      </trkpt>
      <trkpt lat="49.19773" lon="-1.02078">
        <ele>36.1</ele>
      </trkpt>
      <trkpt lat="49.19776" lon="-1.02084">
        <ele>36.1</ele>
      </trkpt>
      <trkpt lat="49.19781" lon="-1.02093">
        <ele>36.3</ele>
      </trkpt>
      <trkpt lat="49.1979" lon="-1.02111">
        <ele>36.6</ele>
      </trkpt>
      <trkpt lat="49.19798" lon="-1.02135">
        <ele>36.9</ele>
      </trkpt>
      <trkpt lat="49.19803" lon="-1.02149">
        <ele>37</ele>
      </trkpt>
      <trkpt lat="49.19809" lon="-1.02165">
        <ele>37</ele>
      </trkpt>
      <trkpt lat="49.19818" lon="-1.02188">
        <ele>36.7</ele>
      </trkpt>
      <trkpt lat="49.19823" lon="-1.02202">
        <ele>36.7</ele>
      </trkpt>
      <trkpt lat="49.19825" lon="-1.02211">
        <ele>36.7</ele>
      </trkpt>
      <trkpt lat="49.19827" lon="-1.02222">
        <ele>36.8</ele>
      </trkpt>
      <trkpt lat="49.19829" lon="-1.02229">
        <ele>36.9</ele>
      </trkpt>
      <trkpt lat="49.19832" lon="-1.02235">
        <ele>36.7</ele>
      </trkpt>
      <trkpt lat="49.19835" lon="-1.02236">
        <ele>36.6</ele>
      </trkpt>
      <trkpt lat="49.19838" lon="-1.02237">
        <ele>36.4</ele>
      </trkpt>
      <trkpt lat="49.19846" lon="-1.02235">
        <ele>35.8</ele>
      </trkpt>
      <trkpt lat="49.19856" lon="-1.02235">
        <ele>35.2</ele>
      </trkpt>
      <trkpt lat="49.19866" lon="-1.02238">
        <ele>34.5</ele>
      </trkpt>
      <trkpt lat="49.19874" lon="-1.02245">
        <ele>34.1</ele>
      </trkpt>
      <trkpt lat="49.1989" lon="-1.02268">
        <ele>34.1</ele>
      </trkpt>
      <trkpt lat="49.19906" lon="-1.02292">
        <ele>34.7</ele>
      </trkpt>
      <trkpt lat="49.19924" lon="-1.02312">
        <ele>34.7</ele>
      </trkpt>
      <trkpt lat="49.19926" lon="-1.02314">
        <ele>34.6</ele>
      </trkpt>
      <trkpt lat="49.19942" lon="-1.02329">
        <ele>33.7</ele>
      </trkpt>
      <trkpt lat="49.1995" lon="-1.02338">
        <ele>33.2</ele>
      </trkpt>
      <trkpt lat="49.19954" lon="-1.02346">
        <ele>33.4</ele>
      </trkpt>
      <trkpt lat="49.19962" lon="-1.02363">
        <ele>33.7</ele>
      </trkpt>
      <trkpt lat="49.19971" lon="-1.02385">
        <ele>34.4</ele>
      </trkpt>
      <trkpt lat="49.19978" lon="-1.02404">
        <ele>35.1</ele>
      </trkpt>
      <trkpt lat="49.19979" lon="-1.02406">
        <ele>35.2</ele>
      </trkpt>
      <trkpt lat="49.19985" lon="-1.02419">
        <ele>35.6</ele>
      </trkpt>
      <trkpt lat="49.1999" lon="-1.02433">
        <ele>36.1</ele>
      </trkpt>
      <trkpt lat="49.19993" lon="-1.0244">
        <ele>36.3</ele>
      </trkpt>
      <trkpt lat="49.19998" lon="-1.02446">
        <ele>36.3</ele>
      </trkpt>
      <trkpt lat="49.20001" lon="-1.02448">
        <ele>36.1</ele>
      </trkpt>
      <trkpt lat="49.20003" lon="-1.02448">
        <ele>36.1</ele>
      </trkpt>
      <trkpt lat="49.2001" lon="-1.02446">
        <ele>35.3</ele>
      </trkpt>
      <trkpt lat="49.2002" lon="-1.02443">
        <ele>34.3</ele>
      </trkpt>
      <trkpt lat="49.20027" lon="-1.02443">
        <ele>33.7</ele>
      </trkpt>
      <trkpt lat="49.20034" lon="-1.02447">
        <ele>33.5</ele>
      </trkpt>
      <trkpt lat="49.20041" lon="-1.02454">
        <ele>33.4</ele>
      </trkpt>
      <trkpt lat="49.20045" lon="-1.02458">
        <ele>33.5</ele>
      </trkpt>
      <trkpt lat="49.20051" lon="-1.02465">
        <ele>33.5</ele>
      </trkpt>
      <trkpt lat="49.20057" lon="-1.0247">
        <ele>33.5</ele>
      </trkpt>
      <trkpt lat="49.20065" lon="-1.02477">
        <ele>33.5</ele>
      </trkpt>
      <trkpt lat="49.20085" lon="-1.02486">
        <ele>32.7</ele>
      </trkpt>
      <trkpt lat="49.20091" lon="-1.02489">
        <ele>32.6</ele>
      </trkpt>
      <trkpt lat="49.20114" lon="-1.02495">
        <ele>31.8</ele>
      </trkpt>
      <trkpt lat="49.20129" lon="-1.02497">
        <ele>31</ele>
      </trkpt>
      <trkpt lat="49.20134" lon="-1.02498">
        <ele>30.8</ele>
      </trkpt>
      <trkpt lat="49.20139" lon="-1.02487">
        <ele>29.7</ele>
      </trkpt>
      <trkpt lat="49.20144" lon="-1.02481">
        <ele>28.9</ele>
      </trkpt>
      <trkpt lat="49.20152" lon="-1.02476">
        <ele>28.1</ele>
      </trkpt>
      <trkpt lat="49.20163" lon="-1.02471">
        <ele>27.2</ele>
      </trkpt>
      <trkpt lat="49.20179" lon="-1.02469">
        <ele>25.9</ele>
      </trkpt>
      <trkpt lat="49.20196" lon="-1.02469">
        <ele>24.8</ele>
      </trkpt>
      <trkpt lat="49.20208" lon="-1.02469">
        <ele>24</ele>
      </trkpt>
      <trkpt lat="49.20237" lon="-1.02466">
        <ele>22</ele>
      </trkpt>
      <trkpt lat="49.20277" lon="-1.02458">
        <ele>20</ele>
      </trkpt>
      <trkpt lat="49.20291" lon="-1.02455">
        <ele>19.5</ele>
      </trkpt>
      <trkpt lat="49.20305" lon="-1.02452">
        <ele>19</ele>
      </trkpt>
      <trkpt lat="49.20312" lon="-1.02451">
        <ele>18.7</ele>
      </trkpt>
      <trkpt lat="49.20317" lon="-1.02528">
        <ele>18.7</ele>
      </trkpt>
      <trkpt lat="49.20317" lon="-1.02558">
        <ele>18.6</ele>
      </trkpt>
      <trkpt lat="49.20315" lon="-1.02581">
        <ele>18.7</ele>
      </trkpt>
      <trkpt lat="49.20308" lon="-1.02618">
        <ele>18.3</ele>
      </trkpt>
      <trkpt lat="49.20306" lon="-1.02623">
        <ele>18.2</ele>
      </trkpt>
      <trkpt lat="49.20298" lon="-1.02652">
        <ele>17.8</ele>
      </trkpt>
      <trkpt lat="49.20288" lon="-1.02687">
        <ele>17.3</ele>
      </trkpt>
      <trkpt lat="49.2028" lon="-1.02724">
        <ele>17.2</ele>
      </trkpt>
      <trkpt lat="49.20276" lon="-1.02743">
        <ele>17.1</ele>
      </trkpt>
      <trkpt lat="49.2027" lon="-1.02777">
        <ele>17</ele>
      </trkpt>
      <trkpt lat="49.20269" lon="-1.02802">
        <ele>16.8</ele>
      </trkpt>
      <trkpt lat="49.2027" lon="-1.02811">
        <ele>16.7</ele>
      </trkpt>
      <trkpt lat="49.2027" lon="-1.02815">
        <ele>16.7</ele>
      </trkpt>
      <trkpt lat="49.20271" lon="-1.02828">
        <ele>16.5</ele>
      </trkpt>
      <trkpt lat="49.20277" lon="-1.02855">
        <ele>17.1</ele>
      </trkpt>
      <trkpt lat="49.20281" lon="-1.02864">
        <ele>17.3</ele>
      </trkpt>
      <trkpt lat="49.20285" lon="-1.02875">
        <ele>17.4</ele>
      </trkpt>
      <trkpt lat="49.20289" lon="-1.02886">
        <ele>17.4</ele>
      </trkpt>
      <trkpt lat="49.20303" lon="-1.02923">
        <ele>17.3</ele>
      </trkpt>
      <trkpt lat="49.20307" lon="-1.02932">
        <ele>17.5</ele>
      </trkpt>
      <trkpt lat="49.20317" lon="-1.02965">
        <ele>18.3</ele>
      </trkpt>
      <trkpt lat="49.20325" lon="-1.03">
        <ele>19.2</ele>
      </trkpt>
      <trkpt lat="49.20328" lon="-1.03026">
        <ele>20.8</ele>
      </trkpt>
      <trkpt lat="49.20331" lon="-1.03051">
        <ele>22.5</ele>
      </trkpt>
      <trkpt lat="49.20337" lon="-1.03076">
        <ele>24</ele>
      </trkpt>
      <trkpt lat="49.20338" lon="-1.03079">
        <ele>24.2</ele>
      </trkpt>
      <trkpt lat="49.20354" lon="-1.03114">
        <ele>23.3</ele>
      </trkpt>
      <trkpt lat="49.20368" lon="-1.03144">
        <ele>21.8</ele>
      </trkpt>
      <trkpt lat="49.20371" lon="-1.03153">
        <ele>21.5</ele>
      </trkpt>
      <trkpt lat="49.20376" lon="-1.03166">
        <ele>20.9</ele>
      </trkpt>
      <trkpt lat="49.20384" lon="-1.03203">
        <ele>18.7</ele>
      </trkpt>
      <trkpt lat="49.2039" lon="-1.03246">
        <ele>17</ele>
      </trkpt>
      <trkpt lat="49.20392" lon="-1.03259">
        <ele>16.6</ele>
      </trkpt>
      <trkpt lat="49.20392" lon="-1.03267">
        <ele>16.3</ele>
      </trkpt>
      <trkpt lat="49.20395" lon="-1.03285">
        <ele>15.7</ele>
      </trkpt>
      <trkpt lat="49.20396" lon="-1.03294">
        <ele>15.5</ele>
      </trkpt>
      <trkpt lat="49.20396" lon="-1.03306">
        <ele>15.1</ele>
      </trkpt>
      <trkpt lat="49.20397" lon="-1.0332">
        <ele>14.8</ele>
      </trkpt>
      <trkpt lat="49.20397" lon="-1.03324">
        <ele>14.7</ele>
      </trkpt>
      <trkpt lat="49.20397" lon="-1.03329">
        <ele>14.6</ele>
      </trkpt>
      <trkpt lat="49.20398" lon="-1.03338">
        <ele>14.5</ele>
      </trkpt>
      <trkpt lat="49.204" lon="-1.0335">
        <ele>14.6</ele>
      </trkpt>
      <trkpt lat="49.20402" lon="-1.03356">
        <ele>14.7</ele>
      </trkpt>
      <trkpt lat="49.20407" lon="-1.03378">
        <ele>14.6</ele>
      </trkpt>
      <trkpt lat="49.20409" lon="-1.03397">
        <ele>14.6</ele>
      </trkpt>
      <trkpt lat="49.20408" lon="-1.03415">
        <ele>14.8</ele>
      </trkpt>
      <trkpt lat="49.20403" lon="-1.03436">
        <ele>15.2</ele>
      </trkpt>
      <trkpt lat="49.20389" lon="-1.03477">
        <ele>16.1</ele>
      </trkpt>
      <trkpt lat="49.20386" lon="-1.03489">
        <ele>16.4</ele>
      </trkpt>
      <trkpt lat="49.20373" lon="-1.03529">
        <ele>17.5</ele>
      </trkpt>
      <trkpt lat="49.20356" lon="-1.03584">
        <ele>18.8</ele>
      </trkpt>
      <trkpt lat="49.20354" lon="-1.03592">
        <ele>18.8</ele>
      </trkpt>
      <trkpt lat="49.20344" lon="-1.03626">
        <ele>18.7</ele>
      </trkpt>
      <trkpt lat="49.20338" lon="-1.03656">
        <ele>18.1</ele>
      </trkpt>
      <trkpt lat="49.20337" lon="-1.03665">
        <ele>17.9</ele>
      </trkpt>
      <trkpt lat="49.20334" lon="-1.0369">
        <ele>17.2</ele>
      </trkpt>
      <trkpt lat="49.20332" lon="-1.03702">
        <ele>16.8</ele>
      </trkpt>
      <trkpt lat="49.2033" lon="-1.03744">
        <ele>15.7</ele>
      </trkpt>
      <trkpt lat="49.2033" lon="-1.03786">
        <ele>16</ele>
      </trkpt>
      <trkpt lat="49.20331" lon="-1.03818">
        <ele>16.1</ele>
      </trkpt>
      <trkpt lat="49.20335" lon="-1.03855">
        <ele>16.7</ele>
      </trkpt>
      <trkpt lat="49.20338" lon="-1.03879">
        <ele>17.4</ele>
      </trkpt>
      <trkpt lat="49.20339" lon="-1.03882">
        <ele>17.5</ele>
      </trkpt>
      <trkpt lat="49.2034" lon="-1.03886">
        <ele>17.6</ele>
      </trkpt>
      <trkpt lat="49.20342" lon="-1.03891">
        <ele>17.6</ele>
      </trkpt>
      <trkpt lat="49.20345" lon="-1.03895">
        <ele>17.6</ele>
      </trkpt>
      <trkpt lat="49.20351" lon="-1.03902">
        <ele>17.5</ele>
      </trkpt>
      <trkpt lat="49.20358" lon="-1.03906">
        <ele>17.2</ele>
      </trkpt>
      <trkpt lat="49.20365" lon="-1.0391">
        <ele>16.9</ele>
      </trkpt>
      <trkpt lat="49.20369" lon="-1.03914">
        <ele>16.8</ele>
      </trkpt>
      <trkpt lat="49.20374" lon="-1.03921">
        <ele>16.6</ele>
      </trkpt>
      <trkpt lat="49.20377" lon="-1.03929">
        <ele>16.4</ele>
      </trkpt>
      <trkpt lat="49.2038" lon="-1.03939">
        <ele>16.2</ele>
      </trkpt>
      <trkpt lat="49.20382" lon="-1.03946">
        <ele>16</ele>
      </trkpt>
      <trkpt lat="49.20386" lon="-1.03958">
        <ele>15.7</ele>
      </trkpt>
      <trkpt lat="49.20392" lon="-1.0397">
        <ele>15.2</ele>
      </trkpt>
      <trkpt lat="49.204" lon="-1.03979">
        <ele>14.6</ele>
      </trkpt>
      <trkpt lat="49.20404" lon="-1.03984">
        <ele>14.2</ele>
      </trkpt>
      <trkpt lat="49.20411" lon="-1.03992">
        <ele>13.5</ele>
      </trkpt>
      <trkpt lat="49.20417" lon="-1.03998">
        <ele>13</ele>
      </trkpt>
      <trkpt lat="49.20421" lon="-1.04004">
        <ele>13</ele>
      </trkpt>
      <trkpt lat="49.20424" lon="-1.04012">
        <ele>13</ele>
      </trkpt>
      <trkpt lat="49.20427" lon="-1.0402">
        <ele>13</ele>
      </trkpt>
      <trkpt lat="49.20433" lon="-1.04053">
        <ele>13</ele>
      </trkpt>
      <trkpt lat="49.20441" lon="-1.04086">
        <ele>13</ele>
      </trkpt>
      <trkpt lat="49.20449" lon="-1.04115">
        <ele>13.6</ele>
      </trkpt>
      <trkpt lat="49.20449" lon="-1.04116">
        <ele>13.6</ele>
      </trkpt>
      <trkpt lat="49.20462" lon="-1.04158">
        <ele>14.3</ele>
      </trkpt>
      <trkpt lat="49.20467" lon="-1.04172">
        <ele>14.4</ele>
      </trkpt>
      <trkpt lat="49.20472" lon="-1.04192">
        <ele>14.4</ele>
      </trkpt>
      <trkpt lat="49.20476" lon="-1.04206">
        <ele>14.3</ele>
      </trkpt>
      <trkpt lat="49.20479" lon="-1.04213">
        <ele>14.3</ele>
      </trkpt>
      <trkpt lat="49.20492" lon="-1.04256">
        <ele>13.7</ele>
      </trkpt>
      <trkpt lat="49.20502" lon="-1.04287">
        <ele>14.3</ele>
      </trkpt>
      <trkpt lat="49.20508" lon="-1.04303">
        <ele>14.7</ele>
      </trkpt>
      <trkpt lat="49.20511" lon="-1.04312">
        <ele>14.9</ele>
      </trkpt>
      <trkpt lat="49.20518" lon="-1.04324">
        <ele>15.1</ele>
      </trkpt>
      <trkpt lat="49.20529" lon="-1.04345">
        <ele>15.6</ele>
      </trkpt>
      <trkpt lat="49.20532" lon="-1.04351">
        <ele>15.7</ele>
      </trkpt>
      <trkpt lat="49.20544" lon="-1.04373">
        <ele>16.3</ele>
      </trkpt>
      <trkpt lat="49.20557" lon="-1.04403">
        <ele>17</ele>
      </trkpt>
      <trkpt lat="49.20568" lon="-1.04431">
        <ele>17.4</ele>
      </trkpt>
      <trkpt lat="49.20582" lon="-1.04473">
        <ele>17.5</ele>
      </trkpt>
      <trkpt lat="49.20594" lon="-1.0451">
        <ele>17.3</ele>
      </trkpt>
      <trkpt lat="49.20602" lon="-1.04539">
        <ele>17.2</ele>
      </trkpt>
      <trkpt lat="49.20608" lon="-1.0456">
        <ele>17.3</ele>
      </trkpt>
      <trkpt lat="49.2061" lon="-1.04571">
        <ele>17.4</ele>
      </trkpt>
      <trkpt lat="49.20612" lon="-1.04588">
        <ele>18</ele>
      </trkpt>
      <trkpt lat="49.20618" lon="-1.0459">
        <ele>17.8</ele>
      </trkpt>
      <trkpt lat="49.20617" lon="-1.04598">
        <ele>18.4</ele>
      </trkpt>
      <trkpt lat="49.2062" lon="-1.04629">
        <ele>20.3</ele>
      </trkpt>
      <trkpt lat="49.20625" lon="-1.04667">
        <ele>22.5</ele>
      </trkpt>
      <trkpt lat="49.20627" lon="-1.0468">
        <ele>22.7</ele>
      </trkpt>
      <trkpt lat="49.2063" lon="-1.04687">
        <ele>22.7</ele>
      </trkpt>
      <trkpt lat="49.20634" lon="-1.04695">
        <ele>22.5</ele>
      </trkpt>
      <trkpt lat="49.20636" lon="-1.04697">
        <ele>22.5</ele>
      </trkpt>
      <trkpt lat="49.20639" lon="-1.04702">
        <ele>22.4</ele>
      </trkpt>
      <trkpt lat="49.2065" lon="-1.04713">
        <ele>21.8</ele>
      </trkpt>
      <trkpt lat="49.20656" lon="-1.04718">
        <ele>21.4</ele>
      </trkpt>
      <trkpt lat="49.20673" lon="-1.04733">
        <ele>20.1</ele>
      </trkpt>
      <trkpt lat="49.20674" lon="-1.04734">
        <ele>20</ele>
      </trkpt>
      <trkpt lat="49.2068" lon="-1.0474">
        <ele>19.4</ele>
      </trkpt>
      <trkpt lat="49.20683" lon="-1.04743">
        <ele>19.2</ele>
      </trkpt>
      <trkpt lat="49.20684" lon="-1.04745">
        <ele>19.1</ele>
      </trkpt>
      <trkpt lat="49.20688" lon="-1.04752">
        <ele>18.8</ele>
      </trkpt>
      <trkpt lat="49.2069" lon="-1.0476">
        <ele>18.7</ele>
      </trkpt>
      <trkpt lat="49.20691" lon="-1.04772">
        <ele>18.8</ele>
      </trkpt>
      <trkpt lat="49.20691" lon="-1.04778">
        <ele>18.8</ele>
      </trkpt>
      <trkpt lat="49.2069" lon="-1.04789">
        <ele>19.1</ele>
      </trkpt>
      <trkpt lat="49.20688" lon="-1.04803">
        <ele>19.5</ele>
      </trkpt>
      <trkpt lat="49.20684" lon="-1.04819">
        <ele>20.1</ele>
      </trkpt>
      <trkpt lat="49.20682" lon="-1.04824">
        <ele>20.4</ele>
      </trkpt>
      <trkpt lat="49.20687" lon="-1.04838">
        <ele>20.1</ele>
      </trkpt>
      <trkpt lat="49.20695" lon="-1.04863">
        <ele>19.7</ele>
      </trkpt>
      <trkpt lat="49.20702" lon="-1.04885">
        <ele>19.5</ele>
      </trkpt>
      <trkpt lat="49.20709" lon="-1.04912">
        <ele>19.3</ele>
      </trkpt>
      <trkpt lat="49.20716" lon="-1.04935">
        <ele>19.5</ele>
      </trkpt>
      <trkpt lat="49.20723" lon="-1.04956">
        <ele>19.7</ele>
      </trkpt>
      <trkpt lat="49.20732" lon="-1.04977">
        <ele>19.9</ele>
      </trkpt>
      <trkpt lat="49.20744" lon="-1.05003">
        <ele>20.3</ele>
      </trkpt>
      <trkpt lat="49.20744" lon="-1.05004">
        <ele>20.3</ele>
      </trkpt>
      <trkpt lat="49.20755" lon="-1.05025">
        <ele>19.9</ele>
      </trkpt>
      <trkpt lat="49.20761" lon="-1.05035">
        <ele>19.5</ele>
      </trkpt>
      <trkpt lat="49.20765" lon="-1.0504">
        <ele>19.2</ele>
      </trkpt>
      <trkpt lat="49.20773" lon="-1.05058">
        <ele>18.8</ele>
      </trkpt>
      <trkpt lat="49.2078" lon="-1.05076">
        <ele>18.4</ele>
      </trkpt>
      <trkpt lat="49.20789" lon="-1.05098">
        <ele>17.8</ele>
      </trkpt>
      <trkpt lat="49.20796" lon="-1.05118">
        <ele>17.3</ele>
      </trkpt>
      <trkpt lat="49.20801" lon="-1.05134">
        <ele>16.9</ele>
      </trkpt>
      <trkpt lat="49.20808" lon="-1.0516">
        <ele>16.4</ele>
      </trkpt>
      <trkpt lat="49.20816" lon="-1.05189">
        <ele>16.2</ele>
      </trkpt>
      <trkpt lat="49.20826" lon="-1.05219">
        <ele>16</ele>
      </trkpt>
      <trkpt lat="49.20836" lon="-1.05248">
        <ele>15.7</ele>
      </trkpt>
      <trkpt lat="49.20844" lon="-1.05272">
        <ele>15.2</ele>
      </trkpt>
      <trkpt lat="49.2085" lon="-1.05284">
        <ele>14.8</ele>
      </trkpt>
      <trkpt lat="49.20852" lon="-1.05287">
        <ele>14.6</ele>
      </trkpt>
      <trkpt lat="49.20853" lon="-1.05288">
        <ele>14.6</ele>
      </trkpt>
      <trkpt lat="49.20864" lon="-1.05308">
        <ele>13.8</ele>
      </trkpt>
      <trkpt lat="49.20876" lon="-1.05332">
        <ele>12.9</ele>
      </trkpt>
      <trkpt lat="49.20892" lon="-1.05364">
        <ele>12.1</ele>
      </trkpt>
      <trkpt lat="49.20911" lon="-1.054">
        <ele>11.2</ele>
      </trkpt>
      <trkpt lat="49.20924" lon="-1.05431">
        <ele>11.1</ele>
      </trkpt>
      <trkpt lat="49.20931" lon="-1.0545">
        <ele>11.4</ele>
      </trkpt>
      <trkpt lat="49.20935" lon="-1.05467">
        <ele>11.7</ele>
      </trkpt>
      <trkpt lat="49.20937" lon="-1.05479">
        <ele>11.9</ele>
      </trkpt>
      <trkpt lat="49.20938" lon="-1.05487">
        <ele>12.1</ele>
      </trkpt>
      <trkpt lat="49.20938" lon="-1.05494">
        <ele>12.3</ele>
      </trkpt>
      <trkpt lat="49.20939" lon="-1.055">
        <ele>12.4</ele>
      </trkpt>
      <trkpt lat="49.20941" lon="-1.05514">
        <ele>12.4</ele>
      </trkpt>
      <trkpt lat="49.20947" lon="-1.05533">
        <ele>12.3</ele>
      </trkpt>
      <trkpt lat="49.20957" lon="-1.05555">
        <ele>12</ele>
      </trkpt>
      <trkpt lat="49.20967" lon="-1.05579">
        <ele>11.9</ele>
      </trkpt>
      <trkpt lat="49.20975" lon="-1.05603">
        <ele>12.2</ele>
      </trkpt>
      <trkpt lat="49.20983" lon="-1.05626">
        <ele>12.6</ele>
      </trkpt>
      <trkpt lat="49.20991" lon="-1.05651">
        <ele>13</ele>
      </trkpt>
      <trkpt lat="49.20998" lon="-1.0567">
        <ele>13.2</ele>
      </trkpt>
      <trkpt lat="49.21003" lon="-1.05686">
        <ele>13.2</ele>
      </trkpt>
      <trkpt lat="49.21004" lon="-1.05693">
        <ele>13.3</ele>
      </trkpt>
      <trkpt lat="49.21006" lon="-1.05701">
        <ele>13.3</ele>
      </trkpt>
      <trkpt lat="49.21013" lon="-1.05722">
        <ele>13.2</ele>
      </trkpt>
      <trkpt lat="49.21021" lon="-1.05742">
        <ele>12.8</ele>
      </trkpt>
      <trkpt lat="49.21037" lon="-1.0578">
        <ele>12.2</ele>
      </trkpt>
      <trkpt lat="49.21052" lon="-1.05814">
        <ele>11.4</ele>
      </trkpt>
      <trkpt lat="49.21055" lon="-1.05821">
        <ele>11.1</ele>
      </trkpt>
      <trkpt lat="49.21061" lon="-1.05833">
        <ele>10.7</ele>
      </trkpt>
      <trkpt lat="49.21073" lon="-1.0586">
        <ele>9.3</ele>
      </trkpt>
      <trkpt lat="49.21084" lon="-1.05879">
        <ele>8</ele>
      </trkpt>
      <trkpt lat="49.21092" lon="-1.05892">
        <ele>7.7</ele>
      </trkpt>
      <trkpt lat="49.21094" lon="-1.05895">
        <ele>7.6</ele>
      </trkpt>
      <trkpt lat="49.211" lon="-1.05904">
        <ele>7.4</ele>
      </trkpt>
      <trkpt lat="49.21111" lon="-1.05922">
        <ele>7.2</ele>
      </trkpt>
      <trkpt lat="49.21128" lon="-1.05947">
        <ele>7.5</ele>
      </trkpt>
      <trkpt lat="49.21141" lon="-1.05971">
        <ele>7.7</ele>
      </trkpt>
      <trkpt lat="49.21153" lon="-1.05997">
        <ele>7.7</ele>
      </trkpt>
      <trkpt lat="49.21167" lon="-1.06028">
        <ele>8</ele>
      </trkpt>
      <trkpt lat="49.2117" lon="-1.06034">
        <ele>8.1</ele>
      </trkpt>
      <trkpt lat="49.2118" lon="-1.06056">
        <ele>8.5</ele>
      </trkpt>
      <trkpt lat="49.21189" lon="-1.06077">
        <ele>8.7</ele>
      </trkpt>
      <trkpt lat="49.21193" lon="-1.06086">
        <ele>8.8</ele>
      </trkpt>
      <trkpt lat="49.21205" lon="-1.06106">
        <ele>9.2</ele>
      </trkpt>
      <trkpt lat="49.21229" lon="-1.06144">
        <ele>9.6</ele>
      </trkpt>
      <trkpt lat="49.21254" lon="-1.06185">
        <ele>10.4</ele>
      </trkpt>
      <trkpt lat="49.2128" lon="-1.06227">
        <ele>12.3</ele>
      </trkpt>
      <trkpt lat="49.21295" lon="-1.06249">
        <ele>13.2</ele>
      </trkpt>
      <trkpt lat="49.21303" lon="-1.06261">
        <ele>13.8</ele>
      </trkpt>
      <trkpt lat="49.21304" lon="-1.06263">
        <ele>13.9</ele>
      </trkpt>
      <trkpt lat="49.21326" lon="-1.06301">
        <ele>15.7</ele>
      </trkpt>
      <trkpt lat="49.21351" lon="-1.06338">
        <ele>16.6</ele>
      </trkpt>
      <trkpt lat="49.21378" lon="-1.06376">
        <ele>16.5</ele>
      </trkpt>
      <trkpt lat="49.21379" lon="-1.06377">
        <ele>16.5</ele>
      </trkpt>
      <trkpt lat="49.21404" lon="-1.06413">
        <ele>16.2</ele>
      </trkpt>
      <trkpt lat="49.21426" lon="-1.06445">
        <ele>15.7</ele>
      </trkpt>
      <trkpt lat="49.21437" lon="-1.06463">
        <ele>15.6</ele>
      </trkpt>
      <trkpt lat="49.21445" lon="-1.06476">
        <ele>15.4</ele>
      </trkpt>
      <trkpt lat="49.21451" lon="-1.06492">
        <ele>15.4</ele>
      </trkpt>
      <trkpt lat="49.21456" lon="-1.06509">
        <ele>15.5</ele>
      </trkpt>
      <trkpt lat="49.2146" lon="-1.06535">
        <ele>15.7</ele>
      </trkpt>
      <trkpt lat="49.21465" lon="-1.06554">
        <ele>15.8</ele>
      </trkpt>
      <trkpt lat="49.21468" lon="-1.06561">
        <ele>15.7</ele>
      </trkpt>
      <trkpt lat="49.21473" lon="-1.06567">
        <ele>15.5</ele>
      </trkpt>
      <trkpt lat="49.21477" lon="-1.06568">
        <ele>15.2</ele>
      </trkpt>
      <trkpt lat="49.21475" lon="-1.06578">
        <ele>15.6</ele>
      </trkpt>
      <trkpt lat="49.21474" lon="-1.06593">
        <ele>16.2</ele>
      </trkpt>
      <trkpt lat="49.21474" lon="-1.06607">
        <ele>16.6</ele>
      </trkpt>
      <trkpt lat="49.21479" lon="-1.06631">
        <ele>17.1</ele>
      </trkpt>
      <trkpt lat="49.21489" lon="-1.06658">
        <ele>17.8</ele>
      </trkpt>
      <trkpt lat="49.21496" lon="-1.06695">
        <ele>19.7</ele>
      </trkpt>
      <trkpt lat="49.21503" lon="-1.06751">
        <ele>23</ele>
      </trkpt>
      <trkpt lat="49.21509" lon="-1.06825">
        <ele>26.5</ele>
      </trkpt>
      <trkpt lat="49.21509" lon="-1.06842">
        <ele>27.3</ele>
      </trkpt>
      <trkpt lat="49.21507" lon="-1.06844">
        <ele>27.4</ele>
      </trkpt>
      <trkpt lat="49.21496" lon="-1.06853">
        <ele>28</ele>
      </trkpt>
      <trkpt lat="49.21491" lon="-1.06859">
        <ele>28.4</ele>
      </trkpt>
      <trkpt lat="49.21489" lon="-1.06865">
        <ele>28.7</ele>
      </trkpt>
      <trkpt lat="49.21488" lon="-1.06875">
        <ele>29.2</ele>
      </trkpt>
      <trkpt lat="49.21488" lon="-1.06877">
        <ele>29.3</ele>
      </trkpt>
      <trkpt lat="49.21486" lon="-1.06901">
        <ele>30.6</ele>
      </trkpt>
      <trkpt lat="49.21484" lon="-1.06933">
        <ele>31.8</ele>
      </trkpt>
      <trkpt lat="49.2148" lon="-1.06973">
        <ele>33</ele>
      </trkpt>
      <trkpt lat="49.21477" lon="-1.07003">
        <ele>33.9</ele>
      </trkpt>
      <trkpt lat="49.21474" lon="-1.07022">
        <ele>34.3</ele>
      </trkpt>
      <trkpt lat="49.21469" lon="-1.07048">
        <ele>34.9</ele>
      </trkpt>
      <trkpt lat="49.21463" lon="-1.07083">
        <ele>35.8</ele>
      </trkpt>
      <trkpt lat="49.21444" lon="-1.07081">
        <ele>36.6</ele>
      </trkpt>
      <trkpt lat="49.21443" lon="-1.07081">
        <ele>36.7</ele>
      </trkpt>
      <trkpt lat="49.21418" lon="-1.07079">
        <ele>37.8</ele>
      </trkpt>
      <trkpt lat="49.21396" lon="-1.07077">
        <ele>37.8</ele>
      </trkpt>
      <trkpt lat="49.21384" lon="-1.07078">
        <ele>37.9</ele>
      </trkpt>
      <trkpt lat="49.21371" lon="-1.07082">
        <ele>38</ele>
      </trkpt>
      <trkpt lat="49.21359" lon="-1.0709">
        <ele>38.1</ele>
      </trkpt>
      <trkpt lat="49.2135" lon="-1.07098">
        <ele>38.1</ele>
      </trkpt>
      <trkpt lat="49.21349" lon="-1.07099">
        <ele>38.2</ele>
      </trkpt>
      <trkpt lat="49.21336" lon="-1.07113">
        <ele>38.4</ele>
      </trkpt>
      <trkpt lat="49.21321" lon="-1.0713">
        <ele>38.4</ele>
      </trkpt>
      <trkpt lat="49.21319" lon="-1.07132">
        <ele>38.4</ele>
      </trkpt>
      <trkpt lat="49.21313" lon="-1.07137">
        <ele>38.5</ele>
      </trkpt>
      <trkpt lat="49.21308" lon="-1.07141">
        <ele>38.5</ele>
      </trkpt>
      <trkpt lat="49.21303" lon="-1.07144">
        <ele>38.5</ele>
      </trkpt>
      <trkpt lat="49.21285" lon="-1.07154">
        <ele>38.7</ele>
      </trkpt>
      <trkpt lat="49.21266" lon="-1.07164">
        <ele>38.9</ele>
      </trkpt>
      <trkpt lat="49.21254" lon="-1.07168">
        <ele>39</ele>
      </trkpt>
      <trkpt lat="49.21247" lon="-1.07171">
        <ele>38.9</ele>
      </trkpt>
      <trkpt lat="49.21223" lon="-1.0718">
        <ele>38.4</ele>
      </trkpt>
      <trkpt lat="49.21215" lon="-1.07183">
        <ele>38.3</ele>
      </trkpt>
      <trkpt lat="49.21201" lon="-1.07188">
        <ele>38</ele>
      </trkpt>
      <trkpt lat="49.21185" lon="-1.07195">
        <ele>37.8</ele>
      </trkpt>
      <trkpt lat="49.21165" lon="-1.07201">
        <ele>37.6</ele>
      </trkpt>
      <trkpt lat="49.21157" lon="-1.07203">
        <ele>37.6</ele>
      </trkpt>
      <trkpt lat="49.21149" lon="-1.07206">
        <ele>37.6</ele>
      </trkpt>
      <trkpt lat="49.21135" lon="-1.07209">
        <ele>37.7</ele>
      </trkpt>
      <trkpt lat="49.21118" lon="-1.07211">
        <ele>37.8</ele>
      </trkpt>
      <trkpt lat="49.211" lon="-1.07214">
        <ele>37.9</ele>
      </trkpt>
      <trkpt lat="49.21072" lon="-1.07219">
        <ele>38</ele>
      </trkpt>
      <trkpt lat="49.21048" lon="-1.07225">
        <ele>38</ele>
      </trkpt>
      <trkpt lat="49.21043" lon="-1.07226">
        <ele>38</ele>
      </trkpt>
      <trkpt lat="49.21049" lon="-1.07228">
        <ele>38</ele>
      </trkpt>
      <trkpt lat="49.21055" lon="-1.0723">
        <ele>38</ele>
      </trkpt>
      <trkpt lat="49.2106" lon="-1.07234">
        <ele>38</ele>
      </trkpt>
      <trkpt lat="49.21072" lon="-1.07247">
        <ele>38</ele>
      </trkpt>
      <trkpt lat="49.21087" lon="-1.07267">
        <ele>37.4</ele>
      </trkpt>
      <trkpt lat="49.21105" lon="-1.07288">
        <ele>36.5</ele>
      </trkpt>
      <trkpt lat="49.21131" lon="-1.07322">
        <ele>35.3</ele>
      </trkpt>
      <trkpt lat="49.21149" lon="-1.07345">
        <ele>34.5</ele>
      </trkpt>
      <trkpt lat="49.21159" lon="-1.07357">
        <ele>33.9</ele>
      </trkpt>
      <trkpt lat="49.21168" lon="-1.07365">
        <ele>33.5</ele>
      </trkpt>
      <trkpt lat="49.21184" lon="-1.07374">
        <ele>33.1</ele>
      </trkpt>
      <trkpt lat="49.21207" lon="-1.07386">
        <ele>32.5</ele>
      </trkpt>
      <trkpt lat="49.21229" lon="-1.07398">
        <ele>31.9</ele>
      </trkpt>
      <trkpt lat="49.21255" lon="-1.07411">
        <ele>31.3</ele>
      </trkpt>
      <trkpt lat="49.21257" lon="-1.07412">
        <ele>31.2</ele>
      </trkpt>
      <trkpt lat="49.21278" lon="-1.07423">
        <ele>30.7</ele>
      </trkpt>
      <trkpt lat="49.21293" lon="-1.07429">
        <ele>30.4</ele>
      </trkpt>
      <trkpt lat="49.21299" lon="-1.07431">
        <ele>30.3</ele>
      </trkpt>
      <trkpt lat="49.21312" lon="-1.07438">
        <ele>30.1</ele>
      </trkpt>
      <trkpt lat="49.21321" lon="-1.07446">
        <ele>29.9</ele>
      </trkpt>
      <trkpt lat="49.21325" lon="-1.07452">
        <ele>29.6</ele>
      </trkpt>
      <trkpt lat="49.21327" lon="-1.07454">
        <ele>29.6</ele>
      </trkpt>
      <trkpt lat="49.21332" lon="-1.07466">
        <ele>29.2</ele>
      </trkpt>
      <trkpt lat="49.21337" lon="-1.07479">
        <ele>28.7</ele>
      </trkpt>
      <trkpt lat="49.21341" lon="-1.07499">
        <ele>28</ele>
      </trkpt>
      <trkpt lat="49.21344" lon="-1.0751">
        <ele>27.5</ele>
      </trkpt>
      <trkpt lat="49.21349" lon="-1.07541">
        <ele>26.4</ele>
      </trkpt>
      <trkpt lat="49.21355" lon="-1.07565">
        <ele>25.4</ele>
      </trkpt>
      <trkpt lat="49.21359" lon="-1.07583">
        <ele>24.7</ele>
      </trkpt>
      <trkpt lat="49.21366" lon="-1.07604">
        <ele>23.6</ele>
      </trkpt>
      <trkpt lat="49.21374" lon="-1.07625">
        <ele>22.5</ele>
      </trkpt>
      <trkpt lat="49.21377" lon="-1.07632">
        <ele>22.2</ele>
      </trkpt>
      <trkpt lat="49.21386" lon="-1.07656">
        <ele>21.1</ele>
      </trkpt>
      <trkpt lat="49.21395" lon="-1.07675">
        <ele>20.2</ele>
      </trkpt>
      <trkpt lat="49.21403" lon="-1.07689">
        <ele>19.5</ele>
      </trkpt>
      <trkpt lat="49.21404" lon="-1.07691">
        <ele>19.4</ele>
      </trkpt>
      <trkpt lat="49.21414" lon="-1.07705">
        <ele>18.7</ele>
      </trkpt>
      <trkpt lat="49.21423" lon="-1.07714">
        <ele>18</ele>
      </trkpt>
      <trkpt lat="49.21426" lon="-1.07717">
        <ele>17.8</ele>
      </trkpt>
      <trkpt lat="49.21444" lon="-1.0773">
        <ele>16.8</ele>
      </trkpt>
      <trkpt lat="49.21469" lon="-1.07744">
        <ele>15.7</ele>
      </trkpt>
      <trkpt lat="49.21489" lon="-1.07757">
        <ele>15</ele>
      </trkpt>
      <trkpt lat="49.21494" lon="-1.0776">
        <ele>14.8</ele>
      </trkpt>
      <trkpt lat="49.21499" lon="-1.07763">
        <ele>14.7</ele>
      </trkpt>
      <trkpt lat="49.21521" lon="-1.0778">
        <ele>13.9</ele>
      </trkpt>
      <trkpt lat="49.21561" lon="-1.07811">
        <ele>12.6</ele>
      </trkpt>
      <trkpt lat="49.21593" lon="-1.07834">
        <ele>11.8</ele>
      </trkpt>
      <trkpt lat="49.21619" lon="-1.07851">
        <ele>10.8</ele>
      </trkpt>
      <trkpt lat="49.21658" lon="-1.07872">
        <ele>9.7</ele>
      </trkpt>
      <trkpt lat="49.21707" lon="-1.07895">
        <ele>8.4</ele>
      </trkpt>
      <trkpt lat="49.21717" lon="-1.07898">
        <ele>8.2</ele>
      </trkpt>
      <trkpt lat="49.21725" lon="-1.07898">
        <ele>8</ele>
      </trkpt>
      <trkpt lat="49.21733" lon="-1.07897">
        <ele>7.8</ele>
      </trkpt>
      <trkpt lat="49.2174" lon="-1.07894">
        <ele>7.8</ele>
      </trkpt>
      <trkpt lat="49.21759" lon="-1.07877">
        <ele>7.9</ele>
      </trkpt>
      <trkpt lat="49.21771" lon="-1.07866">
        <ele>8</ele>
      </trkpt>
      <trkpt lat="49.2178" lon="-1.0786">
        <ele>8</ele>
      </trkpt>
      <trkpt lat="49.21794" lon="-1.07854">
        <ele>8</ele>
      </trkpt>
      <trkpt lat="49.21804" lon="-1.07891">
        <ele>7</ele>
      </trkpt>
      <trkpt lat="49.21808" lon="-1.07905">
        <ele>6.6</ele>
      </trkpt>
      <trkpt lat="49.21817" lon="-1.07936">
        <ele>6</ele>
      </trkpt>
      <trkpt lat="49.21821" lon="-1.07949">
        <ele>5.8</ele>
      </trkpt>
      <trkpt lat="49.21866" lon="-1.08099">
        <ele>4</ele>
      </trkpt>
      <trkpt lat="49.21867" lon="-1.08104">
        <ele>4</ele>
      </trkpt>
      <trkpt lat="49.21889" lon="-1.08177">
        <ele>3.9</ele>
      </trkpt>
      <trkpt lat="49.21898" lon="-1.08205">
        <ele>3.5</ele>
      </trkpt>
      <trkpt lat="49.21905" lon="-1.08229">
        <ele>3.3</ele>
      </trkpt>
      <trkpt lat="49.21908" lon="-1.08239">
        <ele>3.1</ele>
      </trkpt>
      <trkpt lat="49.2191" lon="-1.08247">
        <ele>3</ele>
      </trkpt>
      <trkpt lat="49.21936" lon="-1.08323">
        <ele>3.3</ele>
      </trkpt>
      <trkpt lat="49.2195" lon="-1.08362">
        <ele>3.2</ele>
      </trkpt>
      <trkpt lat="49.21963" lon="-1.08399">
        <ele>3.2</ele>
      </trkpt>
      <trkpt lat="49.21987" lon="-1.08468">
        <ele>3.7</ele>
      </trkpt>
      <trkpt lat="49.22028" lon="-1.08582">
        <ele>4</ele>
      </trkpt>
      <trkpt lat="49.22032" lon="-1.08594">
        <ele>4</ele>
      </trkpt>
      <trkpt lat="49.22026" lon="-1.08598">
        <ele>5</ele>
      </trkpt>
      <trkpt lat="49.21982" lon="-1.08632">
        <ele>3.8</ele>
      </trkpt>
      <trkpt lat="49.21968" lon="-1.08643">
        <ele>3.8</ele>
      </trkpt>
      <trkpt lat="49.21955" lon="-1.08664">
        <ele>4</ele>
      </trkpt>
      <trkpt lat="49.21943" lon="-1.08685">
        <ele>3.9</ele>
      </trkpt>
      <trkpt lat="49.21937" lon="-1.08694">
        <ele>3.9</ele>
      </trkpt>
      <trkpt lat="49.21931" lon="-1.08697">
        <ele>3.9</ele>
      </trkpt>
      <trkpt lat="49.21927" lon="-1.08698">
        <ele>4</ele>
      </trkpt>
      <trkpt lat="49.21918" lon="-1.08696">
        <ele>4</ele>
      </trkpt>
      <trkpt lat="49.21907" lon="-1.08689">
        <ele>4.1</ele>
      </trkpt>
      <trkpt lat="49.21892" lon="-1.08677">
        <ele>4.3</ele>
      </trkpt>
      <trkpt lat="49.21883" lon="-1.08669">
        <ele>4.4</ele>
      </trkpt>
      <trkpt lat="49.21873" lon="-1.08657">
        <ele>4.3</ele>
      </trkpt>
      <trkpt lat="49.21866" lon="-1.08643">
        <ele>4.2</ele>
      </trkpt>
      <trkpt lat="49.21863" lon="-1.08628">
        <ele>4</ele>
      </trkpt>
      <trkpt lat="49.2186" lon="-1.08606">
        <ele>3.7</ele>
      </trkpt>
      <trkpt lat="49.2186" lon="-1.08589">
        <ele>3.5</ele>
      </trkpt>
      <trkpt lat="49.21859" lon="-1.08573">
        <ele>3.3</ele>
      </trkpt>
      <trkpt lat="49.21859" lon="-1.08545">
        <ele>3.1</ele>
      </trkpt>
      <trkpt lat="49.21858" lon="-1.08535">
        <ele>3</ele>
      </trkpt>
      <trkpt lat="49.21853" lon="-1.08509">
        <ele>2.8</ele>
      </trkpt>
      <trkpt lat="49.2185" lon="-1.08496">
        <ele>2.8</ele>
      </trkpt>
      <trkpt lat="49.21847" lon="-1.0849">
        <ele>2.7</ele>
      </trkpt>
      <trkpt lat="49.21841" lon="-1.08482">
        <ele>2.7</ele>
      </trkpt>
      <trkpt lat="49.2183" lon="-1.08473">
        <ele>2.7</ele>
      </trkpt>
      <trkpt lat="49.21818" lon="-1.08468">
        <ele>2.6</ele>
      </trkpt>
      <trkpt lat="49.21809" lon="-1.08466">
        <ele>2.6</ele>
      </trkpt>
      <trkpt lat="49.21788" lon="-1.08469">
        <ele>2.6</ele>
      </trkpt>
      <trkpt lat="49.21752" lon="-1.08473">
        <ele>2.7</ele>
      </trkpt>
      <trkpt lat="49.21706" lon="-1.08488">
        <ele>2.3</ele>
      </trkpt>
      <trkpt lat="49.21663" lon="-1.08498">
        <ele>1.9</ele>
      </trkpt>
      <trkpt lat="49.21631" lon="-1.08506">
        <ele>1.6</ele>
      </trkpt>
      <trkpt lat="49.21545" lon="-1.08514">
        <ele>1.8</ele>
      </trkpt>
      <trkpt lat="49.21508" lon="-1.08518">
        <ele>2.6</ele>
      </trkpt>
      <trkpt lat="49.21488" lon="-1.08521">
        <ele>2.6</ele>
      </trkpt>
      <trkpt lat="49.21459" lon="-1.0853">
        <ele>2.3</ele>
      </trkpt>
      <trkpt lat="49.2145" lon="-1.08534">
        <ele>2.2</ele>
      </trkpt>
      <trkpt lat="49.21421" lon="-1.08556">
        <ele>2</ele>
      </trkpt>
      <trkpt lat="49.21356" lon="-1.08609">
        <ele>2.6</ele>
      </trkpt>
      <trkpt lat="49.2134" lon="-1.08624">
        <ele>2.9</ele>
      </trkpt>
      <trkpt lat="49.21282" lon="-1.08686">
        <ele>2.4</ele>
      </trkpt>
      <trkpt lat="49.2127" lon="-1.08695">
        <ele>2.4</ele>
      </trkpt>
      <trkpt lat="49.21258" lon="-1.08702">
        <ele>2.4</ele>
      </trkpt>
      <trkpt lat="49.21243" lon="-1.08708">
        <ele>2.4</ele>
      </trkpt>
      <trkpt lat="49.21236" lon="-1.08708">
        <ele>2.4</ele>
      </trkpt>
      <trkpt lat="49.21144" lon="-1.08687">
        <ele>1.9</ele>
      </trkpt>
      <trkpt lat="49.21136" lon="-1.08685">
        <ele>1.9</ele>
      </trkpt>
      <trkpt lat="49.2112" lon="-1.08687">
        <ele>1.9</ele>
      </trkpt>
      <trkpt lat="49.21102" lon="-1.0869">
        <ele>1.8</ele>
      </trkpt>
      <trkpt lat="49.21089" lon="-1.08691">
        <ele>1.7</ele>
      </trkpt>
      <trkpt lat="49.21082" lon="-1.08692">
        <ele>1.7</ele>
      </trkpt>
      <trkpt lat="49.21053" lon="-1.08706">
        <ele>1.7</ele>
      </trkpt>
      <trkpt lat="49.21037" lon="-1.08719">
        <ele>1.7</ele>
      </trkpt>
      <trkpt lat="49.21009" lon="-1.08746">
        <ele>1.9</ele>
      </trkpt>
      <trkpt lat="49.20998" lon="-1.08757">
        <ele>1.9</ele>
      </trkpt>
      <trkpt lat="49.20987" lon="-1.08773">
        <ele>1.9</ele>
      </trkpt>
      <trkpt lat="49.20978" lon="-1.08789">
        <ele>1.8</ele>
      </trkpt>
      <trkpt lat="49.20937" lon="-1.08866">
        <ele>1.9</ele>
      </trkpt>
      <trkpt lat="49.20924" lon="-1.08886">
        <ele>2</ele>
      </trkpt>
      <trkpt lat="49.20919" lon="-1.08894">
        <ele>2</ele>
      </trkpt>
      <trkpt lat="49.20904" lon="-1.08909">
        <ele>2</ele>
      </trkpt>
      <trkpt lat="49.209" lon="-1.08912">
        <ele>2</ele>
      </trkpt>
      <trkpt lat="49.20896" lon="-1.08912">
        <ele>2</ele>
      </trkpt>
      <trkpt lat="49.20888" lon="-1.08908">
        <ele>2</ele>
      </trkpt>
      <trkpt lat="49.20883" lon="-1.08905">
        <ele>2.1</ele>
      </trkpt>
      <trkpt lat="49.20876" lon="-1.08894">
        <ele>2.1</ele>
      </trkpt>
      <trkpt lat="49.20819" lon="-1.088">
        <ele>3.1</ele>
      </trkpt>
      <trkpt lat="49.20806" lon="-1.0878">
        <ele>3.4</ele>
      </trkpt>
      <trkpt lat="49.20803" lon="-1.08777">
        <ele>3.5</ele>
      </trkpt>
      <trkpt lat="49.20773" lon="-1.08765">
        <ele>4.2</ele>
      </trkpt>
      <trkpt lat="49.20769" lon="-1.08764">
        <ele>4.3</ele>
      </trkpt>
      <trkpt lat="49.20765" lon="-1.08766">
        <ele>4.3</ele>
      </trkpt>
      <trkpt lat="49.20745" lon="-1.08778">
        <ele>4.2</ele>
      </trkpt>
      <trkpt lat="49.20731" lon="-1.08786">
        <ele>3.7</ele>
      </trkpt>
      <trkpt lat="49.20725" lon="-1.0879">
        <ele>3.4</ele>
      </trkpt>
      <trkpt lat="49.20713" lon="-1.08808">
        <ele>2.7</ele>
      </trkpt>
      <trkpt lat="49.20703" lon="-1.08819">
        <ele>2.2</ele>
      </trkpt>
      <trkpt lat="49.20695" lon="-1.08825">
        <ele>1.9</ele>
      </trkpt>
      <trkpt lat="49.20682" lon="-1.08828">
        <ele>1.5</ele>
      </trkpt>
      <trkpt lat="49.20663" lon="-1.08825">
        <ele>1.2</ele>
      </trkpt>
      <trkpt lat="49.20607" lon="-1.08811">
        <ele>1.5</ele>
      </trkpt>
      <trkpt lat="49.20588" lon="-1.08808">
        <ele>1.6</ele>
      </trkpt>
      <trkpt lat="49.20574" lon="-1.08809">
        <ele>1.8</ele>
      </trkpt>
      <trkpt lat="49.20553" lon="-1.08814">
        <ele>2.2</ele>
      </trkpt>
      <trkpt lat="49.20537" lon="-1.08819">
        <ele>2.5</ele>
      </trkpt>
      <trkpt lat="49.2053" lon="-1.08823">
        <ele>2.5</ele>
      </trkpt>
      <trkpt lat="49.20521" lon="-1.08832">
        <ele>2.5</ele>
      </trkpt>
      <trkpt lat="49.20459" lon="-1.08899">
        <ele>2.3</ele>
      </trkpt>
      <trkpt lat="49.20442" lon="-1.08912">
        <ele>2.1</ele>
      </trkpt>
      <trkpt lat="49.20427" lon="-1.08922">
        <ele>2</ele>
      </trkpt>
      <trkpt lat="49.20389" lon="-1.08936">
        <ele>2.5</ele>
      </trkpt>
      <trkpt lat="49.20342" lon="-1.08955">
        <ele>3</ele>
      </trkpt>
      <trkpt lat="49.20314" lon="-1.08967">
        <ele>3.5</ele>
      </trkpt>
      <trkpt lat="49.20303" lon="-1.08973">
        <ele>3.6</ele>
      </trkpt>
      <trkpt lat="49.20298" lon="-1.08978">
        <ele>3.6</ele>
      </trkpt>
      <trkpt lat="49.20281" lon="-1.08992">
        <ele>3.6</ele>
      </trkpt>
      <trkpt lat="49.20264" lon="-1.0901">
        <ele>3.5</ele>
      </trkpt>
      <trkpt lat="49.20252" lon="-1.09024">
        <ele>3.4</ele>
      </trkpt>
      <trkpt lat="49.2024" lon="-1.09042">
        <ele>3.3</ele>
      </trkpt>
      <trkpt lat="49.20226" lon="-1.09065">
        <ele>3.2</ele>
      </trkpt>
      <trkpt lat="49.20214" lon="-1.09085">
        <ele>3.3</ele>
      </trkpt>
      <trkpt lat="49.202" lon="-1.091">
        <ele>3.7</ele>
      </trkpt>
      <trkpt lat="49.20185" lon="-1.09117">
        <ele>3.9</ele>
      </trkpt>
      <trkpt lat="49.20173" lon="-1.09125">
        <ele>3.9</ele>
      </trkpt>
      <trkpt lat="49.20156" lon="-1.09134">
        <ele>3.8</ele>
      </trkpt>
      <trkpt lat="49.20139" lon="-1.09141">
        <ele>3.6</ele>
      </trkpt>
      <trkpt lat="49.20125" lon="-1.09146">
        <ele>3.5</ele>
      </trkpt>
      <trkpt lat="49.20106" lon="-1.09153">
        <ele>3.3</ele>
      </trkpt>
      <trkpt lat="49.20089" lon="-1.09158">
        <ele>3.2</ele>
      </trkpt>
      <trkpt lat="49.20075" lon="-1.09162">
        <ele>3.2</ele>
      </trkpt>
      <trkpt lat="49.20057" lon="-1.09167">
        <ele>3.3</ele>
      </trkpt>
      <trkpt lat="49.20038" lon="-1.09175">
        <ele>3.4</ele>
      </trkpt>
      <trkpt lat="49.20023" lon="-1.09183">
        <ele>3.3</ele>
      </trkpt>
      <trkpt lat="49.19982" lon="-1.09213">
        <ele>2.9</ele>
      </trkpt>
      <trkpt lat="49.19965" lon="-1.09232">
        <ele>2.8</ele>
      </trkpt>
      <trkpt lat="49.19944" lon="-1.09245">
        <ele>3.1</ele>
      </trkpt>
      <trkpt lat="49.19929" lon="-1.09255">
        <ele>3.6</ele>
      </trkpt>
      <trkpt lat="49.19921" lon="-1.09259">
        <ele>3.9</ele>
      </trkpt>
      <trkpt lat="49.19889" lon="-1.09266">
        <ele>5.1</ele>
      </trkpt>
      <trkpt lat="49.19846" lon="-1.09277">
        <ele>6.3</ele>
      </trkpt>
      <trkpt lat="49.19817" lon="-1.09289">
        <ele>6.7</ele>
      </trkpt>
      <trkpt lat="49.19814" lon="-1.09292">
        <ele>6.7</ele>
      </trkpt>
      <trkpt lat="49.19798" lon="-1.09308">
        <ele>6.7</ele>
      </trkpt>
      <trkpt lat="49.19784" lon="-1.09332">
        <ele>6.6</ele>
      </trkpt>
      <trkpt lat="49.19775" lon="-1.0936">
        <ele>6.1</ele>
      </trkpt>
      <trkpt lat="49.19775" lon="-1.09377">
        <ele>5.8</ele>
      </trkpt>
      <trkpt lat="49.19778" lon="-1.09396">
        <ele>5.4</ele>
      </trkpt>
      <trkpt lat="49.19823" lon="-1.09497">
        <ele>6</ele>
      </trkpt>
      <trkpt lat="49.19826" lon="-1.09508">
        <ele>5.8</ele>
      </trkpt>
      <trkpt lat="49.19826" lon="-1.09517">
        <ele>5.6</ele>
      </trkpt>
      <trkpt lat="49.19824" lon="-1.09527">
        <ele>5.4</ele>
      </trkpt>
      <trkpt lat="49.19805" lon="-1.09557">
        <ele>5.1</ele>
      </trkpt>
      <trkpt lat="49.19787" lon="-1.09581">
        <ele>5.1</ele>
      </trkpt>
      <trkpt lat="49.1976" lon="-1.09608">
        <ele>5.2</ele>
      </trkpt>
      <trkpt lat="49.19733" lon="-1.09624">
        <ele>4.8</ele>
      </trkpt>
      <trkpt lat="49.19636" lon="-1.09653">
        <ele>4.4</ele>
      </trkpt>
      <trkpt lat="49.19612" lon="-1.09666">
        <ele>4.7</ele>
      </trkpt>
      <trkpt lat="49.19605" lon="-1.0967">
        <ele>4.7</ele>
      </trkpt>
      <trkpt lat="49.19546" lon="-1.09687">
        <ele>3.9</ele>
      </trkpt>
      <trkpt lat="49.19511" lon="-1.09699">
        <ele>3.1</ele>
      </trkpt>
      <trkpt lat="49.19503" lon="-1.09702">
        <ele>2.9</ele>
      </trkpt>
      <trkpt lat="49.19498" lon="-1.09705">
        <ele>2.9</ele>
      </trkpt>
      <trkpt lat="49.19489" lon="-1.09716">
        <ele>3.1</ele>
      </trkpt>
      <trkpt lat="49.1947" lon="-1.09744">
        <ele>3.2</ele>
      </trkpt>
      <trkpt lat="49.19465" lon="-1.09751">
        <ele>3.2</ele>
      </trkpt>
      <trkpt lat="49.19455" lon="-1.09759">
        <ele>3.6</ele>
      </trkpt>
      <trkpt lat="49.19449" lon="-1.09764">
        <ele>3.9</ele>
      </trkpt>
      <trkpt lat="49.19441" lon="-1.09766">
        <ele>3.9</ele>
      </trkpt>
      <trkpt lat="49.1943" lon="-1.09767">
        <ele>3.7</ele>
      </trkpt>
      <trkpt lat="49.19427" lon="-1.09766">
        <ele>3.5</ele>
      </trkpt>
      <trkpt lat="49.19415" lon="-1.09743">
        <ele>2.2</ele>
      </trkpt>
      <trkpt lat="49.19408" lon="-1.09723">
        <ele>3</ele>
      </trkpt>
      <trkpt lat="49.19398" lon="-1.09699">
        <ele>3.9</ele>
      </trkpt>
      <trkpt lat="49.1939" lon="-1.09683">
        <ele>4.6</ele>
      </trkpt>
      <trkpt lat="49.19366" lon="-1.09655">
        <ele>6.4</ele>
      </trkpt>
      <trkpt lat="49.19347" lon="-1.09644">
        <ele>7.8</ele>
      </trkpt>
      <trkpt lat="49.19335" lon="-1.09639">
        <ele>8.6</ele>
      </trkpt>
      <trkpt lat="49.19325" lon="-1.09639">
        <ele>8.8</ele>
      </trkpt>
      <trkpt lat="49.19222" lon="-1.09685">
        <ele>8.1</ele>
      </trkpt>
      <trkpt lat="49.19102" lon="-1.09754">
        <ele>7.9</ele>
      </trkpt>
      <trkpt lat="49.19012" lon="-1.09815">
        <ele>6.7</ele>
      </trkpt>
      <trkpt lat="49.18965" lon="-1.09843">
        <ele>6</ele>
      </trkpt>
      <trkpt lat="49.18945" lon="-1.09854">
        <ele>5.8</ele>
      </trkpt>
      <trkpt lat="49.18928" lon="-1.09858">
        <ele>5.7</ele>
      </trkpt>
      <trkpt lat="49.18918" lon="-1.09862">
        <ele>5.7</ele>
      </trkpt>
      <trkpt lat="49.18899" lon="-1.09876">
        <ele>5.6</ele>
      </trkpt>
      <trkpt lat="49.18894" lon="-1.09881">
        <ele>5.5</ele>
      </trkpt>
      <trkpt lat="49.18891" lon="-1.09888">
        <ele>5.5</ele>
      </trkpt>
      <trkpt lat="49.18889" lon="-1.09906">
        <ele>5.2</ele>
      </trkpt>
      <trkpt lat="49.18888" lon="-1.09915">
        <ele>5</ele>
      </trkpt>
      <trkpt lat="49.18883" lon="-1.09926">
        <ele>5.2</ele>
      </trkpt>
      <trkpt lat="49.18846" lon="-1.09977">
        <ele>5.3</ele>
      </trkpt>
      <trkpt lat="49.18829" lon="-1.09995">
        <ele>5</ele>
      </trkpt>
      <trkpt lat="49.18819" lon="-1.10002">
        <ele>5.1</ele>
      </trkpt>
      <trkpt lat="49.18812" lon="-1.10004">
        <ele>5.2</ele>
      </trkpt>
      <trkpt lat="49.18789" lon="-1.10005">
        <ele>5.2</ele>
      </trkpt>
      <trkpt lat="49.18752" lon="-1.10009">
        <ele>5.1</ele>
      </trkpt>
      <trkpt lat="49.18729" lon="-1.10013">
        <ele>5.1</ele>
      </trkpt>
      <trkpt lat="49.18712" lon="-1.10018">
        <ele>5.1</ele>
      </trkpt>
      <trkpt lat="49.1869" lon="-1.10026">
        <ele>5.1</ele>
      </trkpt>
      <trkpt lat="49.18653" lon="-1.10044">
        <ele>4.9</ele>
      </trkpt>
      <trkpt lat="49.18631" lon="-1.10055">
        <ele>4.7</ele>
      </trkpt>
      <trkpt lat="49.18604" lon="-1.10073">
        <ele>4.3</ele>
      </trkpt>
      <trkpt lat="49.18584" lon="-1.10089">
        <ele>3.9</ele>
      </trkpt>
      <trkpt lat="49.18556" lon="-1.10115">
        <ele>4.5</ele>
      </trkpt>
      <trkpt lat="49.18542" lon="-1.10129">
        <ele>4.7</ele>
      </trkpt>
      <trkpt lat="49.18531" lon="-1.10143">
        <ele>4.7</ele>
      </trkpt>
      <trkpt lat="49.18515" lon="-1.10165">
        <ele>4.7</ele>
      </trkpt>
      <trkpt lat="49.18488" lon="-1.10205">
        <ele>5.2</ele>
      </trkpt>
      <trkpt lat="49.18482" lon="-1.10215">
        <ele>5.2</ele>
      </trkpt>
      <trkpt lat="49.18466" lon="-1.10248">
        <ele>5</ele>
      </trkpt>
      <trkpt lat="49.18451" lon="-1.10277">
        <ele>5</ele>
      </trkpt>
      <trkpt lat="49.18443" lon="-1.10288">
        <ele>5</ele>
      </trkpt>
      <trkpt lat="49.1844" lon="-1.10295">
        <ele>5</ele>
      </trkpt>
      <trkpt lat="49.18438" lon="-1.10305">
        <ele>5</ele>
      </trkpt>
      <trkpt lat="49.18439" lon="-1.1032">
        <ele>5</ele>
      </trkpt>
      <trkpt lat="49.18438" lon="-1.10328">
        <ele>5</ele>
      </trkpt>
      <trkpt lat="49.18379" lon="-1.10474">
        <ele>4.5</ele>
      </trkpt>
      <trkpt lat="49.18343" lon="-1.10567">
        <ele>3.4</ele>
      </trkpt>
      <trkpt lat="49.18339" lon="-1.10583">
        <ele>3</ele>
      </trkpt>
      <trkpt lat="49.18336" lon="-1.10604">
        <ele>3.2</ele>
      </trkpt>
      <trkpt lat="49.18333" lon="-1.10643">
        <ele>3.7</ele>
      </trkpt>
      <trkpt lat="49.18333" lon="-1.10662">
        <ele>3.9</ele>
      </trkpt>
      <trkpt lat="49.18346" lon="-1.10738">
        <ele>4.3</ele>
      </trkpt>
      <trkpt lat="49.18358" lon="-1.10816">
        <ele>4.8</ele>
      </trkpt>
      <trkpt lat="49.1837" lon="-1.10888">
        <ele>6</ele>
      </trkpt>
      <trkpt lat="49.1837" lon="-1.10894">
        <ele>6</ele>
      </trkpt>
      <trkpt lat="49.18367" lon="-1.10898">
        <ele>6</ele>
      </trkpt>
      <trkpt lat="49.18354" lon="-1.10925">
        <ele>5.8</ele>
      </trkpt>
      <trkpt lat="49.18343" lon="-1.10947">
        <ele>5.6</ele>
      </trkpt>
      <trkpt lat="49.18338" lon="-1.10956">
        <ele>5.6</ele>
      </trkpt>
      <trkpt lat="49.18298" lon="-1.10998">
        <ele>6</ele>
      </trkpt>
      <trkpt lat="49.1829" lon="-1.11002">
        <ele>6</ele>
      </trkpt>
      <trkpt lat="49.18257" lon="-1.1101">
        <ele>5.8</ele>
      </trkpt>
      <trkpt lat="49.18236" lon="-1.11018">
        <ele>5.3</ele>
      </trkpt>
      <trkpt lat="49.18227" lon="-1.11021">
        <ele>5.1</ele>
      </trkpt>
      <trkpt lat="49.1822" lon="-1.1102">
        <ele>5</ele>
      </trkpt>
      <trkpt lat="49.18192" lon="-1.11">
        <ele>4.6</ele>
      </trkpt>
      <trkpt lat="49.18131" lon="-1.10956">
        <ele>5</ele>
      </trkpt>
      <trkpt lat="49.18126" lon="-1.10955">
        <ele>5</ele>
      </trkpt>
      <trkpt lat="49.1812" lon="-1.10955">
        <ele>5</ele>
      </trkpt>
      <trkpt lat="49.18062" lon="-1.10978">
        <ele>4.9</ele>
      </trkpt>
      <trkpt lat="49.18054" lon="-1.10982">
        <ele>4.9</ele>
      </trkpt>
      <trkpt lat="49.1805" lon="-1.10988">
        <ele>4.9</ele>
      </trkpt>
      <trkpt lat="49.18047" lon="-1.11">
        <ele>5</ele>
      </trkpt>
      <trkpt lat="49.18043" lon="-1.11007">
        <ele>5</ele>
      </trkpt>
      <trkpt lat="49.18035" lon="-1.11012">
        <ele>5</ele>
      </trkpt>
      <trkpt lat="49.18029" lon="-1.11015">
        <ele>5</ele>
      </trkpt>
      <trkpt lat="49.18023" lon="-1.11018">
        <ele>5</ele>
      </trkpt>
      <trkpt lat="49.18018" lon="-1.11022">
        <ele>5</ele>
      </trkpt>
      <trkpt lat="49.17991" lon="-1.11053">
        <ele>5.3</ele>
      </trkpt>
      <trkpt lat="49.1797" lon="-1.11076">
        <ele>6.1</ele>
      </trkpt>
      <trkpt lat="49.17961" lon="-1.11087">
        <ele>6.3</ele>
      </trkpt>
      <trkpt lat="49.17953" lon="-1.11104">
        <ele>6.2</ele>
      </trkpt>
      <trkpt lat="49.17946" lon="-1.11119">
        <ele>6.1</ele>
      </trkpt>
      <trkpt lat="49.17941" lon="-1.11134">
        <ele>5.9</ele>
      </trkpt>
      <trkpt lat="49.17936" lon="-1.11162">
        <ele>5.4</ele>
      </trkpt>
      <trkpt lat="49.17935" lon="-1.11179">
        <ele>5.3</ele>
      </trkpt>
      <trkpt lat="49.17935" lon="-1.11193">
        <ele>5.2</ele>
      </trkpt>
      <trkpt lat="49.17937" lon="-1.11207">
        <ele>5</ele>
      </trkpt>
      <trkpt lat="49.17939" lon="-1.11219">
        <ele>4.9</ele>
      </trkpt>
      <trkpt lat="49.17947" lon="-1.11243">
        <ele>4.7</ele>
      </trkpt>
      <trkpt lat="49.1796" lon="-1.11286">
        <ele>4.7</ele>
      </trkpt>
      <trkpt lat="49.17963" lon="-1.11295">
        <ele>4.7</ele>
      </trkpt>
      <trkpt lat="49.17963" lon="-1.11302">
        <ele>4.8</ele>
      </trkpt>
      <trkpt lat="49.17959" lon="-1.11321">
        <ele>4.9</ele>
      </trkpt>
      <trkpt lat="49.17957" lon="-1.1133">
        <ele>5</ele>
      </trkpt>
      <trkpt lat="49.17948" lon="-1.11341">
        <ele>5</ele>
      </trkpt>
      <trkpt lat="49.1794" lon="-1.11347">
        <ele>5</ele>
      </trkpt>
      <trkpt lat="49.17884" lon="-1.11373">
        <ele>5.6</ele>
      </trkpt>
      <trkpt lat="49.17868" lon="-1.11386">
        <ele>6</ele>
      </trkpt>
      <trkpt lat="49.17849" lon="-1.11403">
        <ele>6.5</ele>
      </trkpt>
      <trkpt lat="49.17838" lon="-1.11415">
        <ele>6.9</ele>
      </trkpt>
      <trkpt lat="49.17828" lon="-1.11428">
        <ele>6.8</ele>
      </trkpt>
      <trkpt lat="49.17816" lon="-1.11447">
        <ele>6.6</ele>
      </trkpt>
      <trkpt lat="49.17811" lon="-1.11461">
        <ele>6.5</ele>
      </trkpt>
      <trkpt lat="49.1781" lon="-1.11474">
        <ele>6.4</ele>
      </trkpt>
      <trkpt lat="49.17811" lon="-1.11486">
        <ele>6.2</ele>
      </trkpt>
      <trkpt lat="49.1781" lon="-1.11499">
        <ele>6.1</ele>
      </trkpt>
      <trkpt lat="49.17807" lon="-1.11511">
        <ele>6.3</ele>
      </trkpt>
      <trkpt lat="49.17802" lon="-1.11524">
        <ele>6.6</ele>
      </trkpt>
      <trkpt lat="49.17794" lon="-1.11533">
        <ele>6.9</ele>
      </trkpt>
      <trkpt lat="49.17787" lon="-1.11538">
        <ele>7.2</ele>
      </trkpt>
      <trkpt lat="49.17777" lon="-1.11537">
        <ele>7.5</ele>
      </trkpt>
      <trkpt lat="49.17766" lon="-1.11533">
        <ele>8</ele>
      </trkpt>
      <trkpt lat="49.17758" lon="-1.11529">
        <ele>8.3</ele>
      </trkpt>
      <trkpt lat="49.17712" lon="-1.11501">
        <ele>9</ele>
      </trkpt>
      <trkpt lat="49.17696" lon="-1.11501">
        <ele>9</ele>
      </trkpt>
      <trkpt lat="49.17679" lon="-1.11508">
        <ele>8.7</ele>
      </trkpt>
      <trkpt lat="49.17666" lon="-1.11519">
        <ele>8.1</ele>
      </trkpt>
      <trkpt lat="49.17652" lon="-1.11533">
        <ele>7.3</ele>
      </trkpt>
      <trkpt lat="49.17643" lon="-1.11551">
        <ele>6.7</ele>
      </trkpt>
      <trkpt lat="49.17611" lon="-1.11627">
        <ele>5.5</ele>
      </trkpt>
      <trkpt lat="49.17602" lon="-1.11647">
        <ele>5.2</ele>
      </trkpt>
      <trkpt lat="49.17591" lon="-1.11666">
        <ele>4.9</ele>
      </trkpt>
      <trkpt lat="49.17581" lon="-1.11678">
        <ele>5</ele>
      </trkpt>
      <trkpt lat="49.17574" lon="-1.11685">
        <ele>4.8</ele>
      </trkpt>
      <trkpt lat="49.17553" lon="-1.11693">
        <ele>4.4</ele>
      </trkpt>
      <trkpt lat="49.17538" lon="-1.11697">
        <ele>4.1</ele>
      </trkpt>
      <trkpt lat="49.17507" lon="-1.11698">
        <ele>3.5</ele>
      </trkpt>
      <trkpt lat="49.17476" lon="-1.11702">
        <ele>4.2</ele>
      </trkpt>
      <trkpt lat="49.1746" lon="-1.11705">
        <ele>4.7</ele>
      </trkpt>
      <trkpt lat="49.17438" lon="-1.1171">
        <ele>5.4</ele>
      </trkpt>
      <trkpt lat="49.17417" lon="-1.11718">
        <ele>6</ele>
      </trkpt>
      <trkpt lat="49.1739" lon="-1.11733">
        <ele>6.7</ele>
      </trkpt>
      <trkpt lat="49.17356" lon="-1.11753">
        <ele>7.4</ele>
      </trkpt>
      <trkpt lat="49.1734" lon="-1.11764">
        <ele>7.5</ele>
      </trkpt>
      <trkpt lat="49.17328" lon="-1.11776">
        <ele>7.5</ele>
      </trkpt>
      <trkpt lat="49.17319" lon="-1.1179">
        <ele>7.3</ele>
      </trkpt>
      <trkpt lat="49.17314" lon="-1.11802">
        <ele>7.1</ele>
      </trkpt>
      <trkpt lat="49.17302" lon="-1.11837">
        <ele>6.7</ele>
      </trkpt>
      <trkpt lat="49.1729" lon="-1.11879">
        <ele>6.5</ele>
      </trkpt>
      <trkpt lat="49.17279" lon="-1.11912">
        <ele>6.4</ele>
      </trkpt>
      <trkpt lat="49.17274" lon="-1.11923">
        <ele>6.3</ele>
      </trkpt>
      <trkpt lat="49.17268" lon="-1.11934">
        <ele>6.3</ele>
      </trkpt>
      <trkpt lat="49.17261" lon="-1.11943">
        <ele>6.2</ele>
      </trkpt>
      <trkpt lat="49.17254" lon="-1.11949">
        <ele>6.2</ele>
      </trkpt>
      <trkpt lat="49.17243" lon="-1.11956">
        <ele>6.2</ele>
      </trkpt>
      <trkpt lat="49.17224" lon="-1.11963">
        <ele>6.2</ele>
      </trkpt>
      <trkpt lat="49.17214" lon="-1.11967">
        <ele>6.2</ele>
      </trkpt>
      <trkpt lat="49.17196" lon="-1.11976">
        <ele>6.2</ele>
      </trkpt>
      <trkpt lat="49.17183" lon="-1.11981">
        <ele>6.3</ele>
      </trkpt>
      <trkpt lat="49.17158" lon="-1.11986">
        <ele>6.5</ele>
      </trkpt>
      <trkpt lat="49.17148" lon="-1.1199">
        <ele>6.5</ele>
      </trkpt>
      <trkpt lat="49.17123" lon="-1.1201">
        <ele>6.5</ele>
      </trkpt>
      <trkpt lat="49.17067" lon="-1.12046">
        <ele>8</ele>
      </trkpt>
      <trkpt lat="49.17038" lon="-1.12066">
        <ele>8.7</ele>
      </trkpt>
      <trkpt lat="49.17028" lon="-1.12074">
        <ele>8.8</ele>
      </trkpt>
      <trkpt lat="49.17021" lon="-1.12081">
        <ele>8.8</ele>
      </trkpt>
      <trkpt lat="49.17013" lon="-1.12092">
        <ele>9</ele>
      </trkpt>
      <trkpt lat="49.16975" lon="-1.1217">
        <ele>9.8</ele>
      </trkpt>
      <trkpt lat="49.16963" lon="-1.12189">
        <ele>10.1</ele>
      </trkpt>
      <trkpt lat="49.16947" lon="-1.1221">
        <ele>10.3</ele>
      </trkpt>
      <trkpt lat="49.16938" lon="-1.1222">
        <ele>10.2</ele>
      </trkpt>
      <trkpt lat="49.16924" lon="-1.12232">
        <ele>10</ele>
      </trkpt>
      <trkpt lat="49.16912" lon="-1.12238">
        <ele>9.8</ele>
      </trkpt>
      <trkpt lat="49.16889" lon="-1.12248">
        <ele>9.7</ele>
      </trkpt>
      <trkpt lat="49.16848" lon="-1.12263">
        <ele>9.1</ele>
      </trkpt>
      <trkpt lat="49.16826" lon="-1.12273">
        <ele>8.8</ele>
      </trkpt>
      <trkpt lat="49.16796" lon="-1.12288">
        <ele>8.6</ele>
      </trkpt>
      <trkpt lat="49.16775" lon="-1.12298">
        <ele>8.3</ele>
      </trkpt>
      <trkpt lat="49.16735" lon="-1.12317">
        <ele>8</ele>
      </trkpt>
      <trkpt lat="49.16714" lon="-1.12324">
        <ele>8.2</ele>
      </trkpt>
      <trkpt lat="49.16676" lon="-1.1233">
        <ele>8.9</ele>
      </trkpt>
      <trkpt lat="49.16655" lon="-1.12335">
        <ele>9</ele>
      </trkpt>
      <trkpt lat="49.16639" lon="-1.12341">
        <ele>8.8</ele>
      </trkpt>
      <trkpt lat="49.16617" lon="-1.12357">
        <ele>8.4</ele>
      </trkpt>
      <trkpt lat="49.16573" lon="-1.1239">
        <ele>8.3</ele>
      </trkpt>
      <trkpt lat="49.16533" lon="-1.12429">
        <ele>9</ele>
      </trkpt>
      <trkpt lat="49.16518" lon="-1.12449">
        <ele>8.9</ele>
      </trkpt>
      <trkpt lat="49.16509" lon="-1.12462">
        <ele>8.6</ele>
      </trkpt>
      <trkpt lat="49.16479" lon="-1.12494">
        <ele>8.6</ele>
      </trkpt>
      <trkpt lat="49.16474" lon="-1.1251">
        <ele>8.4</ele>
      </trkpt>
      <trkpt lat="49.1647" lon="-1.12533">
        <ele>8.2</ele>
      </trkpt>
      <trkpt lat="49.16466" lon="-1.1257">
        <ele>7.7</ele>
      </trkpt>
      <trkpt lat="49.16461" lon="-1.12593">
        <ele>7.6</ele>
      </trkpt>
      <trkpt lat="49.16455" lon="-1.12614">
        <ele>7.9</ele>
      </trkpt>
      <trkpt lat="49.16448" lon="-1.12635">
        <ele>8.1</ele>
      </trkpt>
      <trkpt lat="49.16439" lon="-1.12654">
        <ele>8.2</ele>
      </trkpt>
      <trkpt lat="49.16427" lon="-1.12664">
        <ele>8.1</ele>
      </trkpt>
      <trkpt lat="49.16402" lon="-1.12666">
        <ele>8.2</ele>
      </trkpt>
      <trkpt lat="49.16392" lon="-1.1267">
        <ele>8.3</ele>
      </trkpt>
      <trkpt lat="49.16386" lon="-1.12682">
        <ele>8.5</ele>
      </trkpt>
      <trkpt lat="49.16411" lon="-1.12714">
        <ele>9.1</ele>
      </trkpt>
      <trkpt lat="49.16451" lon="-1.12763">
        <ele>11.3</ele>
      </trkpt>
      <trkpt lat="49.1643" lon="-1.12776">
        <ele>11.6</ele>
      </trkpt>
      <trkpt lat="49.16427" lon="-1.12778">
        <ele>11.7</ele>
      </trkpt>
      <trkpt lat="49.16425" lon="-1.12774">
        <ele>11.5</ele>
      </trkpt>
      <trkpt lat="49.1642" lon="-1.12766">
        <ele>11</ele>
      </trkpt>
      <trkpt lat="49.16417" lon="-1.12762">
        <ele>10.7</ele>
      </trkpt>
      <trkpt lat="49.16415" lon="-1.12761">
        <ele>10.6</ele>
      </trkpt>
      <trkpt lat="49.16412" lon="-1.12761">
        <ele>10.6</ele>
      </trkpt>
      <trkpt lat="49.16406" lon="-1.12764">
        <ele>10.5</ele>
      </trkpt>
      <trkpt lat="49.16397" lon="-1.12764">
        <ele>10.2</ele>
      </trkpt>
      <trkpt lat="49.16384" lon="-1.12763">
        <ele>9.8</ele>
      </trkpt>
      <trkpt lat="49.16357" lon="-1.12766">
        <ele>9.1</ele>
      </trkpt>
      <trkpt lat="49.16342" lon="-1.12768">
        <ele>8.7</ele>
      </trkpt>
      <trkpt lat="49.16326" lon="-1.12774">
        <ele>8.5</ele>
      </trkpt>
      <trkpt lat="49.16316" lon="-1.12781">
        <ele>8.4</ele>
      </trkpt>
      <trkpt lat="49.16311" lon="-1.12789">
        <ele>8.4</ele>
      </trkpt>
      <trkpt lat="49.16294" lon="-1.1283">
        <ele>8.1</ele>
      </trkpt>
      <trkpt lat="49.16286" lon="-1.12845">
        <ele>8.6</ele>
      </trkpt>
      <trkpt lat="49.16275" lon="-1.1286">
        <ele>8.9</ele>
      </trkpt>
      <trkpt lat="49.16259" lon="-1.12881">
        <ele>9.1</ele>
      </trkpt>
      <trkpt lat="49.1625" lon="-1.12892">
        <ele>8.8</ele>
      </trkpt>
      <trkpt lat="49.1624" lon="-1.12898">
        <ele>8.8</ele>
      </trkpt>
      <trkpt lat="49.1623" lon="-1.12902">
        <ele>8.6</ele>
      </trkpt>
      <trkpt lat="49.16218" lon="-1.12907">
        <ele>8.2</ele>
      </trkpt>
      <trkpt lat="49.16205" lon="-1.12909">
        <ele>7.7</ele>
      </trkpt>
      <trkpt lat="49.16185" lon="-1.12909">
        <ele>6.9</ele>
      </trkpt>
      <trkpt lat="49.16159" lon="-1.12911">
        <ele>6</ele>
      </trkpt>
      <trkpt lat="49.16133" lon="-1.12909">
        <ele>5.8</ele>
      </trkpt>
      <trkpt lat="49.16105" lon="-1.12913">
        <ele>5.4</ele>
      </trkpt>
      <trkpt lat="49.16081" lon="-1.12917">
        <ele>5</ele>
      </trkpt>
      <trkpt lat="49.16072" lon="-1.12918">
        <ele>5.2</ele>
      </trkpt>
      <trkpt lat="49.16067" lon="-1.12919">
        <ele>5.2</ele>
      </trkpt>
      <trkpt lat="49.16031" lon="-1.1294">
        <ele>5.8</ele>
      </trkpt>
      <trkpt lat="49.15996" lon="-1.12958">
        <ele>6.1</ele>
      </trkpt>
      <trkpt lat="49.15991" lon="-1.12961">
        <ele>6.1</ele>
      </trkpt>
      <trkpt lat="49.15981" lon="-1.12975">
        <ele>6</ele>
      </trkpt>
      <trkpt lat="49.1597" lon="-1.12986">
        <ele>5.9</ele>
      </trkpt>
      <trkpt lat="49.15957" lon="-1.12996">
        <ele>5.6</ele>
      </trkpt>
      <trkpt lat="49.15943" lon="-1.13006">
        <ele>5.5</ele>
      </trkpt>
      <trkpt lat="49.15915" lon="-1.13014">
        <ele>5.3</ele>
      </trkpt>
      <trkpt lat="49.15894" lon="-1.13019">
        <ele>5.3</ele>
      </trkpt>
      <trkpt lat="49.15836" lon="-1.13029">
        <ele>5</ele>
      </trkpt>
      <trkpt lat="49.15798" lon="-1.13036">
        <ele>6.2</ele>
      </trkpt>
      <trkpt lat="49.15783" lon="-1.13038">
        <ele>6.6</ele>
      </trkpt>
      <trkpt lat="49.15765" lon="-1.13045">
        <ele>6.9</ele>
      </trkpt>
      <trkpt lat="49.15752" lon="-1.13052">
        <ele>6.9</ele>
      </trkpt>
      <trkpt lat="49.15743" lon="-1.13057">
        <ele>6.9</ele>
      </trkpt>
      <trkpt lat="49.15738" lon="-1.13063">
        <ele>6.8</ele>
      </trkpt>
      <trkpt lat="49.15734" lon="-1.13069">
        <ele>6.6</ele>
      </trkpt>
      <trkpt lat="49.1573" lon="-1.13078">
        <ele>6.1</ele>
      </trkpt>
      <trkpt lat="49.1572" lon="-1.13107">
        <ele>5.7</ele>
      </trkpt>
      <trkpt lat="49.15709" lon="-1.13141">
        <ele>5.1</ele>
      </trkpt>
      <trkpt lat="49.15699" lon="-1.13172">
        <ele>4.7</ele>
      </trkpt>
      <trkpt lat="49.15692" lon="-1.13192">
        <ele>5.4</ele>
      </trkpt>
      <trkpt lat="49.15673" lon="-1.13231">
        <ele>5.9</ele>
      </trkpt>
      <trkpt lat="49.15664" lon="-1.13246">
        <ele>5.9</ele>
      </trkpt>
      <trkpt lat="49.15648" lon="-1.13261">
        <ele>6.9</ele>
      </trkpt>
      <trkpt lat="49.15614" lon="-1.1329">
        <ele>8.7</ele>
      </trkpt>
      <trkpt lat="49.15579" lon="-1.13316">
        <ele>8.8</ele>
      </trkpt>
      <trkpt lat="49.1556" lon="-1.13331">
        <ele>8.8</ele>
      </trkpt>
      <trkpt lat="49.15539" lon="-1.1335">
        <ele>9.5</ele>
      </trkpt>
      <trkpt lat="49.15496" lon="-1.13402">
        <ele>10.8</ele>
      </trkpt>
      <trkpt lat="49.15438" lon="-1.13478">
        <ele>12</ele>
      </trkpt>
      <trkpt lat="49.15428" lon="-1.1349">
        <ele>11.7</ele>
      </trkpt>
      <trkpt lat="49.15418" lon="-1.135">
        <ele>11.1</ele>
      </trkpt>
      <trkpt lat="49.15406" lon="-1.13507">
        <ele>11.8</ele>
      </trkpt>
      <trkpt lat="49.15388" lon="-1.13516">
        <ele>13</ele>
      </trkpt>
      <trkpt lat="49.15356" lon="-1.1353">
        <ele>15.6</ele>
      </trkpt>
      <trkpt lat="49.15333" lon="-1.13542">
        <ele>18</ele>
      </trkpt>
      <trkpt lat="49.15291" lon="-1.13556">
        <ele>19.2</ele>
      </trkpt>
      <trkpt lat="49.15262" lon="-1.13567">
        <ele>20.1</ele>
      </trkpt>
      <trkpt lat="49.1522" lon="-1.13581">
        <ele>18.5</ele>
      </trkpt>
      <trkpt lat="49.15194" lon="-1.13591">
        <ele>16.7</ele>
      </trkpt>
      <trkpt lat="49.15171" lon="-1.13601">
        <ele>15.3</ele>
      </trkpt>
      <trkpt lat="49.15164" lon="-1.13603">
        <ele>15</ele>
      </trkpt>
      <trkpt lat="49.15158" lon="-1.13604">
        <ele>14.9</ele>
      </trkpt>
      <trkpt lat="49.15152" lon="-1.13605">
        <ele>14.6</ele>
      </trkpt>
      <trkpt lat="49.15142" lon="-1.13602">
        <ele>13.9</ele>
      </trkpt>
      <trkpt lat="49.15117" lon="-1.1359">
        <ele>11.7</ele>
      </trkpt>
      <trkpt lat="49.15102" lon="-1.1358">
        <ele>10.8</ele>
      </trkpt>
      <trkpt lat="49.15096" lon="-1.13577">
        <ele>10.7</ele>
      </trkpt>
      <trkpt lat="49.15092" lon="-1.13576">
        <ele>10.6</ele>
      </trkpt>
      <trkpt lat="49.15081" lon="-1.13578">
        <ele>10.2</ele>
      </trkpt>
      <trkpt lat="49.15068" lon="-1.13577">
        <ele>9.8</ele>
      </trkpt>
      <trkpt lat="49.15062" lon="-1.13576">
        <ele>9.7</ele>
      </trkpt>
      <trkpt lat="49.15057" lon="-1.13578">
        <ele>9.5</ele>
      </trkpt>
      <trkpt lat="49.15051" lon="-1.13582">
        <ele>9</ele>
      </trkpt>
      <trkpt lat="49.15042" lon="-1.1359">
        <ele>8.8</ele>
      </trkpt>
      <trkpt lat="49.15037" lon="-1.13594">
        <ele>8.7</ele>
      </trkpt>
      <trkpt lat="49.15023" lon="-1.13598">
        <ele>8.2</ele>
      </trkpt>
      <trkpt lat="49.15016" lon="-1.13602">
        <ele>8</ele>
      </trkpt>
      <trkpt lat="49.15007" lon="-1.13607">
        <ele>7.7</ele>
      </trkpt>
      <trkpt lat="49.14993" lon="-1.13618">
        <ele>7.6</ele>
      </trkpt>
      <trkpt lat="49.14985" lon="-1.13624">
        <ele>7.9</ele>
      </trkpt>
      <trkpt lat="49.14971" lon="-1.13633">
        <ele>8.3</ele>
      </trkpt>
      <trkpt lat="49.14963" lon="-1.13639">
        <ele>8.4</ele>
      </trkpt>
      <trkpt lat="49.14956" lon="-1.13648">
        <ele>8.4</ele>
      </trkpt>
      <trkpt lat="49.14951" lon="-1.13652">
        <ele>8.3</ele>
      </trkpt>
      <trkpt lat="49.14944" lon="-1.13656">
        <ele>8.3</ele>
      </trkpt>
      <trkpt lat="49.14932" lon="-1.13663">
        <ele>8.1</ele>
      </trkpt>
      <trkpt lat="49.1492" lon="-1.13672">
        <ele>8.1</ele>
      </trkpt>
      <trkpt lat="49.14909" lon="-1.13682">
        <ele>8.8</ele>
      </trkpt>
      <trkpt lat="49.14898" lon="-1.13697">
        <ele>9.5</ele>
      </trkpt>
      <trkpt lat="49.1489" lon="-1.1371">
        <ele>9.6</ele>
      </trkpt>
      <trkpt lat="49.14883" lon="-1.13727">
        <ele>9.4</ele>
      </trkpt>
      <trkpt lat="49.14872" lon="-1.13764">
        <ele>9.1</ele>
      </trkpt>
      <trkpt lat="49.14866" lon="-1.13782">
        <ele>9.7</ele>
      </trkpt>
      <trkpt lat="49.14849" lon="-1.13822">
        <ele>10.1</ele>
      </trkpt>
      <trkpt lat="49.14844" lon="-1.13834">
        <ele>10.1</ele>
      </trkpt>
      <trkpt lat="49.14834" lon="-1.13851">
        <ele>11.8</ele>
      </trkpt>
      <trkpt lat="49.14804" lon="-1.13901">
        <ele>16.6</ele>
      </trkpt>
      <trkpt lat="49.14788" lon="-1.13925">
        <ele>17.5</ele>
      </trkpt>
      <trkpt lat="49.14782" lon="-1.13931">
        <ele>17.3</ele>
      </trkpt>
      <trkpt lat="49.14778" lon="-1.13935">
        <ele>17.2</ele>
      </trkpt>
      <trkpt lat="49.14765" lon="-1.13942">
        <ele>16.4</ele>
      </trkpt>
      <trkpt lat="49.14746" lon="-1.13953">
        <ele>15.2</ele>
      </trkpt>
      <trkpt lat="49.14738" lon="-1.13957">
        <ele>15.2</ele>
      </trkpt>
      <trkpt lat="49.14728" lon="-1.13968">
        <ele>15.3</ele>
      </trkpt>
      <trkpt lat="49.14722" lon="-1.13975">
        <ele>15.3</ele>
      </trkpt>
      <trkpt lat="49.1472" lon="-1.1398">
        <ele>15.3</ele>
      </trkpt>
      <trkpt lat="49.14717" lon="-1.13989">
        <ele>15.5</ele>
      </trkpt>
      <trkpt lat="49.14713" lon="-1.14006">
        <ele>16</ele>
      </trkpt>
      <trkpt lat="49.14707" lon="-1.14022">
        <ele>16.7</ele>
      </trkpt>
      <trkpt lat="49.14701" lon="-1.14046">
        <ele>17.9</ele>
      </trkpt>
      <trkpt lat="49.14697" lon="-1.14059">
        <ele>18.2</ele>
      </trkpt>
      <trkpt lat="49.14689" lon="-1.14073">
        <ele>17.8</ele>
      </trkpt>
      <trkpt lat="49.14679" lon="-1.14088">
        <ele>17.1</ele>
      </trkpt>
      <trkpt lat="49.14668" lon="-1.14101">
        <ele>16.3</ele>
      </trkpt>
      <trkpt lat="49.14649" lon="-1.14116">
        <ele>16.2</ele>
      </trkpt>
      <trkpt lat="49.14594" lon="-1.14154">
        <ele>10.3</ele>
      </trkpt>
      <trkpt lat="49.14572" lon="-1.14171">
        <ele>8.6</ele>
      </trkpt>
      <trkpt lat="49.1456" lon="-1.14184">
        <ele>9.5</ele>
      </trkpt>
      <trkpt lat="49.14513" lon="-1.1423">
        <ele>9.2</ele>
      </trkpt>
      <trkpt lat="49.14496" lon="-1.14246">
        <ele>8.1</ele>
      </trkpt>
      <trkpt lat="49.14485" lon="-1.14259">
        <ele>8.4</ele>
      </trkpt>
      <trkpt lat="49.14477" lon="-1.14271">
        <ele>8.7</ele>
      </trkpt>
      <trkpt lat="49.14468" lon="-1.14284">
        <ele>9</ele>
      </trkpt>
      <trkpt lat="49.14464" lon="-1.14293">
        <ele>9.2</ele>
      </trkpt>
      <trkpt lat="49.14458" lon="-1.14307">
        <ele>9.4</ele>
      </trkpt>
      <trkpt lat="49.14453" lon="-1.14321">
        <ele>9.5</ele>
      </trkpt>
      <trkpt lat="49.14449" lon="-1.1433">
        <ele>9.5</ele>
      </trkpt>
      <trkpt lat="49.14446" lon="-1.14336">
        <ele>9.5</ele>
      </trkpt>
      <trkpt lat="49.14439" lon="-1.14347">
        <ele>9.7</ele>
      </trkpt>
      <trkpt lat="49.14431" lon="-1.14362">
        <ele>9.7</ele>
      </trkpt>
      <trkpt lat="49.14414" lon="-1.14399">
        <ele>8.8</ele>
      </trkpt>
      <trkpt lat="49.14404" lon="-1.14422">
        <ele>9.4</ele>
      </trkpt>
      <trkpt lat="49.14399" lon="-1.14434">
        <ele>9.9</ele>
      </trkpt>
      <trkpt lat="49.14391" lon="-1.14446">
        <ele>10.2</ele>
      </trkpt>
      <trkpt lat="49.14375" lon="-1.1447">
        <ele>10.2</ele>
      </trkpt>
      <trkpt lat="49.1436" lon="-1.14493">
        <ele>9.3</ele>
      </trkpt>
      <trkpt lat="49.14354" lon="-1.14503">
        <ele>8.8</ele>
      </trkpt>
      <trkpt lat="49.14348" lon="-1.14509">
        <ele>8.6</ele>
      </trkpt>
      <trkpt lat="49.14342" lon="-1.14514">
        <ele>8.3</ele>
      </trkpt>
      <trkpt lat="49.14336" lon="-1.14518">
        <ele>7.9</ele>
      </trkpt>
      <trkpt lat="49.14324" lon="-1.14523">
        <ele>8.2</ele>
      </trkpt>
      <trkpt lat="49.14317" lon="-1.14524">
        <ele>8.5</ele>
      </trkpt>
      <trkpt lat="49.14312" lon="-1.14526">
        <ele>8.7</ele>
      </trkpt>
      <trkpt lat="49.14293" lon="-1.14543">
        <ele>9.5</ele>
      </trkpt>
      <trkpt lat="49.14285" lon="-1.14552">
        <ele>9.6</ele>
      </trkpt>
      <trkpt lat="49.14276" lon="-1.14565">
        <ele>9.6</ele>
      </trkpt>
      <trkpt lat="49.14252" lon="-1.14602">
        <ele>9.8</ele>
      </trkpt>
      <trkpt lat="49.14244" lon="-1.14616">
        <ele>10.3</ele>
      </trkpt>
      <trkpt lat="49.14236" lon="-1.14626">
        <ele>10.7</ele>
      </trkpt>
      <trkpt lat="49.14207" lon="-1.14658">
        <ele>11</ele>
      </trkpt>
      <trkpt lat="49.14201" lon="-1.14668">
        <ele>10.9</ele>
      </trkpt>
      <trkpt lat="49.14192" lon="-1.1468">
        <ele>11</ele>
      </trkpt>
      <trkpt lat="49.14185" lon="-1.14696">
        <ele>11.1</ele>
      </trkpt>
      <trkpt lat="49.14179" lon="-1.14714">
        <ele>11</ele>
      </trkpt>
      <trkpt lat="49.14173" lon="-1.1473">
        <ele>10.7</ele>
      </trkpt>
      <trkpt lat="49.14169" lon="-1.14753">
        <ele>10.6</ele>
      </trkpt>
      <trkpt lat="49.14161" lon="-1.1479">
        <ele>14.2</ele>
      </trkpt>
      <trkpt lat="49.14157" lon="-1.14804">
        <ele>15.3</ele>
      </trkpt>
      <trkpt lat="49.14153" lon="-1.14814">
        <ele>15.9</ele>
      </trkpt>
      <trkpt lat="49.14147" lon="-1.14825">
        <ele>16.2</ele>
      </trkpt>
      <trkpt lat="49.14138" lon="-1.1484">
        <ele>16.3</ele>
      </trkpt>
      <trkpt lat="49.14128" lon="-1.14853">
        <ele>16.2</ele>
      </trkpt>
      <trkpt lat="49.14116" lon="-1.14868">
        <ele>15.4</ele>
      </trkpt>
      <trkpt lat="49.14104" lon="-1.14881">
        <ele>14.6</ele>
      </trkpt>
      <trkpt lat="49.14097" lon="-1.14896">
        <ele>14.3</ele>
      </trkpt>
      <trkpt lat="49.14087" lon="-1.14917">
        <ele>14</ele>
      </trkpt>
      <trkpt lat="49.1408" lon="-1.14945">
        <ele>15.4</ele>
      </trkpt>
      <trkpt lat="49.14069" lon="-1.14992">
        <ele>18</ele>
      </trkpt>
      <trkpt lat="49.14062" lon="-1.15013">
        <ele>18.3</ele>
      </trkpt>
      <trkpt lat="49.14053" lon="-1.15037">
        <ele>18.3</ele>
      </trkpt>
      <trkpt lat="49.14046" lon="-1.15058">
        <ele>18.6</ele>
      </trkpt>
      <trkpt lat="49.14041" lon="-1.15076">
        <ele>19</ele>
      </trkpt>
      <trkpt lat="49.14034" lon="-1.15102">
        <ele>20.4</ele>
      </trkpt>
      <trkpt lat="49.1402" lon="-1.15119">
        <ele>19.7</ele>
      </trkpt>
      <trkpt lat="49.13997" lon="-1.15159">
        <ele>19.7</ele>
      </trkpt>
      <trkpt lat="49.13977" lon="-1.15189">
        <ele>19.4</ele>
      </trkpt>
      <trkpt lat="49.13968" lon="-1.15208">
        <ele>19.1</ele>
      </trkpt>
      <trkpt lat="49.13962" lon="-1.15217">
        <ele>18.7</ele>
      </trkpt>
      <trkpt lat="49.13944" lon="-1.15236">
        <ele>16.5</ele>
      </trkpt>
      <trkpt lat="49.13936" lon="-1.15245">
        <ele>15.5</ele>
      </trkpt>
      <trkpt lat="49.13932" lon="-1.15248">
        <ele>14.8</ele>
      </trkpt>
      <trkpt lat="49.13927" lon="-1.15249">
        <ele>14</ele>
      </trkpt>
      <trkpt lat="49.13921" lon="-1.15249">
        <ele>12.7</ele>
      </trkpt>
      <trkpt lat="49.13883" lon="-1.1525">
        <ele>12.8</ele>
      </trkpt>
      <trkpt lat="49.13862" lon="-1.15248">
        <ele>13.2</ele>
      </trkpt>
      <trkpt lat="49.13843" lon="-1.15244">
        <ele>13.4</ele>
      </trkpt>
      <trkpt lat="49.13831" lon="-1.15242">
        <ele>13.7</ele>
      </trkpt>
      <trkpt lat="49.13821" lon="-1.15242">
        <ele>14.5</ele>
      </trkpt>
      <trkpt lat="49.13805" lon="-1.15244">
        <ele>16.2</ele>
      </trkpt>
      <trkpt lat="49.13775" lon="-1.15246">
        <ele>19.1</ele>
      </trkpt>
      <trkpt lat="49.13745" lon="-1.15245">
        <ele>21.7</ele>
      </trkpt>
      <trkpt lat="49.13722" lon="-1.15242">
        <ele>22.6</ele>
      </trkpt>
      <trkpt lat="49.13708" lon="-1.15241">
        <ele>23.3</ele>
      </trkpt>
      <trkpt lat="49.13683" lon="-1.15244">
        <ele>25</ele>
      </trkpt>
      <trkpt lat="49.13665" lon="-1.15245">
        <ele>26.3</ele>
      </trkpt>
      <trkpt lat="49.13647" lon="-1.15245">
        <ele>27.7</ele>
      </trkpt>
      <trkpt lat="49.1363" lon="-1.15244">
        <ele>28.8</ele>
      </trkpt>
      <trkpt lat="49.13611" lon="-1.15241">
        <ele>29.5</ele>
      </trkpt>
      <trkpt lat="49.13599" lon="-1.15239">
        <ele>29.9</ele>
      </trkpt>
      <trkpt lat="49.13581" lon="-1.15234">
        <ele>30</ele>
      </trkpt>
      <trkpt lat="49.13559" lon="-1.15225">
        <ele>30.1</ele>
      </trkpt>
      <trkpt lat="49.1352" lon="-1.15209">
        <ele>29.5</ele>
      </trkpt>
      <trkpt lat="49.13507" lon="-1.15201">
        <ele>28.7</ele>
      </trkpt>
      <trkpt lat="49.13499" lon="-1.15194">
        <ele>27.3</ele>
      </trkpt>
      <trkpt lat="49.13491" lon="-1.15184">
        <ele>25.6</ele>
      </trkpt>
      <trkpt lat="49.13479" lon="-1.15163">
        <ele>21.7</ele>
      </trkpt>
      <trkpt lat="49.13469" lon="-1.15146">
        <ele>20</ele>
      </trkpt>
      <trkpt lat="49.13459" lon="-1.15129">
        <ele>17.3</ele>
      </trkpt>
      <trkpt lat="49.13449" lon="-1.15107">
        <ele>12.9</ele>
      </trkpt>
      <trkpt lat="49.13444" lon="-1.15095">
        <ele>10.4</ele>
      </trkpt>
      <trkpt lat="49.13439" lon="-1.15087">
        <ele>8.5</ele>
      </trkpt>
      <trkpt lat="49.13433" lon="-1.15081">
        <ele>7.5</ele>
      </trkpt>
      <trkpt lat="49.13414" lon="-1.15071">
        <ele>7.7</ele>
      </trkpt>
      <trkpt lat="49.1338" lon="-1.15057">
        <ele>11.3</ele>
      </trkpt>
      <trkpt lat="49.1337" lon="-1.15052">
        <ele>11.9</ele>
      </trkpt>
      <trkpt lat="49.13363" lon="-1.15048">
        <ele>12.1</ele>
      </trkpt>
      <trkpt lat="49.13359" lon="-1.15044">
        <ele>12</ele>
      </trkpt>
      <trkpt lat="49.13339" lon="-1.15017">
        <ele>9.7</ele>
      </trkpt>
      <trkpt lat="49.13333" lon="-1.15008">
        <ele>8.5</ele>
      </trkpt>
      <trkpt lat="49.13329" lon="-1.15001">
        <ele>7.9</ele>
      </trkpt>
      <trkpt lat="49.13326" lon="-1.14989">
        <ele>8.2</ele>
      </trkpt>
      <trkpt lat="49.13323" lon="-1.14974">
        <ele>8.3</ele>
      </trkpt>
      <trkpt lat="49.13322" lon="-1.14963">
        <ele>8.1</ele>
      </trkpt>
      <trkpt lat="49.13322" lon="-1.14951">
        <ele>7.8</ele>
      </trkpt>
      <trkpt lat="49.13322" lon="-1.14929">
        <ele>7.1</ele>
      </trkpt>
      <trkpt lat="49.13323" lon="-1.14902">
        <ele>6.8</ele>
      </trkpt>
      <trkpt lat="49.13324" lon="-1.14884">
        <ele>6.8</ele>
      </trkpt>
      <trkpt lat="49.13325" lon="-1.14873">
        <ele>6.9</ele>
      </trkpt>
      <trkpt lat="49.13326" lon="-1.14859">
        <ele>7</ele>
      </trkpt>
      <trkpt lat="49.13324" lon="-1.14854">
        <ele>7.1</ele>
      </trkpt>
      <trkpt lat="49.1332" lon="-1.14847">
        <ele>7.2</ele>
      </trkpt>
      <trkpt lat="49.13301" lon="-1.14828">
        <ele>7.6</ele>
      </trkpt>
      <trkpt lat="49.13294" lon="-1.1482">
        <ele>7.5</ele>
      </trkpt>
      <trkpt lat="49.13282" lon="-1.14802">
        <ele>7.2</ele>
      </trkpt>
      <trkpt lat="49.13269" lon="-1.14777">
        <ele>6.7</ele>
      </trkpt>
      <trkpt lat="49.13264" lon="-1.14766">
        <ele>6.4</ele>
      </trkpt>
      <trkpt lat="49.13259" lon="-1.14751">
        <ele>5.9</ele>
      </trkpt>
      <trkpt lat="49.13252" lon="-1.14725">
        <ele>5.7</ele>
      </trkpt>
      <trkpt lat="49.13247" lon="-1.14701">
        <ele>5.5</ele>
      </trkpt>
      <trkpt lat="49.13243" lon="-1.14679">
        <ele>5.4</ele>
      </trkpt>
      <trkpt lat="49.13241" lon="-1.1467">
        <ele>5.4</ele>
      </trkpt>
      <trkpt lat="49.13238" lon="-1.14657">
        <ele>5.5</ele>
      </trkpt>
      <trkpt lat="49.13231" lon="-1.1464">
        <ele>5.9</ele>
      </trkpt>
      <trkpt lat="49.13223" lon="-1.14626">
        <ele>6.2</ele>
      </trkpt>
      <trkpt lat="49.13206" lon="-1.14601">
        <ele>6.5</ele>
      </trkpt>
      <trkpt lat="49.13188" lon="-1.14576">
        <ele>6.9</ele>
      </trkpt>
      <trkpt lat="49.13172" lon="-1.14551">
        <ele>7.4</ele>
      </trkpt>
      <trkpt lat="49.13163" lon="-1.14536">
        <ele>7.8</ele>
      </trkpt>
      <trkpt lat="49.13152" lon="-1.14519">
        <ele>8.4</ele>
      </trkpt>
      <trkpt lat="49.13141" lon="-1.14504">
        <ele>8.7</ele>
      </trkpt>
      <trkpt lat="49.13126" lon="-1.14482">
        <ele>8.7</ele>
      </trkpt>
      <trkpt lat="49.13114" lon="-1.14461">
        <ele>8.3</ele>
      </trkpt>
      <trkpt lat="49.13106" lon="-1.14445">
        <ele>7.7</ele>
      </trkpt>
      <trkpt lat="49.13095" lon="-1.14416">
        <ele>6.4</ele>
      </trkpt>
      <trkpt lat="49.13091" lon="-1.14407">
        <ele>6.4</ele>
      </trkpt>
      <trkpt lat="49.13086" lon="-1.14395">
        <ele>6.3</ele>
      </trkpt>
      <trkpt lat="49.13072" lon="-1.1437">
        <ele>8.1</ele>
      </trkpt>
      <trkpt lat="49.13055" lon="-1.14343">
        <ele>9.6</ele>
      </trkpt>
      <trkpt lat="49.13031" lon="-1.1431">
        <ele>10.6</ele>
      </trkpt>
      <trkpt lat="49.13003" lon="-1.14267">
        <ele>9.9</ele>
      </trkpt>
      <trkpt lat="49.12998" lon="-1.14257">
        <ele>10</ele>
      </trkpt>
      <trkpt lat="49.12994" lon="-1.14245">
        <ele>10.6</ele>
      </trkpt>
      <trkpt lat="49.12989" lon="-1.14222">
        <ele>11.1</ele>
      </trkpt>
      <trkpt lat="49.12983" lon="-1.14187">
        <ele>11</ele>
      </trkpt>
      <trkpt lat="49.12981" lon="-1.14162">
        <ele>10.3</ele>
      </trkpt>
      <trkpt lat="49.12982" lon="-1.14141">
        <ele>9.9</ele>
      </trkpt>
      <trkpt lat="49.12985" lon="-1.14122">
        <ele>9.2</ele>
      </trkpt>
      <trkpt lat="49.12989" lon="-1.141">
        <ele>8.6</ele>
      </trkpt>
      <trkpt lat="49.12994" lon="-1.14076">
        <ele>8.5</ele>
      </trkpt>
      <trkpt lat="49.12997" lon="-1.14053">
        <ele>9.2</ele>
      </trkpt>
      <trkpt lat="49.12999" lon="-1.14032">
        <ele>9.8</ele>
      </trkpt>
      <trkpt lat="49.13" lon="-1.14016">
        <ele>10.5</ele>
      </trkpt>
      <trkpt lat="49.13" lon="-1.14002">
        <ele>10.9</ele>
      </trkpt>
      <trkpt lat="49.12999" lon="-1.13991">
        <ele>11.4</ele>
      </trkpt>
      <trkpt lat="49.12997" lon="-1.13982">
        <ele>11.8</ele>
      </trkpt>
      <trkpt lat="49.12994" lon="-1.13972">
        <ele>12.2</ele>
      </trkpt>
      <trkpt lat="49.1299" lon="-1.13961">
        <ele>12.6</ele>
      </trkpt>
      <trkpt lat="49.12985" lon="-1.13941">
        <ele>13.3</ele>
      </trkpt>
      <trkpt lat="49.12981" lon="-1.13929">
        <ele>13.7</ele>
      </trkpt>
      <trkpt lat="49.1297" lon="-1.13907">
        <ele>14</ele>
      </trkpt>
      <trkpt lat="49.1294" lon="-1.13849">
        <ele>12.3</ele>
      </trkpt>
      <trkpt lat="49.12932" lon="-1.13835">
        <ele>11.5</ele>
      </trkpt>
      <trkpt lat="49.12913" lon="-1.13807">
        <ele>9.8</ele>
      </trkpt>
      <trkpt lat="49.12901" lon="-1.13784">
        <ele>11.1</ele>
      </trkpt>
      <trkpt lat="49.12888" lon="-1.13756">
        <ele>12.3</ele>
      </trkpt>
      <trkpt lat="49.12881" lon="-1.13737">
        <ele>13.6</ele>
      </trkpt>
      <trkpt lat="49.12875" lon="-1.13716">
        <ele>15</ele>
      </trkpt>
      <trkpt lat="49.12872" lon="-1.13697">
        <ele>15.9</ele>
      </trkpt>
      <trkpt lat="49.12872" lon="-1.13682">
        <ele>16.5</ele>
      </trkpt>
      <trkpt lat="49.12873" lon="-1.13642">
        <ele>16.4</ele>
      </trkpt>
      <trkpt lat="49.12875" lon="-1.13616">
        <ele>15.6</ele>
      </trkpt>
      <trkpt lat="49.12878" lon="-1.13599">
        <ele>15</ele>
      </trkpt>
      <trkpt lat="49.12886" lon="-1.13564">
        <ele>13.9</ele>
      </trkpt>
      <trkpt lat="49.12896" lon="-1.13517">
        <ele>13.4</ele>
      </trkpt>
      <trkpt lat="49.12899" lon="-1.13502">
        <ele>13.4</ele>
      </trkpt>
      <trkpt lat="49.129" lon="-1.13479">
        <ele>13.4</ele>
      </trkpt>
      <trkpt lat="49.12898" lon="-1.13454">
        <ele>13.4</ele>
      </trkpt>
      <trkpt lat="49.12893" lon="-1.13415">
        <ele>13.6</ele>
      </trkpt>
      <trkpt lat="49.12888" lon="-1.13389">
        <ele>14.1</ele>
      </trkpt>
      <trkpt lat="49.12873" lon="-1.13339">
        <ele>14.9</ele>
      </trkpt>
      <trkpt lat="49.12861" lon="-1.13301">
        <ele>15.1</ele>
      </trkpt>
      <trkpt lat="49.12844" lon="-1.13233">
        <ele>14.7</ele>
      </trkpt>
      <trkpt lat="49.12836" lon="-1.13213">
        <ele>13.8</ele>
      </trkpt>
      <trkpt lat="49.12823" lon="-1.13185">
        <ele>13.3</ele>
      </trkpt>
      <trkpt lat="49.12812" lon="-1.13169">
        <ele>13.2</ele>
      </trkpt>
      <trkpt lat="49.12799" lon="-1.13156">
        <ele>13.4</ele>
      </trkpt>
      <trkpt lat="49.12775" lon="-1.13136">
        <ele>13.3</ele>
      </trkpt>
      <trkpt lat="49.12766" lon="-1.1313">
        <ele>13.2</ele>
      </trkpt>
      <trkpt lat="49.12757" lon="-1.13129">
        <ele>13.2</ele>
      </trkpt>
      <trkpt lat="49.1274" lon="-1.13128">
        <ele>14.1</ele>
      </trkpt>
      <trkpt lat="49.12723" lon="-1.13128">
        <ele>15.5</ele>
      </trkpt>
      <trkpt lat="49.12699" lon="-1.13129">
        <ele>17.8</ele>
      </trkpt>
      <trkpt lat="49.12669" lon="-1.1313">
        <ele>20.7</ele>
      </trkpt>
      <trkpt lat="49.12651" lon="-1.13133">
        <ele>22.7</ele>
      </trkpt>
      <trkpt lat="49.12611" lon="-1.13142">
        <ele>28.7</ele>
      </trkpt>
      <trkpt lat="49.12601" lon="-1.13143">
        <ele>29.9</ele>
      </trkpt>
      <trkpt lat="49.12587" lon="-1.13139">
        <ele>30.2</ele>
      </trkpt>
      <trkpt lat="49.12572" lon="-1.13133">
        <ele>31.2</ele>
      </trkpt>
      <trkpt lat="49.12555" lon="-1.1312">
        <ele>31.4</ele>
      </trkpt>
      <trkpt lat="49.12545" lon="-1.13112">
        <ele>31.1</ele>
      </trkpt>
      <trkpt lat="49.12539" lon="-1.13108">
        <ele>31.2</ele>
      </trkpt>
      <trkpt lat="49.12531" lon="-1.13104">
        <ele>31.7</ele>
      </trkpt>
      <trkpt lat="49.12523" lon="-1.13103">
        <ele>33</ele>
      </trkpt>
      <trkpt lat="49.1251" lon="-1.13102">
        <ele>35.2</ele>
      </trkpt>
      <trkpt lat="49.12505" lon="-1.131">
        <ele>35.8</ele>
      </trkpt>
      <trkpt lat="49.12499" lon="-1.13095">
        <ele>35.6</ele>
      </trkpt>
      <trkpt lat="49.12487" lon="-1.13081">
        <ele>35.2</ele>
      </trkpt>
      <trkpt lat="49.12482" lon="-1.13071">
        <ele>34.1</ele>
      </trkpt>
      <trkpt lat="49.12479" lon="-1.13061">
        <ele>32.6</ele>
      </trkpt>
      <trkpt lat="49.12478" lon="-1.13049">
        <ele>29.9</ele>
      </trkpt>
      <trkpt lat="49.12478" lon="-1.13038">
        <ele>27.3</ele>
      </trkpt>
      <trkpt lat="49.12477" lon="-1.13032">
        <ele>26</ele>
      </trkpt>
      <trkpt lat="49.12474" lon="-1.13025">
        <ele>24.9</ele>
      </trkpt>
      <trkpt lat="49.12472" lon="-1.13017">
        <ele>23.8</ele>
      </trkpt>
      <trkpt lat="49.12453" lon="-1.12976">
        <ele>21</ele>
      </trkpt>
      <trkpt lat="49.12445" lon="-1.12954">
        <ele>19.1</ele>
      </trkpt>
      <trkpt lat="49.1244" lon="-1.12937">
        <ele>17</ele>
      </trkpt>
      <trkpt lat="49.12422" lon="-1.12868">
        <ele>10.8</ele>
      </trkpt>
      <trkpt lat="49.12414" lon="-1.1284">
        <ele>9</ele>
      </trkpt>
      <trkpt lat="49.12408" lon="-1.12819">
        <ele>9.6</ele>
      </trkpt>
      <trkpt lat="49.12392" lon="-1.12785">
        <ele>11.1</ele>
      </trkpt>
      <trkpt lat="49.1238" lon="-1.12757">
        <ele>10.8</ele>
      </trkpt>
      <trkpt lat="49.12377" lon="-1.1275">
        <ele>10.5</ele>
      </trkpt>
      <trkpt lat="49.12371" lon="-1.12741">
        <ele>10.5</ele>
      </trkpt>
      <trkpt lat="49.12366" lon="-1.12733">
        <ele>10.5</ele>
      </trkpt>
      <trkpt lat="49.12362" lon="-1.1273">
        <ele>10.4</ele>
      </trkpt>
      <trkpt lat="49.12358" lon="-1.12728">
        <ele>10.3</ele>
      </trkpt>
      <trkpt lat="49.12346" lon="-1.12725">
        <ele>10</ele>
      </trkpt>
      <trkpt lat="49.1234" lon="-1.12724">
        <ele>9.9</ele>
      </trkpt>
      <trkpt lat="49.12331" lon="-1.12721">
        <ele>9.8</ele>
      </trkpt>
      <trkpt lat="49.12323" lon="-1.12719">
        <ele>10.4</ele>
      </trkpt>
      <trkpt lat="49.12304" lon="-1.12718">
        <ele>11.6</ele>
      </trkpt>
      <trkpt lat="49.12292" lon="-1.12717">
        <ele>12.4</ele>
      </trkpt>
      <trkpt lat="49.12282" lon="-1.12715">
        <ele>12.9</ele>
      </trkpt>
      <trkpt lat="49.12275" lon="-1.12711">
        <ele>13.2</ele>
      </trkpt>
      <trkpt lat="49.12265" lon="-1.12703">
        <ele>13.2</ele>
      </trkpt>
      <trkpt lat="49.12258" lon="-1.12693">
        <ele>12.9</ele>
      </trkpt>
      <trkpt lat="49.1225" lon="-1.12679">
        <ele>12</ele>
      </trkpt>
      <trkpt lat="49.12247" lon="-1.12665">
        <ele>11.5</ele>
      </trkpt>
      <trkpt lat="49.12246" lon="-1.12645">
        <ele>10.7</ele>
      </trkpt>
      <trkpt lat="49.12246" lon="-1.1263">
        <ele>9.9</ele>
      </trkpt>
      <trkpt lat="49.12247" lon="-1.12617">
        <ele>9</ele>
      </trkpt>
      <trkpt lat="49.1225" lon="-1.12606">
        <ele>8.1</ele>
      </trkpt>
      <trkpt lat="49.12262" lon="-1.12577">
        <ele>7.5</ele>
      </trkpt>
      <trkpt lat="49.12264" lon="-1.12568">
        <ele>7.6</ele>
      </trkpt>
      <trkpt lat="49.12271" lon="-1.12527">
        <ele>8.3</ele>
      </trkpt>
      <trkpt lat="49.12273" lon="-1.12509">
        <ele>8.6</ele>
      </trkpt>
      <trkpt lat="49.12275" lon="-1.12471">
        <ele>9.2</ele>
      </trkpt>
      <trkpt lat="49.12276" lon="-1.12455">
        <ele>9.5</ele>
      </trkpt>
      <trkpt lat="49.12275" lon="-1.12442">
        <ele>9.7</ele>
      </trkpt>
      <trkpt lat="49.12275" lon="-1.1243">
        <ele>9.9</ele>
      </trkpt>
      <trkpt lat="49.12274" lon="-1.12424">
        <ele>9.9</ele>
      </trkpt>
      <trkpt lat="49.12273" lon="-1.12414">
        <ele>10</ele>
      </trkpt>
      <trkpt lat="49.12265" lon="-1.12373">
        <ele>10.1</ele>
      </trkpt>
      <trkpt lat="49.1226" lon="-1.12338">
        <ele>10.1</ele>
      </trkpt>
      <trkpt lat="49.12255" lon="-1.12314">
        <ele>10.3</ele>
      </trkpt>
      <trkpt lat="49.12252" lon="-1.12297">
        <ele>10.6</ele>
      </trkpt>
      <trkpt lat="49.1225" lon="-1.1227">
        <ele>11.3</ele>
      </trkpt>
      <trkpt lat="49.12248" lon="-1.12259">
        <ele>11.7</ele>
      </trkpt>
      <trkpt lat="49.12242" lon="-1.1224">
        <ele>12.1</ele>
      </trkpt>
      <trkpt lat="49.12235" lon="-1.12207">
        <ele>12.2</ele>
      </trkpt>
      <trkpt lat="49.12232" lon="-1.12194">
        <ele>12.2</ele>
      </trkpt>
      <trkpt lat="49.12231" lon="-1.1218">
        <ele>12.2</ele>
      </trkpt>
      <trkpt lat="49.1223" lon="-1.12173">
        <ele>12.2</ele>
      </trkpt>
      <trkpt lat="49.12228" lon="-1.12166">
        <ele>12.3</ele>
      </trkpt>
      <trkpt lat="49.12224" lon="-1.12159">
        <ele>12.4</ele>
      </trkpt>
      <trkpt lat="49.12203" lon="-1.12138">
        <ele>13</ele>
      </trkpt>
      <trkpt lat="49.12192" lon="-1.12126">
        <ele>13.4</ele>
      </trkpt>
      <trkpt lat="49.12183" lon="-1.12117">
        <ele>13.8</ele>
      </trkpt>
      <trkpt lat="49.1217" lon="-1.12098">
        <ele>14.5</ele>
      </trkpt>
      <trkpt lat="49.1216" lon="-1.12084">
        <ele>16.5</ele>
      </trkpt>
      <trkpt lat="49.12153" lon="-1.12063">
        <ele>18.2</ele>
      </trkpt>
      <trkpt lat="49.12147" lon="-1.12041">
        <ele>19.5</ele>
      </trkpt>
      <trkpt lat="49.12141" lon="-1.12">
        <ele>21.1</ele>
      </trkpt>
      <trkpt lat="49.12139" lon="-1.11979">
        <ele>19.7</ele>
      </trkpt>
      <trkpt lat="49.12136" lon="-1.11968">
        <ele>19.6</ele>
      </trkpt>
      <trkpt lat="49.12128" lon="-1.11957">
        <ele>20.5</ele>
      </trkpt>
      <trkpt lat="49.12109" lon="-1.11926">
        <ele>22</ele>
      </trkpt>
      <trkpt lat="49.12096" lon="-1.11896">
        <ele>23</ele>
      </trkpt>
      <trkpt lat="49.12085" lon="-1.11844">
        <ele>22.4</ele>
      </trkpt>
      <trkpt lat="49.12078" lon="-1.11808">
        <ele>21.6</ele>
      </trkpt>
      <trkpt lat="49.12079" lon="-1.11785">
        <ele>20.1</ele>
      </trkpt>
      <trkpt lat="49.12084" lon="-1.1177">
        <ele>18.1</ele>
      </trkpt>
      <trkpt lat="49.12094" lon="-1.11751">
        <ele>15.6</ele>
      </trkpt>
      <trkpt lat="49.12104" lon="-1.11738">
        <ele>14.4</ele>
      </trkpt>
      <trkpt lat="49.12118" lon="-1.11724">
        <ele>12.8</ele>
      </trkpt>
      <trkpt lat="49.12142" lon="-1.11703">
        <ele>9.8</ele>
      </trkpt>
      <trkpt lat="49.12161" lon="-1.1169">
        <ele>7.5</ele>
      </trkpt>
      <trkpt lat="49.12174" lon="-1.1168">
        <ele>7.2</ele>
      </trkpt>
      <trkpt lat="49.1219" lon="-1.11665">
        <ele>8.2</ele>
      </trkpt>
      <trkpt lat="49.122" lon="-1.11655">
        <ele>8.7</ele>
      </trkpt>
      <trkpt lat="49.12208" lon="-1.11642">
        <ele>9.1</ele>
      </trkpt>
      <trkpt lat="49.12213" lon="-1.11631">
        <ele>9.4</ele>
      </trkpt>
      <trkpt lat="49.12217" lon="-1.11617">
        <ele>9.5</ele>
      </trkpt>
      <trkpt lat="49.1222" lon="-1.11599">
        <ele>9.6</ele>
      </trkpt>
      <trkpt lat="49.12222" lon="-1.11577">
        <ele>9.7</ele>
      </trkpt>
      <trkpt lat="49.12222" lon="-1.11562">
        <ele>9.8</ele>
      </trkpt>
      <trkpt lat="49.12219" lon="-1.11549">
        <ele>9.8</ele>
      </trkpt>
      <trkpt lat="49.12211" lon="-1.11528">
        <ele>10.1</ele>
      </trkpt>
      <trkpt lat="49.12193" lon="-1.11493">
        <ele>11</ele>
      </trkpt>
      <trkpt lat="49.12185" lon="-1.11475">
        <ele>11</ele>
      </trkpt>
      <trkpt lat="49.12181" lon="-1.11459">
        <ele>11</ele>
      </trkpt>
      <trkpt lat="49.12179" lon="-1.11436">
        <ele>10.8</ele>
      </trkpt>
      <trkpt lat="49.12177" lon="-1.11411">
        <ele>10.9</ele>
      </trkpt>
      <trkpt lat="49.12177" lon="-1.11391">
        <ele>11.9</ele>
      </trkpt>
      <trkpt lat="49.1218" lon="-1.11371">
        <ele>12.8</ele>
      </trkpt>
      <trkpt lat="49.12185" lon="-1.11357">
        <ele>12.9</ele>
      </trkpt>
      <trkpt lat="49.12194" lon="-1.11344">
        <ele>12.6</ele>
      </trkpt>
      <trkpt lat="49.12204" lon="-1.11337">
        <ele>11.9</ele>
      </trkpt>
      <trkpt lat="49.12228" lon="-1.11325">
        <ele>9.6</ele>
      </trkpt>
      <trkpt lat="49.12243" lon="-1.11315">
        <ele>8</ele>
      </trkpt>
      <trkpt lat="49.12255" lon="-1.11306">
        <ele>7.5</ele>
      </trkpt>
      <trkpt lat="49.12274" lon="-1.11288">
        <ele>8.1</ele>
      </trkpt>
      <trkpt lat="49.12302" lon="-1.11261">
        <ele>8.7</ele>
      </trkpt>
      <trkpt lat="49.12312" lon="-1.11247">
        <ele>8.8</ele>
      </trkpt>
      <trkpt lat="49.12317" lon="-1.11238">
        <ele>8.8</ele>
      </trkpt>
      <trkpt lat="49.12322" lon="-1.11224">
        <ele>8.8</ele>
      </trkpt>
      <trkpt lat="49.12327" lon="-1.11203">
        <ele>8.6</ele>
      </trkpt>
      <trkpt lat="49.12331" lon="-1.11166">
        <ele>8.1</ele>
      </trkpt>
      <trkpt lat="49.12335" lon="-1.11133">
        <ele>8.9</ele>
      </trkpt>
      <trkpt lat="49.12336" lon="-1.11124">
        <ele>9.1</ele>
      </trkpt>
      <trkpt lat="49.12334" lon="-1.11111">
        <ele>9.3</ele>
      </trkpt>
      <trkpt lat="49.12334" lon="-1.111">
        <ele>9.6</ele>
      </trkpt>
      <trkpt lat="49.12335" lon="-1.11091">
        <ele>9.9</ele>
      </trkpt>
      <trkpt lat="49.1234" lon="-1.1107">
        <ele>11</ele>
      </trkpt>
      <trkpt lat="49.12342" lon="-1.11065">
        <ele>11.2</ele>
      </trkpt>
      <trkpt lat="49.12346" lon="-1.11054">
        <ele>11.8</ele>
      </trkpt>
      <trkpt lat="49.12351" lon="-1.11046">
        <ele>12.2</ele>
      </trkpt>
      <trkpt lat="49.12356" lon="-1.11035">
        <ele>12.6</ele>
      </trkpt>
      <trkpt lat="49.12368" lon="-1.11019">
        <ele>12.9</ele>
      </trkpt>
      <trkpt lat="49.12375" lon="-1.11011">
        <ele>12.8</ele>
      </trkpt>
      <trkpt lat="49.1238" lon="-1.11005">
        <ele>12.7</ele>
      </trkpt>
      <trkpt lat="49.12385" lon="-1.11002">
        <ele>12.5</ele>
      </trkpt>
      <trkpt lat="49.12394" lon="-1.10996">
        <ele>12.2</ele>
      </trkpt>
      <trkpt lat="49.12403" lon="-1.10993">
        <ele>11.8</ele>
      </trkpt>
      <trkpt lat="49.12414" lon="-1.1099">
        <ele>11.3</ele>
      </trkpt>
      <trkpt lat="49.12419" lon="-1.10988">
        <ele>11.5</ele>
      </trkpt>
      <trkpt lat="49.12424" lon="-1.10985">
        <ele>12.5</ele>
      </trkpt>
      <trkpt lat="49.12435" lon="-1.10975">
        <ele>14.5</ele>
      </trkpt>
      <trkpt lat="49.12445" lon="-1.10964">
        <ele>16</ele>
      </trkpt>
      <trkpt lat="49.12453" lon="-1.10954">
        <ele>16.8</ele>
      </trkpt>
      <trkpt lat="49.12463" lon="-1.10938">
        <ele>17.2</ele>
      </trkpt>
      <trkpt lat="49.12475" lon="-1.10915">
        <ele>16.9</ele>
      </trkpt>
      <trkpt lat="49.12489" lon="-1.10878">
        <ele>16.9</ele>
      </trkpt>
      <trkpt lat="49.12502" lon="-1.1084">
        <ele>16.9</ele>
      </trkpt>
      <trkpt lat="49.12512" lon="-1.10814">
        <ele>19.6</ele>
      </trkpt>
      <trkpt lat="49.12519" lon="-1.10794">
        <ele>20.9</ele>
      </trkpt>
      <trkpt lat="49.12523" lon="-1.10772">
        <ele>21</ele>
      </trkpt>
      <trkpt lat="49.12526" lon="-1.10746">
        <ele>20.7</ele>
      </trkpt>
      <trkpt lat="49.12529" lon="-1.10727">
        <ele>20.3</ele>
      </trkpt>
      <trkpt lat="49.12529" lon="-1.10712">
        <ele>19.6</ele>
      </trkpt>
      <trkpt lat="49.12528" lon="-1.10701">
        <ele>18.9</ele>
      </trkpt>
      <trkpt lat="49.12526" lon="-1.10683">
        <ele>17.5</ele>
      </trkpt>
      <trkpt lat="49.1252" lon="-1.10654">
        <ele>15.2</ele>
      </trkpt>
      <trkpt lat="49.12509" lon="-1.10605">
        <ele>12</ele>
      </trkpt>
      <trkpt lat="49.12503" lon="-1.10569">
        <ele>11</ele>
      </trkpt>
      <trkpt lat="49.12501" lon="-1.10542">
        <ele>11.2</ele>
      </trkpt>
      <trkpt lat="49.125" lon="-1.10518">
        <ele>11.6</ele>
      </trkpt>
      <trkpt lat="49.125" lon="-1.10456">
        <ele>13.1</ele>
      </trkpt>
      <trkpt lat="49.125" lon="-1.10404">
        <ele>14</ele>
      </trkpt>
      <trkpt lat="49.12499" lon="-1.10374">
        <ele>14</ele>
      </trkpt>
      <trkpt lat="49.12498" lon="-1.10329">
        <ele>14.1</ele>
      </trkpt>
      <trkpt lat="49.12497" lon="-1.10309">
        <ele>14.6</ele>
      </trkpt>
      <trkpt lat="49.12495" lon="-1.10281">
        <ele>15.2</ele>
      </trkpt>
      <trkpt lat="49.1249" lon="-1.10257">
        <ele>15.7</ele>
      </trkpt>
      <trkpt lat="49.12484" lon="-1.10228">
        <ele>15.5</ele>
      </trkpt>
      <trkpt lat="49.12479" lon="-1.10212">
        <ele>15.3</ele>
      </trkpt>
      <trkpt lat="49.12473" lon="-1.10197">
        <ele>15</ele>
      </trkpt>
      <trkpt lat="49.12464" lon="-1.10179">
        <ele>14.7</ele>
      </trkpt>
      <trkpt lat="49.12453" lon="-1.10161">
        <ele>14.5</ele>
      </trkpt>
      <trkpt lat="49.12441" lon="-1.10142">
        <ele>14.2</ele>
      </trkpt>
      <trkpt lat="49.12425" lon="-1.10123">
        <ele>13</ele>
      </trkpt>
      <trkpt lat="49.12386" lon="-1.10076">
        <ele>11.8</ele>
      </trkpt>
      <trkpt lat="49.12249" lon="-1.09915">
        <ele>14.9</ele>
      </trkpt>
      <trkpt lat="49.12224" lon="-1.09887">
        <ele>14.1</ele>
      </trkpt>
      <trkpt lat="49.12196" lon="-1.09853">
        <ele>13.3</ele>
      </trkpt>
      <trkpt lat="49.12163" lon="-1.09816">
        <ele>13.9</ele>
      </trkpt>
      <trkpt lat="49.12154" lon="-1.09809">
        <ele>14.2</ele>
      </trkpt>
      <trkpt lat="49.12148" lon="-1.09805">
        <ele>14.4</ele>
      </trkpt>
      <trkpt lat="49.1214" lon="-1.09804">
        <ele>14.4</ele>
      </trkpt>
      <trkpt lat="49.12132" lon="-1.09802">
        <ele>14.4</ele>
      </trkpt>
      <trkpt lat="49.12083" lon="-1.09808">
        <ele>14.3</ele>
      </trkpt>
      <trkpt lat="49.12028" lon="-1.09813">
        <ele>13.4</ele>
      </trkpt>
      <trkpt lat="49.12013" lon="-1.09816">
        <ele>13.2</ele>
      </trkpt>
      <trkpt lat="49.12007" lon="-1.09817">
        <ele>13.1</ele>
      </trkpt>
      <trkpt lat="49.12002" lon="-1.09819">
        <ele>13</ele>
      </trkpt>
      <trkpt lat="49.12" lon="-1.09821">
        <ele>13</ele>
      </trkpt>
      <trkpt lat="49.11999" lon="-1.09819">
        <ele>13</ele>
      </trkpt>
      <trkpt lat="49.11997" lon="-1.09817">
        <ele>13</ele>
      </trkpt>
      <trkpt lat="49.11993" lon="-1.09816">
        <ele>12.9</ele>
      </trkpt>
      <trkpt lat="49.11989" lon="-1.09815">
        <ele>12.9</ele>
      </trkpt>
      <trkpt lat="49.11966" lon="-1.09815">
        <ele>12.7</ele>
      </trkpt>
      <trkpt lat="49.11953" lon="-1.09816">
        <ele>12.6</ele>
      </trkpt>
      <trkpt lat="49.11946" lon="-1.09817">
        <ele>12.6</ele>
      </trkpt>
      <trkpt lat="49.11941" lon="-1.09819">
        <ele>12.6</ele>
      </trkpt>
      <trkpt lat="49.11936" lon="-1.09822">
        <ele>12.7</ele>
      </trkpt>
      <trkpt lat="49.11929" lon="-1.09825">
        <ele>12.7</ele>
      </trkpt>
      <trkpt lat="49.11922" lon="-1.09826">
        <ele>12.8</ele>
      </trkpt>
      <trkpt lat="49.11915" lon="-1.09826">
        <ele>12.7</ele>
      </trkpt>
      <trkpt lat="49.1191" lon="-1.09825">
        <ele>12.8</ele>
      </trkpt>
      <trkpt lat="49.11903" lon="-1.09823">
        <ele>12.8</ele>
      </trkpt>
      <trkpt lat="49.11896" lon="-1.09819">
        <ele>12.8</ele>
      </trkpt>
      <trkpt lat="49.11891" lon="-1.09817">
        <ele>12.8</ele>
      </trkpt>
      <trkpt lat="49.11885" lon="-1.09817">
        <ele>12.9</ele>
      </trkpt>
      <trkpt lat="49.11868" lon="-1.09818">
        <ele>13.3</ele>
      </trkpt>
      <trkpt lat="49.11826" lon="-1.09823">
        <ele>13.7</ele>
      </trkpt>
      <trkpt lat="49.11787" lon="-1.09829">
        <ele>12.9</ele>
      </trkpt>
      <trkpt lat="49.11773" lon="-1.09831">
        <ele>12.6</ele>
      </trkpt>
      <trkpt lat="49.11764" lon="-1.09835">
        <ele>12.4</ele>
      </trkpt>
      <trkpt lat="49.1176" lon="-1.09838">
        <ele>12.3</ele>
      </trkpt>
      <trkpt lat="49.11757" lon="-1.09842">
        <ele>12.3</ele>
      </trkpt>
      <trkpt lat="49.11756" lon="-1.09846">
        <ele>12.3</ele>
      </trkpt>
      <trkpt lat="49.11753" lon="-1.09852">
        <ele>12.3</ele>
      </trkpt>
      <trkpt lat="49.1175" lon="-1.09856">
        <ele>12.3</ele>
      </trkpt>
      <trkpt lat="49.1174" lon="-1.09864">
        <ele>12.4</ele>
      </trkpt>
      <trkpt lat="49.11727" lon="-1.09876">
        <ele>12.5</ele>
      </trkpt>
      <trkpt lat="49.11722" lon="-1.0988">
        <ele>12.6</ele>
      </trkpt>
      <trkpt lat="49.11705" lon="-1.0989">
        <ele>12.7</ele>
      </trkpt>
      <trkpt lat="49.11699" lon="-1.09893">
        <ele>12.7</ele>
      </trkpt>
      <trkpt lat="49.11641" lon="-1.09927">
        <ele>13.2</ele>
      </trkpt>
      <trkpt lat="49.11637" lon="-1.09929">
        <ele>13.3</ele>
      </trkpt>
      <trkpt lat="49.11606" lon="-1.09946">
        <ele>14.1</ele>
      </trkpt>
      <trkpt lat="49.11583" lon="-1.09959">
        <ele>15</ele>
      </trkpt>
      <trkpt lat="49.11571" lon="-1.09968">
        <ele>15.1</ele>
      </trkpt>
      <trkpt lat="49.11556" lon="-1.09979">
        <ele>15.1</ele>
      </trkpt>
      <trkpt lat="49.11545" lon="-1.0999">
        <ele>15</ele>
      </trkpt>
      <trkpt lat="49.11537" lon="-1.10002">
        <ele>14.8</ele>
      </trkpt>
      <trkpt lat="49.11528" lon="-1.10014">
        <ele>14.4</ele>
      </trkpt>
      <trkpt lat="49.11523" lon="-1.10024">
        <ele>14.2</ele>
      </trkpt>
      <trkpt lat="49.11518" lon="-1.10044">
        <ele>14</ele>
      </trkpt>
      <trkpt lat="49.11501" lon="-1.10104">
        <ele>12.8</ele>
      </trkpt>
      <trkpt lat="49.11494" lon="-1.10143">
        <ele>12.4</ele>
      </trkpt>
      <trkpt lat="49.11479" lon="-1.1021">
        <ele>13.3</ele>
      </trkpt>
      <trkpt lat="49.11466" lon="-1.10253">
        <ele>14</ele>
      </trkpt>
      <trkpt lat="49.11452" lon="-1.10292">
        <ele>15.7</ele>
      </trkpt>
      <trkpt lat="49.11448" lon="-1.10306">
        <ele>16.1</ele>
      </trkpt>
      <trkpt lat="49.11439" lon="-1.10333">
        <ele>16.9</ele>
      </trkpt>
      <trkpt lat="49.11427" lon="-1.10365">
        <ele>18.1</ele>
      </trkpt>
      <trkpt lat="49.11408" lon="-1.10408">
        <ele>18.8</ele>
      </trkpt>
      <trkpt lat="49.11396" lon="-1.10434">
        <ele>19.1</ele>
      </trkpt>
      <trkpt lat="49.11385" lon="-1.10456">
        <ele>19</ele>
      </trkpt>
      <trkpt lat="49.11372" lon="-1.10483">
        <ele>18.6</ele>
      </trkpt>
      <trkpt lat="49.11358" lon="-1.10511">
        <ele>18.2</ele>
      </trkpt>
      <trkpt lat="49.1135" lon="-1.10527">
        <ele>18.1</ele>
      </trkpt>
      <trkpt lat="49.11343" lon="-1.10542">
        <ele>17.8</ele>
      </trkpt>
      <trkpt lat="49.11336" lon="-1.10561">
        <ele>17.5</ele>
      </trkpt>
      <trkpt lat="49.11329" lon="-1.10583">
        <ele>17.6</ele>
      </trkpt>
      <trkpt lat="49.11324" lon="-1.10602">
        <ele>18.1</ele>
      </trkpt>
      <trkpt lat="49.11319" lon="-1.10619">
        <ele>18.4</ele>
      </trkpt>
      <trkpt lat="49.11317" lon="-1.1063">
        <ele>18.7</ele>
      </trkpt>
      <trkpt lat="49.11315" lon="-1.10682">
        <ele>20.5</ele>
      </trkpt>
      <trkpt lat="49.11309" lon="-1.10738">
        <ele>22.4</ele>
      </trkpt>
      <trkpt lat="49.11305" lon="-1.10774">
        <ele>23</ele>
      </trkpt>
      <trkpt lat="49.11303" lon="-1.10797">
        <ele>23.2</ele>
      </trkpt>
      <trkpt lat="49.11301" lon="-1.10811">
        <ele>23.2</ele>
      </trkpt>
      <trkpt lat="49.11299" lon="-1.10824">
        <ele>23.1</ele>
      </trkpt>
      <trkpt lat="49.11296" lon="-1.10838">
        <ele>22.9</ele>
      </trkpt>
      <trkpt lat="49.11292" lon="-1.10849">
        <ele>22.6</ele>
      </trkpt>
      <trkpt lat="49.11286" lon="-1.10861">
        <ele>21.8</ele>
      </trkpt>
      <trkpt lat="49.11272" lon="-1.10883">
        <ele>19.4</ele>
      </trkpt>
      <trkpt lat="49.11257" lon="-1.10903">
        <ele>16.5</ele>
      </trkpt>
      <trkpt lat="49.11235" lon="-1.10939">
        <ele>13.8</ele>
      </trkpt>
      <trkpt lat="49.1123" lon="-1.10948">
        <ele>13.4</ele>
      </trkpt>
      <trkpt lat="49.11227" lon="-1.10957">
        <ele>13.1</ele>
      </trkpt>
      <trkpt lat="49.11218" lon="-1.11008">
        <ele>12</ele>
      </trkpt>
      <trkpt lat="49.11216" lon="-1.11023">
        <ele>12.1</ele>
      </trkpt>
      <trkpt lat="49.11216" lon="-1.11033">
        <ele>12.2</ele>
      </trkpt>
      <trkpt lat="49.11217" lon="-1.11044">
        <ele>12.4</ele>
      </trkpt>
      <trkpt lat="49.1122" lon="-1.11056">
        <ele>12.8</ele>
      </trkpt>
      <trkpt lat="49.11228" lon="-1.11077">
        <ele>13.6</ele>
      </trkpt>
      <trkpt lat="49.11236" lon="-1.11101">
        <ele>14.9</ele>
      </trkpt>
      <trkpt lat="49.11244" lon="-1.11128">
        <ele>16.6</ele>
      </trkpt>
      <trkpt lat="49.11249" lon="-1.11152">
        <ele>18.1</ele>
      </trkpt>
      <trkpt lat="49.11249" lon="-1.11174">
        <ele>19.1</ele>
      </trkpt>
      <trkpt lat="49.11249" lon="-1.11198">
        <ele>19.7</ele>
      </trkpt>
      <trkpt lat="49.11249" lon="-1.11251">
        <ele>20.9</ele>
      </trkpt>
      <trkpt lat="49.11248" lon="-1.11298">
        <ele>20.2</ele>
      </trkpt>
      <trkpt lat="49.11247" lon="-1.11319">
        <ele>19.8</ele>
      </trkpt>
      <trkpt lat="49.11245" lon="-1.11339">
        <ele>19.6</ele>
      </trkpt>
      <trkpt lat="49.11239" lon="-1.11373">
        <ele>20.4</ele>
      </trkpt>
      <trkpt lat="49.11235" lon="-1.11396">
        <ele>21</ele>
      </trkpt>
      <trkpt lat="49.11234" lon="-1.11414">
        <ele>21.6</ele>
      </trkpt>
      <trkpt lat="49.11233" lon="-1.11432">
        <ele>21.4</ele>
      </trkpt>
      <trkpt lat="49.11233" lon="-1.11446">
        <ele>21.4</ele>
      </trkpt>
      <trkpt lat="49.11234" lon="-1.1146">
        <ele>21.5</ele>
      </trkpt>
      <trkpt lat="49.11236" lon="-1.11483">
        <ele>21.8</ele>
      </trkpt>
      <trkpt lat="49.11237" lon="-1.11498">
        <ele>21.9</ele>
      </trkpt>
      <trkpt lat="49.11236" lon="-1.11518">
        <ele>22.3</ele>
      </trkpt>
      <trkpt lat="49.11233" lon="-1.11554">
        <ele>22.9</ele>
      </trkpt>
      <trkpt lat="49.11229" lon="-1.1158">
        <ele>23.2</ele>
      </trkpt>
      <trkpt lat="49.11224" lon="-1.11609">
        <ele>24</ele>
      </trkpt>
      <trkpt lat="49.11204" lon="-1.11682">
        <ele>23.8</ele>
      </trkpt>
      <trkpt lat="49.11195" lon="-1.11714">
        <ele>23.1</ele>
      </trkpt>
      <trkpt lat="49.11191" lon="-1.11727">
        <ele>22.4</ele>
      </trkpt>
      <trkpt lat="49.11184" lon="-1.1174">
        <ele>21</ele>
      </trkpt>
      <trkpt lat="49.11175" lon="-1.11752">
        <ele>18.8</ele>
      </trkpt>
      <trkpt lat="49.11163" lon="-1.11764">
        <ele>16.3</ele>
      </trkpt>
      <trkpt lat="49.11116" lon="-1.118">
        <ele>13.6</ele>
      </trkpt>
      <trkpt lat="49.11101" lon="-1.11812">
        <ele>12.5</ele>
      </trkpt>
      <trkpt lat="49.11094" lon="-1.11823">
        <ele>12</ele>
      </trkpt>
      <trkpt lat="49.1109" lon="-1.11834">
        <ele>11.7</ele>
      </trkpt>
      <trkpt lat="49.11088" lon="-1.11848">
        <ele>11.3</ele>
      </trkpt>
      <trkpt lat="49.11086" lon="-1.11865">
        <ele>11</ele>
      </trkpt>
      <trkpt lat="49.11087" lon="-1.11883">
        <ele>11</ele>
      </trkpt>
      <trkpt lat="49.1109" lon="-1.11912">
        <ele>11.1</ele>
      </trkpt>
      <trkpt lat="49.1109" lon="-1.11938">
        <ele>12</ele>
      </trkpt>
      <trkpt lat="49.11087" lon="-1.11979">
        <ele>13</ele>
      </trkpt>
      <trkpt lat="49.11079" lon="-1.12023">
        <ele>14.1</ele>
      </trkpt>
      <trkpt lat="49.11062" lon="-1.12077">
        <ele>16.1</ele>
      </trkpt>
      <trkpt lat="49.11052" lon="-1.12102">
        <ele>17.4</ele>
      </trkpt>
      <trkpt lat="49.11037" lon="-1.1213">
        <ele>18.1</ele>
      </trkpt>
      <trkpt lat="49.11009" lon="-1.1218">
        <ele>16.6</ele>
      </trkpt>
      <trkpt lat="49.10981" lon="-1.12209">
        <ele>16.9</ele>
      </trkpt>
      <trkpt lat="49.10952" lon="-1.12226">
        <ele>16.8</ele>
      </trkpt>
      <trkpt lat="49.10926" lon="-1.12242">
        <ele>16.2</ele>
      </trkpt>
      <trkpt lat="49.109" lon="-1.12258">
        <ele>16.4</ele>
      </trkpt>
      <trkpt lat="49.10889" lon="-1.12269">
        <ele>16.7</ele>
      </trkpt>
      <trkpt lat="49.1088" lon="-1.12278">
        <ele>16.8</ele>
      </trkpt>
      <trkpt lat="49.10869" lon="-1.12295">
        <ele>16.8</ele>
      </trkpt>
      <trkpt lat="49.10855" lon="-1.12322">
        <ele>16.1</ele>
      </trkpt>
      <trkpt lat="49.10833" lon="-1.12365">
        <ele>15.9</ele>
      </trkpt>
      <trkpt lat="49.10819" lon="-1.12387">
        <ele>16.7</ele>
      </trkpt>
      <trkpt lat="49.10805" lon="-1.12402">
        <ele>17</ele>
      </trkpt>
      <trkpt lat="49.10793" lon="-1.12414">
        <ele>16.9</ele>
      </trkpt>
      <trkpt lat="49.10778" lon="-1.12422">
        <ele>16.7</ele>
      </trkpt>
      <trkpt lat="49.10759" lon="-1.12428">
        <ele>15.9</ele>
      </trkpt>
      <trkpt lat="49.10724" lon="-1.12434">
        <ele>16.2</ele>
      </trkpt>
      <trkpt lat="49.10663" lon="-1.12447">
        <ele>16.7</ele>
      </trkpt>
      <trkpt lat="49.10601" lon="-1.12461">
        <ele>13.8</ele>
      </trkpt>
      <trkpt lat="49.10573" lon="-1.1247">
        <ele>13.2</ele>
      </trkpt>
      <trkpt lat="49.10561" lon="-1.12475">
        <ele>13.3</ele>
      </trkpt>
      <trkpt lat="49.1055" lon="-1.12484">
        <ele>13.4</ele>
      </trkpt>
      <trkpt lat="49.10534" lon="-1.125">
        <ele>13.4</ele>
      </trkpt>
      <trkpt lat="49.10504" lon="-1.1253">
        <ele>13.5</ele>
      </trkpt>
      <trkpt lat="49.10441" lon="-1.12601">
        <ele>15.3</ele>
      </trkpt>
      <trkpt lat="49.10427" lon="-1.12614">
        <ele>16.5</ele>
      </trkpt>
      <trkpt lat="49.10413" lon="-1.12622">
        <ele>17.2</ele>
      </trkpt>
      <trkpt lat="49.10388" lon="-1.1263">
        <ele>18</ele>
      </trkpt>
      <trkpt lat="49.10358" lon="-1.12636">
        <ele>18.5</ele>
      </trkpt>
      <trkpt lat="49.10342" lon="-1.12637">
        <ele>18.5</ele>
      </trkpt>
      <trkpt lat="49.10326" lon="-1.12635">
        <ele>18.5</ele>
      </trkpt>
      <trkpt lat="49.10311" lon="-1.12631">
        <ele>18.5</ele>
      </trkpt>
      <trkpt lat="49.10301" lon="-1.12626">
        <ele>18.1</ele>
      </trkpt>
      <trkpt lat="49.1029" lon="-1.12619">
        <ele>17.7</ele>
      </trkpt>
      <trkpt lat="49.10283" lon="-1.12613">
        <ele>17.2</ele>
      </trkpt>
      <trkpt lat="49.10274" lon="-1.12604">
        <ele>16.3</ele>
      </trkpt>
      <trkpt lat="49.10258" lon="-1.12586">
        <ele>14.3</ele>
      </trkpt>
      <trkpt lat="49.10238" lon="-1.12563">
        <ele>13.6</ele>
      </trkpt>
      <trkpt lat="49.10225" lon="-1.12546">
        <ele>13.1</ele>
      </trkpt>
      <trkpt lat="49.10218" lon="-1.12537">
        <ele>12.8</ele>
      </trkpt>
      <trkpt lat="49.10209" lon="-1.12527">
        <ele>12.5</ele>
      </trkpt>
      <trkpt lat="49.10199" lon="-1.12518">
        <ele>12.1</ele>
      </trkpt>
      <trkpt lat="49.10191" lon="-1.12513">
        <ele>11.8</ele>
      </trkpt>
      <trkpt lat="49.10163" lon="-1.12502">
        <ele>11.1</ele>
      </trkpt>
      <trkpt lat="49.10148" lon="-1.12497">
        <ele>11.4</ele>
      </trkpt>
      <trkpt lat="49.10131" lon="-1.12493">
        <ele>11.8</ele>
      </trkpt>
      <trkpt lat="49.10091" lon="-1.12489">
        <ele>12.5</ele>
      </trkpt>
      <trkpt lat="49.1008" lon="-1.12489">
        <ele>12.7</ele>
      </trkpt>
      <trkpt lat="49.10074" lon="-1.1249">
        <ele>12.9</ele>
      </trkpt>
      <trkpt lat="49.10059" lon="-1.12496">
        <ele>13.3</ele>
      </trkpt>
      <trkpt lat="49.10043" lon="-1.12503">
        <ele>13.9</ele>
      </trkpt>
      <trkpt lat="49.10034" lon="-1.12509">
        <ele>14.4</ele>
      </trkpt>
      <trkpt lat="49.10004" lon="-1.12527">
        <ele>15.2</ele>
      </trkpt>
      <trkpt lat="49.09993" lon="-1.12533">
        <ele>15.1</ele>
      </trkpt>
      <trkpt lat="49.09967" lon="-1.12541">
        <ele>14.4</ele>
      </trkpt>
      <trkpt lat="49.09945" lon="-1.12545">
        <ele>14</ele>
      </trkpt>
      <trkpt lat="49.09932" lon="-1.12544">
        <ele>13.8</ele>
      </trkpt>
      <trkpt lat="49.09855" lon="-1.12525">
        <ele>12.6</ele>
      </trkpt>
      <trkpt lat="49.09803" lon="-1.1252">
        <ele>12.2</ele>
      </trkpt>
      <trkpt lat="49.09786" lon="-1.12519">
        <ele>12.2</ele>
      </trkpt>
      <trkpt lat="49.09759" lon="-1.12521">
        <ele>12.2</ele>
      </trkpt>
      <trkpt lat="49.09738" lon="-1.12522">
        <ele>12.6</ele>
      </trkpt>
      <trkpt lat="49.09695" lon="-1.12518">
        <ele>14.1</ele>
      </trkpt>
      <trkpt lat="49.09676" lon="-1.12512">
        <ele>14.7</ele>
      </trkpt>
      <trkpt lat="49.09642" lon="-1.12497">
        <ele>14.7</ele>
      </trkpt>
      <trkpt lat="49.09626" lon="-1.12484">
        <ele>14.5</ele>
      </trkpt>
      <trkpt lat="49.09604" lon="-1.12465">
        <ele>14.5</ele>
      </trkpt>
      <trkpt lat="49.0958" lon="-1.12433">
        <ele>14.8</ele>
      </trkpt>
      <trkpt lat="49.09566" lon="-1.12406">
        <ele>15.2</ele>
      </trkpt>
      <trkpt lat="49.09556" lon="-1.12384">
        <ele>15.4</ele>
      </trkpt>
      <trkpt lat="49.09546" lon="-1.12362">
        <ele>15.4</ele>
      </trkpt>
      <trkpt lat="49.0954" lon="-1.12345">
        <ele>15.4</ele>
      </trkpt>
      <trkpt lat="49.0953" lon="-1.12318">
        <ele>15.9</ele>
      </trkpt>
      <trkpt lat="49.09525" lon="-1.12307">
        <ele>16.1</ele>
      </trkpt>
      <trkpt lat="49.09518" lon="-1.12295">
        <ele>16.2</ele>
      </trkpt>
      <trkpt lat="49.09509" lon="-1.12283">
        <ele>15.9</ele>
      </trkpt>
      <trkpt lat="49.095" lon="-1.12274">
        <ele>15.4</ele>
      </trkpt>
      <trkpt lat="49.09492" lon="-1.12266">
        <ele>15.4</ele>
      </trkpt>
      <trkpt lat="49.09485" lon="-1.12261">
        <ele>15.2</ele>
      </trkpt>
      <trkpt lat="49.09477" lon="-1.12255">
        <ele>15.1</ele>
      </trkpt>
      <trkpt lat="49.09382" lon="-1.12216">
        <ele>13.5</ele>
      </trkpt>
      <trkpt lat="49.09304" lon="-1.12185">
        <ele>13.4</ele>
      </trkpt>
      <trkpt lat="49.09291" lon="-1.12178">
        <ele>13.3</ele>
      </trkpt>
      <trkpt lat="49.09281" lon="-1.12172">
        <ele>13.1</ele>
      </trkpt>
      <trkpt lat="49.09273" lon="-1.12166">
        <ele>13</ele>
      </trkpt>
      <trkpt lat="49.09263" lon="-1.12155">
        <ele>12.9</ele>
      </trkpt>
      <trkpt lat="49.09256" lon="-1.12147">
        <ele>12.8</ele>
      </trkpt>
      <trkpt lat="49.09248" lon="-1.12137">
        <ele>12.7</ele>
      </trkpt>
      <trkpt lat="49.09243" lon="-1.12127">
        <ele>12.7</ele>
      </trkpt>
      <trkpt lat="49.09236" lon="-1.12107">
        <ele>12.6</ele>
      </trkpt>
      <trkpt lat="49.09232" lon="-1.12094">
        <ele>12.6</ele>
      </trkpt>
      <trkpt lat="49.09229" lon="-1.12078">
        <ele>12.5</ele>
      </trkpt>
      <trkpt lat="49.09228" lon="-1.1206">
        <ele>12.7</ele>
      </trkpt>
      <trkpt lat="49.09226" lon="-1.12049">
        <ele>12.8</ele>
      </trkpt>
      <trkpt lat="49.0922" lon="-1.12031">
        <ele>12.9</ele>
      </trkpt>
      <trkpt lat="49.09195" lon="-1.11957">
        <ele>13</ele>
      </trkpt>
      <trkpt lat="49.09149" lon="-1.11818">
        <ele>14.5</ele>
      </trkpt>
      <trkpt lat="49.09144" lon="-1.11809">
        <ele>14.6</ele>
      </trkpt>
      <trkpt lat="49.09142" lon="-1.11806">
        <ele>14.6</ele>
      </trkpt>
      <trkpt lat="49.09139" lon="-1.11806">
        <ele>14.7</ele>
      </trkpt>
      <trkpt lat="49.09134" lon="-1.11807">
        <ele>14.7</ele>
      </trkpt>
      <trkpt lat="49.0913" lon="-1.11809">
        <ele>14.8</ele>
      </trkpt>
      <trkpt lat="49.09126" lon="-1.11807">
        <ele>14.8</ele>
      </trkpt>
      <trkpt lat="49.09121" lon="-1.11802">
        <ele>14.9</ele>
      </trkpt>
      <trkpt lat="49.09119" lon="-1.11798">
        <ele>14.8</ele>
      </trkpt>
      <trkpt lat="49.09116" lon="-1.11793">
        <ele>14.8</ele>
      </trkpt>
      <trkpt lat="49.09116" lon="-1.11788">
        <ele>14.8</ele>
      </trkpt>
      <trkpt lat="49.09116" lon="-1.11783">
        <ele>14.7</ele>
      </trkpt>
      <trkpt lat="49.09117" lon="-1.1178">
        <ele>14.7</ele>
      </trkpt>
      <trkpt lat="49.09138" lon="-1.11761">
        <ele>14.7</ele>
      </trkpt>
      <trkpt lat="49.0914" lon="-1.11755">
        <ele>14.7</ele>
      </trkpt>
      <trkpt lat="49.09141" lon="-1.11748">
        <ele>14.7</ele>
      </trkpt>
      <trkpt lat="49.0914" lon="-1.1174">
        <ele>14.9</ele>
      </trkpt>
      <trkpt lat="49.09097" lon="-1.11595">
        <ele>15.4</ele>
      </trkpt>
      <trkpt lat="49.09097" lon="-1.11582">
        <ele>15.5</ele>
      </trkpt>
      <trkpt lat="49.09096" lon="-1.11569">
        <ele>15.5</ele>
      </trkpt>
      <trkpt lat="49.09092" lon="-1.11553">
        <ele>15.4</ele>
      </trkpt>
      <trkpt lat="49.09085" lon="-1.11534">
        <ele>15.1</ele>
      </trkpt>
      <trkpt lat="49.09079" lon="-1.11507">
        <ele>14.9</ele>
      </trkpt>
      <trkpt lat="49.09075" lon="-1.11489">
        <ele>15</ele>
      </trkpt>
      <trkpt lat="49.0907" lon="-1.11449">
        <ele>15.3</ele>
      </trkpt>
      <trkpt lat="49.09062" lon="-1.11371">
        <ele>15.2</ele>
      </trkpt>
      <trkpt lat="49.09062" lon="-1.11358">
        <ele>15.1</ele>
      </trkpt>
      <trkpt lat="49.09064" lon="-1.11348">
        <ele>15.1</ele>
      </trkpt>
      <trkpt lat="49.09063" lon="-1.11339">
        <ele>15</ele>
      </trkpt>
      <trkpt lat="49.09063" lon="-1.1133">
        <ele>15</ele>
      </trkpt>
      <trkpt lat="49.0906" lon="-1.11305">
        <ele>15.2</ele>
      </trkpt>
      <trkpt lat="49.09057" lon="-1.11261">
        <ele>15.6</ele>
      </trkpt>
      <trkpt lat="49.09055" lon="-1.1123">
        <ele>15.8</ele>
      </trkpt>
      <trkpt lat="49.09054" lon="-1.11215">
        <ele>15.9</ele>
      </trkpt>
      <trkpt lat="49.09054" lon="-1.11201">
        <ele>16</ele>
      </trkpt>
      <trkpt lat="49.09054" lon="-1.11187">
        <ele>16.1</ele>
      </trkpt>
      <trkpt lat="49.09054" lon="-1.11167">
        <ele>16.2</ele>
      </trkpt>
      <trkpt lat="49.09054" lon="-1.11159">
        <ele>16.3</ele>
      </trkpt>
      <trkpt lat="49.09053" lon="-1.11151">
        <ele>16.4</ele>
      </trkpt>
      <trkpt lat="49.09052" lon="-1.11138">
        <ele>16.6</ele>
      </trkpt>
      <trkpt lat="49.09046" lon="-1.11066">
        <ele>16.9</ele>
      </trkpt>
      <trkpt lat="49.09043" lon="-1.11042">
        <ele>16.9</ele>
      </trkpt>
      <trkpt lat="49.09039" lon="-1.11018">
        <ele>16.7</ele>
      </trkpt>
      <trkpt lat="49.09036" lon="-1.11002">
        <ele>16.6</ele>
      </trkpt>
      <trkpt lat="49.09034" lon="-1.10981">
        <ele>16.5</ele>
      </trkpt>
      <trkpt lat="49.0903" lon="-1.10951">
        <ele>16.4</ele>
      </trkpt>
      <trkpt lat="49.09023" lon="-1.10891">
        <ele>15.8</ele>
      </trkpt>
      <trkpt lat="49.09021" lon="-1.10868">
        <ele>15.5</ele>
      </trkpt>
      <trkpt lat="49.09019" lon="-1.10841">
        <ele>15.2</ele>
      </trkpt>
      <trkpt lat="49.0902" lon="-1.10822">
        <ele>15.3</ele>
      </trkpt>
      <trkpt lat="49.09021" lon="-1.10799">
        <ele>15.6</ele>
      </trkpt>
      <trkpt lat="49.09023" lon="-1.10774">
        <ele>15.9</ele>
      </trkpt>
      <trkpt lat="49.09025" lon="-1.10753">
        <ele>16.2</ele>
      </trkpt>
      <trkpt lat="49.09025" lon="-1.10735">
        <ele>16.2</ele>
      </trkpt>
      <trkpt lat="49.09021" lon="-1.1071">
        <ele>16.1</ele>
      </trkpt>
      <trkpt lat="49.09016" lon="-1.10691">
        <ele>16.1</ele>
      </trkpt>
      <trkpt lat="49.09008" lon="-1.10671">
        <ele>16.1</ele>
      </trkpt>
      <trkpt lat="49.08997" lon="-1.10654">
        <ele>15.7</ele>
      </trkpt>
      <trkpt lat="49.0898" lon="-1.10636">
        <ele>15.2</ele>
      </trkpt>
      <trkpt lat="49.08961" lon="-1.10624">
        <ele>15</ele>
      </trkpt>
      <trkpt lat="49.08911" lon="-1.10615">
        <ele>15</ele>
      </trkpt>
      <trkpt lat="49.0885" lon="-1.10605">
        <ele>14.8</ele>
      </trkpt>
      <trkpt lat="49.08841" lon="-1.10601">
        <ele>14.8</ele>
      </trkpt>
      <trkpt lat="49.08835" lon="-1.10597">
        <ele>14.8</ele>
      </trkpt>
      <trkpt lat="49.08824" lon="-1.10586">
        <ele>15.1</ele>
      </trkpt>
      <trkpt lat="49.08817" lon="-1.10576">
        <ele>15.2</ele>
      </trkpt>
      <trkpt lat="49.08807" lon="-1.10558">
        <ele>15.3</ele>
      </trkpt>
      <trkpt lat="49.088" lon="-1.10542">
        <ele>15.4</ele>
      </trkpt>
      <trkpt lat="49.08793" lon="-1.10525">
        <ele>15.5</ele>
      </trkpt>
      <trkpt lat="49.08787" lon="-1.10504">
        <ele>15.6</ele>
      </trkpt>
      <trkpt lat="49.08782" lon="-1.10485">
        <ele>15.7</ele>
      </trkpt>
      <trkpt lat="49.08776" lon="-1.10459">
        <ele>15.9</ele>
      </trkpt>
      <trkpt lat="49.08771" lon="-1.1043">
        <ele>16.2</ele>
      </trkpt>
      <trkpt lat="49.08767" lon="-1.10402">
        <ele>15.9</ele>
      </trkpt>
      <trkpt lat="49.0876" lon="-1.10339">
        <ele>14.1</ele>
      </trkpt>
      <trkpt lat="49.08756" lon="-1.10304">
        <ele>14</ele>
      </trkpt>
      <trkpt lat="49.08754" lon="-1.1028">
        <ele>14</ele>
      </trkpt>
      <trkpt lat="49.08753" lon="-1.10252">
        <ele>14</ele>
      </trkpt>
      <trkpt lat="49.08752" lon="-1.1023">
        <ele>14.3</ele>
      </trkpt>
      <trkpt lat="49.08751" lon="-1.10208">
        <ele>14.5</ele>
      </trkpt>
      <trkpt lat="49.08749" lon="-1.1019">
        <ele>14.8</ele>
      </trkpt>
      <trkpt lat="49.08747" lon="-1.10176">
        <ele>15</ele>
      </trkpt>
      <trkpt lat="49.08723" lon="-1.10041">
        <ele>16.5</ele>
      </trkpt>
      <trkpt lat="49.08722" lon="-1.10024">
        <ele>16.7</ele>
      </trkpt>
      <trkpt lat="49.08722" lon="-1.10016">
        <ele>16.8</ele>
      </trkpt>
      <trkpt lat="49.08723" lon="-1.09986">
        <ele>16.8</ele>
      </trkpt>
      <trkpt lat="49.08723" lon="-1.09953">
        <ele>16.4</ele>
      </trkpt>
      <trkpt lat="49.08723" lon="-1.09872">
        <ele>15.8</ele>
      </trkpt>
      <trkpt lat="49.08721" lon="-1.09793">
        <ele>15.8</ele>
      </trkpt>
      <trkpt lat="49.08719" lon="-1.097">
        <ele>16.4</ele>
      </trkpt>
      <trkpt lat="49.08712" lon="-1.09509">
        <ele>15.5</ele>
      </trkpt>
      <trkpt lat="49.08709" lon="-1.09433">
        <ele>15.9</ele>
      </trkpt>
      <trkpt lat="49.08707" lon="-1.09411">
        <ele>16.1</ele>
      </trkpt>
      <trkpt lat="49.08705" lon="-1.09394">
        <ele>16.4</ele>
      </trkpt>
      <trkpt lat="49.087" lon="-1.09371">
        <ele>16.8</ele>
      </trkpt>
      <trkpt lat="49.08692" lon="-1.09347">
        <ele>17.1</ele>
      </trkpt>
      <trkpt lat="49.08671" lon="-1.09307">
        <ele>17.7</ele>
      </trkpt>
      <trkpt lat="49.08658" lon="-1.0929">
        <ele>17.9</ele>
      </trkpt>
      <trkpt lat="49.08639" lon="-1.09275">
        <ele>18</ele>
      </trkpt>
      <trkpt lat="49.08594" lon="-1.0925">
        <ele>18.1</ele>
      </trkpt>
      <trkpt lat="49.08575" lon="-1.09244">
        <ele>18</ele>
      </trkpt>
      <trkpt lat="49.08546" lon="-1.09236">
        <ele>18.3</ele>
      </trkpt>
      <trkpt lat="49.08531" lon="-1.0923">
        <ele>18.4</ele>
      </trkpt>
      <trkpt lat="49.08525" lon="-1.0922">
        <ele>18.3</ele>
      </trkpt>
      <trkpt lat="49.0852" lon="-1.09214">
        <ele>18.3</ele>
      </trkpt>
      <trkpt lat="49.08512" lon="-1.09198">
        <ele>18.2</ele>
      </trkpt>
      <trkpt lat="49.08509" lon="-1.0918">
        <ele>18.1</ele>
      </trkpt>
      <trkpt lat="49.08506" lon="-1.09173">
        <ele>18</ele>
      </trkpt>
      <trkpt lat="49.08497" lon="-1.09164">
        <ele>17.9</ele>
      </trkpt>
      <trkpt lat="49.08482" lon="-1.0915">
        <ele>17.6</ele>
      </trkpt>
      <trkpt lat="49.0847" lon="-1.09135">
        <ele>17.4</ele>
      </trkpt>
      <trkpt lat="49.0845" lon="-1.09101">
        <ele>16.9</ele>
      </trkpt>
      <trkpt lat="49.08416" lon="-1.09048">
        <ele>16.2</ele>
      </trkpt>
      <trkpt lat="49.08407" lon="-1.09034">
        <ele>16.7</ele>
      </trkpt>
      <trkpt lat="49.08399" lon="-1.09022">
        <ele>17</ele>
      </trkpt>
      <trkpt lat="49.08391" lon="-1.09012">
        <ele>17.5</ele>
      </trkpt>
      <trkpt lat="49.08382" lon="-1.09001">
        <ele>18</ele>
      </trkpt>
      <trkpt lat="49.08363" lon="-1.08984">
        <ele>18.8</ele>
      </trkpt>
      <trkpt lat="49.08347" lon="-1.08971">
        <ele>19.3</ele>
      </trkpt>
      <trkpt lat="49.08316" lon="-1.08945">
        <ele>20.5</ele>
      </trkpt>
      <trkpt lat="49.08303" lon="-1.08933">
        <ele>20.9</ele>
      </trkpt>
      <trkpt lat="49.08287" lon="-1.08915">
        <ele>20.8</ele>
      </trkpt>
      <trkpt lat="49.0827" lon="-1.08895">
        <ele>21.1</ele>
      </trkpt>
      <trkpt lat="49.08242" lon="-1.08859">
        <ele>21.4</ele>
      </trkpt>
      <trkpt lat="49.08213" lon="-1.08824">
        <ele>25</ele>
      </trkpt>
      <trkpt lat="49.08147" lon="-1.08757">
        <ele>27.8</ele>
      </trkpt>
      <trkpt lat="49.08082" lon="-1.08671">
        <ele>28.7</ele>
      </trkpt>
      <trkpt lat="49.08049" lon="-1.0862">
        <ele>28.2</ele>
      </trkpt>
      <trkpt lat="49.08031" lon="-1.08584">
        <ele>26.1</ele>
      </trkpt>
      <trkpt lat="49.08012" lon="-1.08529">
        <ele>23.2</ele>
      </trkpt>
      <trkpt lat="49.07997" lon="-1.08487">
        <ele>20.5</ele>
      </trkpt>
      <trkpt lat="49.07982" lon="-1.0844">
        <ele>18.6</ele>
      </trkpt>
      <trkpt lat="49.07974" lon="-1.08418">
        <ele>17.4</ele>
      </trkpt>
      <trkpt lat="49.07959" lon="-1.08364">
        <ele>16.2</ele>
      </trkpt>
      <trkpt lat="49.07947" lon="-1.08323">
        <ele>15.8</ele>
      </trkpt>
      <trkpt lat="49.07932" lon="-1.08281">
        <ele>16.4</ele>
      </trkpt>
      <trkpt lat="49.07922" lon="-1.08259">
        <ele>16.8</ele>
      </trkpt>
      <trkpt lat="49.07911" lon="-1.08242">
        <ele>17.1</ele>
      </trkpt>
      <trkpt lat="49.07878" lon="-1.08209">
        <ele>17.2</ele>
      </trkpt>
      <trkpt lat="49.07848" lon="-1.08186">
        <ele>17.2</ele>
      </trkpt>
      <trkpt lat="49.0782" lon="-1.08174">
        <ele>17.7</ele>
      </trkpt>
      <trkpt lat="49.07782" lon="-1.08164">
        <ele>19.4</ele>
      </trkpt>
      <trkpt lat="49.07749" lon="-1.08143">
        <ele>20.4</ele>
      </trkpt>
      <trkpt lat="49.07711" lon="-1.08117">
        <ele>19.5</ele>
      </trkpt>
      <trkpt lat="49.07659" lon="-1.08086">
        <ele>18.4</ele>
      </trkpt>
      <trkpt lat="49.07637" lon="-1.08075">
        <ele>18.9</ele>
      </trkpt>
      <trkpt lat="49.07611" lon="-1.08068">
        <ele>19.6</ele>
      </trkpt>
      <trkpt lat="49.07588" lon="-1.08057">
        <ele>19.9</ele>
      </trkpt>
      <trkpt lat="49.07563" lon="-1.08041">
        <ele>20.1</ele>
      </trkpt>
      <trkpt lat="49.07533" lon="-1.08011">
        <ele>20.1</ele>
      </trkpt>
      <trkpt lat="49.07507" lon="-1.07977">
        <ele>20.2</ele>
      </trkpt>
      <trkpt lat="49.07479" lon="-1.07912">
        <ele>19.9</ele>
      </trkpt>
      <trkpt lat="49.07472" lon="-1.07882">
        <ele>19.8</ele>
      </trkpt>
      <trkpt lat="49.07468" lon="-1.07826">
        <ele>19.4</ele>
      </trkpt>
      <trkpt lat="49.07464" lon="-1.07752">
        <ele>20.3</ele>
      </trkpt>
      <trkpt lat="49.0746" lon="-1.07698">
        <ele>20.2</ele>
      </trkpt>
      <trkpt lat="49.07456" lon="-1.07661">
        <ele>20</ele>
      </trkpt>
      <trkpt lat="49.07451" lon="-1.07636">
        <ele>19.8</ele>
      </trkpt>
      <trkpt lat="49.07444" lon="-1.07611">
        <ele>19.6</ele>
      </trkpt>
      <trkpt lat="49.0742" lon="-1.07547">
        <ele>18.2</ele>
      </trkpt>
      <trkpt lat="49.07402" lon="-1.07507">
        <ele>17.9</ele>
      </trkpt>
      <trkpt lat="49.07391" lon="-1.07484">
        <ele>18.1</ele>
      </trkpt>
      <trkpt lat="49.0738" lon="-1.07464">
        <ele>18.2</ele>
      </trkpt>
      <trkpt lat="49.07367" lon="-1.07442">
        <ele>18.1</ele>
      </trkpt>
      <trkpt lat="49.07355" lon="-1.07424">
        <ele>17.9</ele>
      </trkpt>
      <trkpt lat="49.07342" lon="-1.07407">
        <ele>17.8</ele>
      </trkpt>
      <trkpt lat="49.07328" lon="-1.07393">
        <ele>17.8</ele>
      </trkpt>
      <trkpt lat="49.07317" lon="-1.07382">
        <ele>17.8</ele>
      </trkpt>
      <trkpt lat="49.07307" lon="-1.07373">
        <ele>17.8</ele>
      </trkpt>
      <trkpt lat="49.07293" lon="-1.07366">
        <ele>17.8</ele>
      </trkpt>
      <trkpt lat="49.07269" lon="-1.07354">
        <ele>17.6</ele>
      </trkpt>
      <trkpt lat="49.07251" lon="-1.07342">
        <ele>17.3</ele>
      </trkpt>
      <trkpt lat="49.07222" lon="-1.07318">
        <ele>18.2</ele>
      </trkpt>
      <trkpt lat="49.0719" lon="-1.07286">
        <ele>19.1</ele>
      </trkpt>
      <trkpt lat="49.07163" lon="-1.07258">
        <ele>19.4</ele>
      </trkpt>
      <trkpt lat="49.0714" lon="-1.07227">
        <ele>19.9</ele>
      </trkpt>
      <trkpt lat="49.07125" lon="-1.07204">
        <ele>19.8</ele>
      </trkpt>
      <trkpt lat="49.07101" lon="-1.07157">
        <ele>19.3</ele>
      </trkpt>
      <trkpt lat="49.07078" lon="-1.07109">
        <ele>19.6</ele>
      </trkpt>
      <trkpt lat="49.07074" lon="-1.07093">
        <ele>19.6</ele>
      </trkpt>
      <trkpt lat="49.07063" lon="-1.0706">
        <ele>19.4</ele>
      </trkpt>
      <trkpt lat="49.07056" lon="-1.07042">
        <ele>19.2</ele>
      </trkpt>
      <trkpt lat="49.07051" lon="-1.07033">
        <ele>19.1</ele>
      </trkpt>
      <trkpt lat="49.07046" lon="-1.07028">
        <ele>19.1</ele>
      </trkpt>
      <trkpt lat="49.06988" lon="-1.06963">
        <ele>20.2</ele>
      </trkpt>
      <trkpt lat="49.06903" lon="-1.06865">
        <ele>21.6</ele>
      </trkpt>
      <trkpt lat="49.06832" lon="-1.06787">
        <ele>21.8</ele>
      </trkpt>
      <trkpt lat="49.0679" lon="-1.06739">
        <ele>20.7</ele>
      </trkpt>
      <trkpt lat="49.06752" lon="-1.06696">
        <ele>20.3</ele>
      </trkpt>
      <trkpt lat="49.06682" lon="-1.06617">
        <ele>22.9</ele>
      </trkpt>
      <trkpt lat="49.06599" lon="-1.06521">
        <ele>21.5</ele>
      </trkpt>
      <trkpt lat="49.06589" lon="-1.06509">
        <ele>21.3</ele>
      </trkpt>
      <trkpt lat="49.06578" lon="-1.06502">
        <ele>21.1</ele>
      </trkpt>
      <trkpt lat="49.06564" lon="-1.06497">
        <ele>20.9</ele>
      </trkpt>
      <trkpt lat="49.06496" lon="-1.0648">
        <ele>20.6</ele>
      </trkpt>
      <trkpt lat="49.06477" lon="-1.06476">
        <ele>20.8</ele>
      </trkpt>
      <trkpt lat="49.06434" lon="-1.06463">
        <ele>21</ele>
      </trkpt>
      <trkpt lat="49.06385" lon="-1.06444">
        <ele>21.3</ele>
      </trkpt>
      <trkpt lat="49.0636" lon="-1.06435">
        <ele>21.6</ele>
      </trkpt>
      <trkpt lat="49.06349" lon="-1.06431">
        <ele>21.6</ele>
      </trkpt>
      <trkpt lat="49.06338" lon="-1.06423">
        <ele>21.3</ele>
      </trkpt>
      <trkpt lat="49.0633" lon="-1.06416">
        <ele>21.2</ele>
      </trkpt>
      <trkpt lat="49.06323" lon="-1.06406">
        <ele>21.6</ele>
      </trkpt>
      <trkpt lat="49.06317" lon="-1.06395">
        <ele>21.6</ele>
      </trkpt>
      <trkpt lat="49.06311" lon="-1.06375">
        <ele>21.3</ele>
      </trkpt>
      <trkpt lat="49.0631" lon="-1.06364">
        <ele>21</ele>
      </trkpt>
      <trkpt lat="49.06309" lon="-1.06344">
        <ele>20.3</ele>
      </trkpt>
      <trkpt lat="49.06307" lon="-1.06325">
        <ele>19.8</ele>
      </trkpt>
      <trkpt lat="49.06303" lon="-1.06306">
        <ele>19.5</ele>
      </trkpt>
      <trkpt lat="49.06299" lon="-1.06291">
        <ele>19.3</ele>
      </trkpt>
      <trkpt lat="49.06289" lon="-1.06262">
        <ele>18.8</ele>
      </trkpt>
      <trkpt lat="49.06284" lon="-1.0625">
        <ele>18.6</ele>
      </trkpt>
      <trkpt lat="49.06278" lon="-1.06242">
        <ele>18.8</ele>
      </trkpt>
      <trkpt lat="49.06272" lon="-1.06234">
        <ele>19</ele>
      </trkpt>
      <trkpt lat="49.06264" lon="-1.06227">
        <ele>19.2</ele>
      </trkpt>
      <trkpt lat="49.06254" lon="-1.06219">
        <ele>19.3</ele>
      </trkpt>
      <trkpt lat="49.06235" lon="-1.0621">
        <ele>19.6</ele>
      </trkpt>
      <trkpt lat="49.06221" lon="-1.06203">
        <ele>19.7</ele>
      </trkpt>
      <trkpt lat="49.06208" lon="-1.062">
        <ele>19.8</ele>
      </trkpt>
      <trkpt lat="49.06198" lon="-1.06199">
        <ele>19.9</ele>
      </trkpt>
      <trkpt lat="49.06183" lon="-1.06202">
        <ele>19.9</ele>
      </trkpt>
      <trkpt lat="49.06172" lon="-1.06203">
        <ele>20</ele>
      </trkpt>
      <trkpt lat="49.06162" lon="-1.06205">
        <ele>20.2</ele>
      </trkpt>
      <trkpt lat="49.06153" lon="-1.0621">
        <ele>20.6</ele>
      </trkpt>
      <trkpt lat="49.06141" lon="-1.06216">
        <ele>21.2</ele>
      </trkpt>
      <trkpt lat="49.06117" lon="-1.06226">
        <ele>22.7</ele>
      </trkpt>
      <trkpt lat="49.06075" lon="-1.06242">
        <ele>26.1</ele>
      </trkpt>
      <trkpt lat="49.06069" lon="-1.06244">
        <ele>26.6</ele>
      </trkpt>
      <trkpt lat="49.06067" lon="-1.06247">
        <ele>26.9</ele>
      </trkpt>
      <trkpt lat="49.06064" lon="-1.06252">
        <ele>27.7</ele>
      </trkpt>
      <trkpt lat="49.06063" lon="-1.06259">
        <ele>28.5</ele>
      </trkpt>
      <trkpt lat="49.06064" lon="-1.06265">
        <ele>29.2</ele>
      </trkpt>
      <trkpt lat="49.06072" lon="-1.06294">
        <ele>32</ele>
      </trkpt>
      <trkpt lat="49.06073" lon="-1.06302">
        <ele>32.8</ele>
      </trkpt>
      <trkpt lat="49.0607" lon="-1.06307">
        <ele>33.7</ele>
      </trkpt>
      <trkpt lat="49.06068" lon="-1.06307">
        <ele>33.9</ele>
      </trkpt>
      <trkpt lat="49.06064" lon="-1.06308">
        <ele>34.1</ele>
      </trkpt>
      <trkpt lat="49.06059" lon="-1.06304">
        <ele>34</ele>
      </trkpt>
      <trkpt lat="49.06054" lon="-1.06296">
        <ele>33.4</ele>
      </trkpt>
      <trkpt lat="49.06047" lon="-1.06284">
        <ele>32.5</ele>
      </trkpt>
      <trkpt lat="49.06042" lon="-1.06275">
        <ele>31.9</ele>
      </trkpt>
      <trkpt lat="49.06037" lon="-1.06271">
        <ele>31.7</ele>
      </trkpt>
      <trkpt lat="49.06012" lon="-1.06264">
        <ele>32.7</ele>
      </trkpt>
      <trkpt lat="49.06004" lon="-1.06261">
        <ele>32.9</ele>
      </trkpt>
      <trkpt lat="49.05991" lon="-1.06252">
        <ele>32.6</ele>
      </trkpt>
      <trkpt lat="49.05978" lon="-1.06243">
        <ele>32.1</ele>
      </trkpt>
      <trkpt lat="49.05949" lon="-1.06229">
        <ele>31.5</ele>
      </trkpt>
      <trkpt lat="49.05939" lon="-1.06223">
        <ele>31.1</ele>
      </trkpt>
      <trkpt lat="49.05932" lon="-1.06214">
        <ele>30.2</ele>
      </trkpt>
      <trkpt lat="49.05925" lon="-1.06202">
        <ele>28.7</ele>
      </trkpt>
      <trkpt lat="49.05918" lon="-1.06187">
        <ele>26.9</ele>
      </trkpt>
      <trkpt lat="49.05913" lon="-1.06171">
        <ele>24.6</ele>
      </trkpt>
      <trkpt lat="49.05905" lon="-1.06138">
        <ele>22.3</ele>
      </trkpt>
      <trkpt lat="49.05901" lon="-1.06119">
        <ele>21.2</ele>
      </trkpt>
      <trkpt lat="49.05897" lon="-1.06105">
        <ele>20.3</ele>
      </trkpt>
      <trkpt lat="49.05892" lon="-1.06091">
        <ele>19.5</ele>
      </trkpt>
      <trkpt lat="49.05887" lon="-1.06078">
        <ele>19.1</ele>
      </trkpt>
      <trkpt lat="49.05882" lon="-1.06069">
        <ele>19.2</ele>
      </trkpt>
      <trkpt lat="49.05861" lon="-1.06039">
        <ele>19.9</ele>
      </trkpt>
      <trkpt lat="49.05848" lon="-1.06018">
        <ele>20.4</ele>
      </trkpt>
      <trkpt lat="49.05839" lon="-1.06001">
        <ele>20.9</ele>
      </trkpt>
      <trkpt lat="49.05817" lon="-1.05957">
        <ele>20.7</ele>
      </trkpt>
      <trkpt lat="49.05794" lon="-1.05925">
        <ele>20.9</ele>
      </trkpt>
      <trkpt lat="49.05771" lon="-1.05898">
        <ele>21.4</ele>
      </trkpt>
      <trkpt lat="49.05755" lon="-1.05885">
        <ele>21.5</ele>
      </trkpt>
      <trkpt lat="49.0572" lon="-1.05865">
        <ele>21.2</ele>
      </trkpt>
      <trkpt lat="49.05706" lon="-1.05855">
        <ele>21.1</ele>
      </trkpt>
      <trkpt lat="49.0569" lon="-1.05841">
        <ele>21</ele>
      </trkpt>
      <trkpt lat="49.05637" lon="-1.05782">
        <ele>21.5</ele>
      </trkpt>
      <trkpt lat="49.05554" lon="-1.05686">
        <ele>21.3</ele>
      </trkpt>
      <trkpt lat="49.05539" lon="-1.05669">
        <ele>21.1</ele>
      </trkpt>
      <trkpt lat="49.05524" lon="-1.05653">
        <ele>21.2</ele>
      </trkpt>
      <trkpt lat="49.05516" lon="-1.05643">
        <ele>21.3</ele>
      </trkpt>
      <trkpt lat="49.05508" lon="-1.05625">
        <ele>21.5</ele>
      </trkpt>
      <trkpt lat="49.05503" lon="-1.05617">
        <ele>21.6</ele>
      </trkpt>
      <trkpt lat="49.05497" lon="-1.05611">
        <ele>21.9</ele>
      </trkpt>
      <trkpt lat="49.05488" lon="-1.05608">
        <ele>22.4</ele>
      </trkpt>
      <trkpt lat="49.05484" lon="-1.05605">
        <ele>22.7</ele>
      </trkpt>
      <trkpt lat="49.05405" lon="-1.0549">
        <ele>22.8</ele>
      </trkpt>
      <trkpt lat="49.05367" lon="-1.05435">
        <ele>24</ele>
      </trkpt>
      <trkpt lat="49.05345" lon="-1.0541">
        <ele>24.2</ele>
      </trkpt>
      <trkpt lat="49.05333" lon="-1.054">
        <ele>24.4</ele>
      </trkpt>
      <trkpt lat="49.05323" lon="-1.05392">
        <ele>24.5</ele>
      </trkpt>
      <trkpt lat="49.05274" lon="-1.05365">
        <ele>24.9</ele>
      </trkpt>
      <trkpt lat="49.05257" lon="-1.05354">
        <ele>24.8</ele>
      </trkpt>
      <trkpt lat="49.05238" lon="-1.05338">
        <ele>24.9</ele>
      </trkpt>
      <trkpt lat="49.05226" lon="-1.05325">
        <ele>25.1</ele>
      </trkpt>
      <trkpt lat="49.05187" lon="-1.05269">
        <ele>24.3</ele>
      </trkpt>
      <trkpt lat="49.05162" lon="-1.05235">
        <ele>23.8</ele>
      </trkpt>
      <trkpt lat="49.05128" lon="-1.0519">
        <ele>24.4</ele>
      </trkpt>
      <trkpt lat="49.05112" lon="-1.05172">
        <ele>24.5</ele>
      </trkpt>
      <trkpt lat="49.05097" lon="-1.05152">
        <ele>24.4</ele>
      </trkpt>
      <trkpt lat="49.05091" lon="-1.05139">
        <ele>24.1</ele>
      </trkpt>
      <trkpt lat="49.05084" lon="-1.05115">
        <ele>22.9</ele>
      </trkpt>
      <trkpt lat="49.0508" lon="-1.05091">
        <ele>21.8</ele>
      </trkpt>
      <trkpt lat="49.05077" lon="-1.05063">
        <ele>21.6</ele>
      </trkpt>
      <trkpt lat="49.05074" lon="-1.0502">
        <ele>21.6</ele>
      </trkpt>
      <trkpt lat="49.05072" lon="-1.04956">
        <ele>22</ele>
      </trkpt>
      <trkpt lat="49.05071" lon="-1.04939">
        <ele>22.1</ele>
      </trkpt>
      <trkpt lat="49.05069" lon="-1.04908">
        <ele>22.3</ele>
      </trkpt>
      <trkpt lat="49.05066" lon="-1.0489">
        <ele>22.3</ele>
      </trkpt>
      <trkpt lat="49.05061" lon="-1.04876">
        <ele>22.3</ele>
      </trkpt>
      <trkpt lat="49.05055" lon="-1.04867">
        <ele>22.3</ele>
      </trkpt>
      <trkpt lat="49.05048" lon="-1.04859">
        <ele>22.3</ele>
      </trkpt>
      <trkpt lat="49.05041" lon="-1.04853">
        <ele>22.2</ele>
      </trkpt>
      <trkpt lat="49.05039" lon="-1.04853">
        <ele>22.2</ele>
      </trkpt>
      <trkpt lat="49.05029" lon="-1.0485">
        <ele>22.3</ele>
      </trkpt>
      <trkpt lat="49.05025" lon="-1.04846">
        <ele>22.2</ele>
      </trkpt>
      <trkpt lat="49.05022" lon="-1.04843">
        <ele>22.2</ele>
      </trkpt>
      <trkpt lat="49.05017" lon="-1.0483">
        <ele>22</ele>
      </trkpt>
      <trkpt lat="49.0501" lon="-1.04823">
        <ele>22</ele>
      </trkpt>
      <trkpt lat="49.04996" lon="-1.04814">
        <ele>22</ele>
      </trkpt>
      <trkpt lat="49.04986" lon="-1.04809">
        <ele>22</ele>
      </trkpt>
      <trkpt lat="49.04964" lon="-1.04806">
        <ele>21.9</ele>
      </trkpt>
      <trkpt lat="49.04933" lon="-1.04803">
        <ele>21.7</ele>
      </trkpt>
      <trkpt lat="49.04917" lon="-1.048">
        <ele>21.6</ele>
      </trkpt>
      <trkpt lat="49.04896" lon="-1.04793">
        <ele>22.4</ele>
      </trkpt>
      <trkpt lat="49.04878" lon="-1.04781">
        <ele>23</ele>
      </trkpt>
      <trkpt lat="49.04856" lon="-1.0477">
        <ele>23.6</ele>
      </trkpt>
      <trkpt lat="49.04813" lon="-1.04736">
        <ele>25.7</ele>
      </trkpt>
      <trkpt lat="49.04789" lon="-1.04718">
        <ele>27.2</ele>
      </trkpt>
      <trkpt lat="49.04765" lon="-1.04691">
        <ele>27.2</ele>
      </trkpt>
      <trkpt lat="49.04747" lon="-1.04669">
        <ele>26.4</ele>
      </trkpt>
      <trkpt lat="49.04695" lon="-1.04597">
        <ele>25.3</ele>
      </trkpt>
      <trkpt lat="49.04671" lon="-1.04562">
        <ele>24.5</ele>
      </trkpt>
      <trkpt lat="49.04653" lon="-1.04539">
        <ele>24</ele>
      </trkpt>
      <trkpt lat="49.0463" lon="-1.04513">
        <ele>24</ele>
      </trkpt>
      <trkpt lat="49.04609" lon="-1.04489">
        <ele>24.3</ele>
      </trkpt>
      <trkpt lat="49.04589" lon="-1.04469">
        <ele>24.5</ele>
      </trkpt>
      <trkpt lat="49.04562" lon="-1.04447">
        <ele>24.5</ele>
      </trkpt>
      <trkpt lat="49.04515" lon="-1.04415">
        <ele>24.8</ele>
      </trkpt>
      <trkpt lat="49.04476" lon="-1.04396">
        <ele>25.1</ele>
      </trkpt>
      <trkpt lat="49.04423" lon="-1.04377">
        <ele>25</ele>
      </trkpt>
      <trkpt lat="49.04363" lon="-1.04362">
        <ele>26.2</ele>
      </trkpt>
      <trkpt lat="49.04215" lon="-1.04317">
        <ele>25.7</ele>
      </trkpt>
      <trkpt lat="49.04198" lon="-1.04311">
        <ele>25.1</ele>
      </trkpt>
      <trkpt lat="49.04107" lon="-1.04281">
        <ele>23.9</ele>
      </trkpt>
      <trkpt lat="49.04105" lon="-1.04281">
        <ele>23.9</ele>
      </trkpt>
      <trkpt lat="49.04089" lon="-1.04279">
        <ele>24</ele>
      </trkpt>
      <trkpt lat="49.04072" lon="-1.04278">
        <ele>24</ele>
      </trkpt>
      <trkpt lat="49.04014" lon="-1.0426">
        <ele>24</ele>
      </trkpt>
      <trkpt lat="49.04001" lon="-1.04255">
        <ele>24</ele>
      </trkpt>
      <trkpt lat="49.03986" lon="-1.04254">
        <ele>24.3</ele>
      </trkpt>
      <trkpt lat="49.03978" lon="-1.04257">
        <ele>24.5</ele>
      </trkpt>
      <trkpt lat="49.03938" lon="-1.0429">
        <ele>24.8</ele>
      </trkpt>
      <trkpt lat="49.0393" lon="-1.04296">
        <ele>24.7</ele>
      </trkpt>
      <trkpt lat="49.0392" lon="-1.04307">
        <ele>24.6</ele>
      </trkpt>
      <trkpt lat="49.03912" lon="-1.04317">
        <ele>24.6</ele>
      </trkpt>
      <trkpt lat="49.03901" lon="-1.04334">
        <ele>24.7</ele>
      </trkpt>
      <trkpt lat="49.03895" lon="-1.04344">
        <ele>24.9</ele>
      </trkpt>
      <trkpt lat="49.0389" lon="-1.0435">
        <ele>25</ele>
      </trkpt>
      <trkpt lat="49.03885" lon="-1.04355">
        <ele>25.1</ele>
      </trkpt>
      <trkpt lat="49.03876" lon="-1.04362">
        <ele>25.3</ele>
      </trkpt>
      <trkpt lat="49.0386" lon="-1.0437">
        <ele>25.5</ele>
      </trkpt>
      <trkpt lat="49.03846" lon="-1.04376">
        <ele>25.6</ele>
      </trkpt>
      <trkpt lat="49.0384" lon="-1.04379">
        <ele>25.7</ele>
      </trkpt>
      <trkpt lat="49.0382" lon="-1.04399">
        <ele>25.7</ele>
      </trkpt>
      <trkpt lat="49.03802" lon="-1.04419">
        <ele>25.9</ele>
      </trkpt>
      <trkpt lat="49.03791" lon="-1.04433">
        <ele>26.1</ele>
      </trkpt>
      <trkpt lat="49.03784" lon="-1.04445">
        <ele>26.1</ele>
      </trkpt>
      <trkpt lat="49.0378" lon="-1.04458">
        <ele>25.9</ele>
      </trkpt>
      <trkpt lat="49.03774" lon="-1.04473">
        <ele>25.6</ele>
      </trkpt>
      <trkpt lat="49.0377" lon="-1.04482">
        <ele>25.4</ele>
      </trkpt>
      <trkpt lat="49.03766" lon="-1.045">
        <ele>24.8</ele>
      </trkpt>
      <trkpt lat="49.03763" lon="-1.0452">
        <ele>24.9</ele>
      </trkpt>
      <trkpt lat="49.03761" lon="-1.04536">
        <ele>25</ele>
      </trkpt>
      <trkpt lat="49.03758" lon="-1.04553">
        <ele>25</ele>
      </trkpt>
      <trkpt lat="49.03753" lon="-1.0458">
        <ele>25</ele>
      </trkpt>
      <trkpt lat="49.03749" lon="-1.04596">
        <ele>25</ele>
      </trkpt>
      <trkpt lat="49.03738" lon="-1.04636">
        <ele>24.9</ele>
      </trkpt>
      <trkpt lat="49.03733" lon="-1.04652">
        <ele>25</ele>
      </trkpt>
      <trkpt lat="49.03726" lon="-1.04687">
        <ele>25.6</ele>
      </trkpt>
      <trkpt lat="49.03722" lon="-1.04704">
        <ele>26</ele>
      </trkpt>
      <trkpt lat="49.03717" lon="-1.04717">
        <ele>26.3</ele>
      </trkpt>
      <trkpt lat="49.03709" lon="-1.04732">
        <ele>26.6</ele>
      </trkpt>
      <trkpt lat="49.03702" lon="-1.04743">
        <ele>26.7</ele>
      </trkpt>
      <trkpt lat="49.03695" lon="-1.04749">
        <ele>26.7</ele>
      </trkpt>
      <trkpt lat="49.03688" lon="-1.0475">
        <ele>26.5</ele>
      </trkpt>
      <trkpt lat="49.03673" lon="-1.0475">
        <ele>26.2</ele>
      </trkpt>
      <trkpt lat="49.03665" lon="-1.04749">
        <ele>26</ele>
      </trkpt>
      <trkpt lat="49.03658" lon="-1.04747">
        <ele>25.8</ele>
      </trkpt>
      <trkpt lat="49.03651" lon="-1.04744">
        <ele>25.6</ele>
      </trkpt>
      <trkpt lat="49.03644" lon="-1.04739">
        <ele>25.3</ele>
      </trkpt>
      <trkpt lat="49.03637" lon="-1.04732">
        <ele>25.1</ele>
      </trkpt>
      <trkpt lat="49.03632" lon="-1.04726">
        <ele>25</ele>
      </trkpt>
      <trkpt lat="49.03627" lon="-1.04718">
        <ele>24.8</ele>
      </trkpt>
      <trkpt lat="49.03618" lon="-1.04702">
        <ele>24.6</ele>
      </trkpt>
      <trkpt lat="49.03614" lon="-1.04696">
        <ele>24.5</ele>
      </trkpt>
      <trkpt lat="49.03608" lon="-1.04687">
        <ele>24.4</ele>
      </trkpt>
      <trkpt lat="49.03599" lon="-1.04678">
        <ele>24.2</ele>
      </trkpt>
      <trkpt lat="49.0359" lon="-1.04672">
        <ele>24.1</ele>
      </trkpt>
      <trkpt lat="49.03582" lon="-1.04667">
        <ele>24.1</ele>
      </trkpt>
      <trkpt lat="49.0357" lon="-1.04663">
        <ele>25.2</ele>
      </trkpt>
      <trkpt lat="49.03562" lon="-1.04661">
        <ele>25.8</ele>
      </trkpt>
      <trkpt lat="49.03553" lon="-1.04661">
        <ele>26.4</ele>
      </trkpt>
      <trkpt lat="49.03538" lon="-1.04665">
        <ele>26.9</ele>
      </trkpt>
      <trkpt lat="49.03525" lon="-1.04668">
        <ele>27.5</ele>
      </trkpt>
      <trkpt lat="49.03501" lon="-1.04676">
        <ele>28.5</ele>
      </trkpt>
      <trkpt lat="49.03489" lon="-1.04682">
        <ele>29.2</ele>
      </trkpt>
      <trkpt lat="49.03478" lon="-1.04688">
        <ele>29.7</ele>
      </trkpt>
      <trkpt lat="49.0347" lon="-1.04696">
        <ele>29.8</ele>
      </trkpt>
      <trkpt lat="49.03459" lon="-1.04707">
        <ele>29.6</ele>
      </trkpt>
      <trkpt lat="49.03452" lon="-1.04715">
        <ele>29.2</ele>
      </trkpt>
      <trkpt lat="49.03447" lon="-1.04722">
        <ele>28.9</ele>
      </trkpt>
      <trkpt lat="49.0344" lon="-1.04732">
        <ele>28.2</ele>
      </trkpt>
      <trkpt lat="49.03427" lon="-1.04756">
        <ele>26.7</ele>
      </trkpt>
      <trkpt lat="49.03419" lon="-1.04772">
        <ele>26.7</ele>
      </trkpt>
      <trkpt lat="49.03416" lon="-1.04779">
        <ele>26.8</ele>
      </trkpt>
      <trkpt lat="49.03414" lon="-1.04785">
        <ele>27</ele>
      </trkpt>
      <trkpt lat="49.03412" lon="-1.04806">
        <ele>27</ele>
      </trkpt>
      <trkpt lat="49.03401" lon="-1.0493">
        <ele>27.3</ele>
      </trkpt>
      <trkpt lat="49.03399" lon="-1.04944">
        <ele>27.2</ele>
      </trkpt>
      <trkpt lat="49.03391" lon="-1.04978">
        <ele>26.9</ele>
      </trkpt>
      <trkpt lat="49.03377" lon="-1.05024">
        <ele>26.2</ele>
      </trkpt>
      <trkpt lat="49.03369" lon="-1.05044">
        <ele>25.8</ele>
      </trkpt>
      <trkpt lat="49.03347" lon="-1.0509">
        <ele>24.8</ele>
      </trkpt>
      <trkpt lat="49.03307" lon="-1.05173">
        <ele>27.9</ele>
      </trkpt>
      <trkpt lat="49.03269" lon="-1.05251">
        <ele>29.7</ele>
      </trkpt>
      <trkpt lat="49.03223" lon="-1.05335">
        <ele>34</ele>
      </trkpt>
      <trkpt lat="49.03201" lon="-1.05372">
        <ele>35.8</ele>
      </trkpt>
      <trkpt lat="49.03182" lon="-1.05404">
        <ele>35.3</ele>
      </trkpt>
      <trkpt lat="49.0316" lon="-1.05435">
        <ele>35.1</ele>
      </trkpt>
      <trkpt lat="49.0314" lon="-1.05461">
        <ele>36.1</ele>
      </trkpt>
      <trkpt lat="49.03101" lon="-1.05504">
        <ele>34.7</ele>
      </trkpt>
      <trkpt lat="49.03068" lon="-1.05541">
        <ele>37.1</ele>
      </trkpt>
      <trkpt lat="49.03041" lon="-1.0557">
        <ele>37.6</ele>
      </trkpt>
      <trkpt lat="49.03026" lon="-1.05586">
        <ele>37.1</ele>
      </trkpt>
      <trkpt lat="49.02999" lon="-1.0561">
        <ele>38.5</ele>
      </trkpt>
      <trkpt lat="49.02992" lon="-1.05615">
        <ele>39</ele>
      </trkpt>
      <trkpt lat="49.02978" lon="-1.05622">
        <ele>38.5</ele>
      </trkpt>
      <trkpt lat="49.02961" lon="-1.05628">
        <ele>37.1</ele>
      </trkpt>
      <trkpt lat="49.02936" lon="-1.05636">
        <ele>34.1</ele>
      </trkpt>
      <trkpt lat="49.02915" lon="-1.05645">
        <ele>31.4</ele>
      </trkpt>
      <trkpt lat="49.02885" lon="-1.05661">
        <ele>30.1</ele>
      </trkpt>
      <trkpt lat="49.02876" lon="-1.05667">
        <ele>29.6</ele>
      </trkpt>
      <trkpt lat="49.02864" lon="-1.05676">
        <ele>30.4</ele>
      </trkpt>
      <trkpt lat="49.02849" lon="-1.0569">
        <ele>31.5</ele>
      </trkpt>
      <trkpt lat="49.02835" lon="-1.05704">
        <ele>32</ele>
      </trkpt>
      <trkpt lat="49.02804" lon="-1.0574">
        <ele>34</ele>
      </trkpt>
      <trkpt lat="49.02776" lon="-1.0577">
        <ele>35.4</ele>
      </trkpt>
      <trkpt lat="49.02758" lon="-1.05787">
        <ele>35.6</ele>
      </trkpt>
      <trkpt lat="49.02748" lon="-1.05794">
        <ele>35.3</ele>
      </trkpt>
      <trkpt lat="49.02675" lon="-1.05848">
        <ele>36.5</ele>
      </trkpt>
      <trkpt lat="49.02642" lon="-1.05875">
        <ele>38.9</ele>
      </trkpt>
      <trkpt lat="49.02641" lon="-1.05869">
        <ele>37.6</ele>
      </trkpt>
      <trkpt lat="49.0263" lon="-1.05821">
        <ele>30</ele>
      </trkpt>
      <trkpt lat="49.02629" lon="-1.05816">
        <ele>29.9</ele>
      </trkpt>
      <trkpt lat="49.02628" lon="-1.05813">
        <ele>29.8</ele>
      </trkpt>
      <trkpt lat="49.02623" lon="-1.05803">
        <ele>29.6</ele>
      </trkpt>
      <trkpt lat="49.02616" lon="-1.05781">
        <ele>29.3</ele>
      </trkpt>
      <trkpt lat="49.02607" lon="-1.0575">
        <ele>29.5</ele>
      </trkpt>
      <trkpt lat="49.02604" lon="-1.05731">
        <ele>30</ele>
      </trkpt>
      <trkpt lat="49.02604" lon="-1.05726">
        <ele>30.1</ele>
      </trkpt>
      <trkpt lat="49.02606" lon="-1.05722">
        <ele>30.1</ele>
      </trkpt>
      <trkpt lat="49.02609" lon="-1.05719">
        <ele>30.1</ele>
      </trkpt>
      <trkpt lat="49.02626" lon="-1.05706">
        <ele>30</ele>
      </trkpt>
      <trkpt lat="49.02637" lon="-1.05694">
        <ele>30</ele>
      </trkpt>
      <trkpt lat="49.02639" lon="-1.05689">
        <ele>30.1</ele>
      </trkpt>
      <trkpt lat="49.02641" lon="-1.05678">
        <ele>30.3</ele>
      </trkpt>
      <trkpt lat="49.02644" lon="-1.05657">
        <ele>31</ele>
      </trkpt>
      <trkpt lat="49.02646" lon="-1.05636">
        <ele>32</ele>
      </trkpt>
      <trkpt lat="49.02652" lon="-1.05606">
        <ele>33.3</ele>
      </trkpt>
      <trkpt lat="49.02659" lon="-1.05578">
        <ele>34.6</ele>
      </trkpt>
      <trkpt lat="49.0267" lon="-1.05538">
        <ele>37</ele>
      </trkpt>
      <trkpt lat="49.02684" lon="-1.05493">
        <ele>39.3</ele>
      </trkpt>
      <trkpt lat="49.0269" lon="-1.05478">
        <ele>40.2</ele>
      </trkpt>
      <trkpt lat="49.02695" lon="-1.05458">
        <ele>41.8</ele>
      </trkpt>
      <trkpt lat="49.0271" lon="-1.05415">
        <ele>45</ele>
      </trkpt>
      <trkpt lat="49.02725" lon="-1.05383">
        <ele>47.4</ele>
      </trkpt>
      <trkpt lat="49.02742" lon="-1.05346">
        <ele>50.7</ele>
      </trkpt>
      <trkpt lat="49.02753" lon="-1.05318">
        <ele>52.4</ele>
      </trkpt>
      <trkpt lat="49.02763" lon="-1.05288">
        <ele>52.7</ele>
      </trkpt>
      <trkpt lat="49.02776" lon="-1.05258">
        <ele>53.3</ele>
      </trkpt>
      <trkpt lat="49.02772" lon="-1.05245">
        <ele>54.4</ele>
      </trkpt>
      <trkpt lat="49.02769" lon="-1.0521">
        <ele>56</ele>
      </trkpt>
      <trkpt lat="49.02767" lon="-1.05191">
        <ele>56.9</ele>
      </trkpt>
      <trkpt lat="49.02765" lon="-1.05169">
        <ele>57.7</ele>
      </trkpt>
      <trkpt lat="49.02763" lon="-1.05143">
        <ele>59</ele>
      </trkpt>
      <trkpt lat="49.02757" lon="-1.0509">
        <ele>61.6</ele>
      </trkpt>
      <trkpt lat="49.02753" lon="-1.05057">
        <ele>63.2</ele>
      </trkpt>
      <trkpt lat="49.02749" lon="-1.05022">
        <ele>64.9</ele>
      </trkpt>
      <trkpt lat="49.02749" lon="-1.05">
        <ele>65.9</ele>
      </trkpt>
      <trkpt lat="49.0275" lon="-1.04968">
        <ele>67.1</ele>
      </trkpt>
      <trkpt lat="49.02748" lon="-1.04936">
        <ele>68.2</ele>
      </trkpt>
      <trkpt lat="49.02742" lon="-1.04863">
        <ele>71</ele>
      </trkpt>
      <trkpt lat="49.02739" lon="-1.04791">
        <ele>73.3</ele>
      </trkpt>
      <trkpt lat="49.02736" lon="-1.0472">
        <ele>74.5</ele>
      </trkpt>
      <trkpt lat="49.02732" lon="-1.04676">
        <ele>74.7</ele>
      </trkpt>
      <trkpt lat="49.02724" lon="-1.04638">
        <ele>74.2</ele>
      </trkpt>
      <trkpt lat="49.02717" lon="-1.04604">
        <ele>73.5</ele>
      </trkpt>
      <trkpt lat="49.0271" lon="-1.04571">
        <ele>72.9</ele>
      </trkpt>
      <trkpt lat="49.02708" lon="-1.04548">
        <ele>73.1</ele>
      </trkpt>
      <trkpt lat="49.02711" lon="-1.04523">
        <ele>74.9</ele>
      </trkpt>
      <trkpt lat="49.02718" lon="-1.04498">
        <ele>77.7</ele>
      </trkpt>
      <trkpt lat="49.02721" lon="-1.04476">
        <ele>79.1</ele>
      </trkpt>
      <trkpt lat="49.02717" lon="-1.04464">
        <ele>78.1</ele>
      </trkpt>
      <trkpt lat="49.02711" lon="-1.04447">
        <ele>76.9</ele>
      </trkpt>
      <trkpt lat="49.02705" lon="-1.0442">
        <ele>76</ele>
      </trkpt>
      <trkpt lat="49.02701" lon="-1.0439">
        <ele>76.3</ele>
      </trkpt>
      <trkpt lat="49.02698" lon="-1.04359">
        <ele>77.1</ele>
      </trkpt>
      <trkpt lat="49.02695" lon="-1.04328">
        <ele>78</ele>
      </trkpt>
      <trkpt lat="49.02692" lon="-1.043">
        <ele>78.4</ele>
      </trkpt>
      <trkpt lat="49.02691" lon="-1.04274">
        <ele>79.4</ele>
      </trkpt>
      <trkpt lat="49.02693" lon="-1.04257">
        <ele>80.6</ele>
      </trkpt>
      <trkpt lat="49.02695" lon="-1.04242">
        <ele>82</ele>
      </trkpt>
      <trkpt lat="49.02695" lon="-1.0422">
        <ele>83</ele>
      </trkpt>
      <trkpt lat="49.02693" lon="-1.04197">
        <ele>83.7</ele>
      </trkpt>
      <trkpt lat="49.02687" lon="-1.04168">
        <ele>84.1</ele>
      </trkpt>
      <trkpt lat="49.0268" lon="-1.04141">
        <ele>84.8</ele>
      </trkpt>
      <trkpt lat="49.0267" lon="-1.04111">
        <ele>85.9</ele>
      </trkpt>
      <trkpt lat="49.0266" lon="-1.04077">
        <ele>85.7</ele>
      </trkpt>
      <trkpt lat="49.02652" lon="-1.0405">
        <ele>85.4</ele>
      </trkpt>
      <trkpt lat="49.02651" lon="-1.04047">
        <ele>85.6</ele>
      </trkpt>
      <trkpt lat="49.02647" lon="-1.04029">
        <ele>86.6</ele>
      </trkpt>
      <trkpt lat="49.02648" lon="-1.04014">
        <ele>89.1</ele>
      </trkpt>
      <trkpt lat="49.02647" lon="-1.03995">
        <ele>90.9</ele>
      </trkpt>
      <trkpt lat="49.0264" lon="-1.03977">
        <ele>90.9</ele>
      </trkpt>
      <trkpt lat="49.02632" lon="-1.03965">
        <ele>90.6</ele>
      </trkpt>
      <trkpt lat="49.02623" lon="-1.03961">
        <ele>89.5</ele>
      </trkpt>
      <trkpt lat="49.02612" lon="-1.0396">
        <ele>87.8</ele>
      </trkpt>
      <trkpt lat="49.02602" lon="-1.03953">
        <ele>87.2</ele>
      </trkpt>
      <trkpt lat="49.02595" lon="-1.03942">
        <ele>88.5</ele>
      </trkpt>
      <trkpt lat="49.02587" lon="-1.03927">
        <ele>90.9</ele>
      </trkpt>
      <trkpt lat="49.02581" lon="-1.03912">
        <ele>93.1</ele>
      </trkpt>
      <trkpt lat="49.02573" lon="-1.03894">
        <ele>94.1</ele>
      </trkpt>
      <trkpt lat="49.0256" lon="-1.03875">
        <ele>95.5</ele>
      </trkpt>
      <trkpt lat="49.02546" lon="-1.03844">
        <ele>100.8</ele>
      </trkpt>
      <trkpt lat="49.02533" lon="-1.03817">
        <ele>103.4</ele>
      </trkpt>
      <trkpt lat="49.02528" lon="-1.03796">
        <ele>104.2</ele>
      </trkpt>
      <trkpt lat="49.02527" lon="-1.03772">
        <ele>105.2</ele>
      </trkpt>
      <trkpt lat="49.02521" lon="-1.03767">
        <ele>105.5</ele>
      </trkpt>
      <trkpt lat="49.02503" lon="-1.03744">
        <ele>106.9</ele>
      </trkpt>
      <trkpt lat="49.0249" lon="-1.03728">
        <ele>106.8</ele>
      </trkpt>
      <trkpt lat="49.02485" lon="-1.03723">
        <ele>106.7</ele>
      </trkpt>
      <trkpt lat="49.02467" lon="-1.03706">
        <ele>106.7</ele>
      </trkpt>
      <trkpt lat="49.02448" lon="-1.03693">
        <ele>106.8</ele>
      </trkpt>
      <trkpt lat="49.02418" lon="-1.03676">
        <ele>107.6</ele>
      </trkpt>
      <trkpt lat="49.02396" lon="-1.03662">
        <ele>107.5</ele>
      </trkpt>
      <trkpt lat="49.0236" lon="-1.03639">
        <ele>107.1</ele>
      </trkpt>
      <trkpt lat="49.02315" lon="-1.03613">
        <ele>106.9</ele>
      </trkpt>
      <trkpt lat="49.02301" lon="-1.03607">
        <ele>106.8</ele>
      </trkpt>
      <trkpt lat="49.0229" lon="-1.03601">
        <ele>106.8</ele>
      </trkpt>
      <trkpt lat="49.02263" lon="-1.03586">
        <ele>107</ele>
      </trkpt>
      <trkpt lat="49.02212" lon="-1.03558">
        <ele>107.6</ele>
      </trkpt>
      <trkpt lat="49.02191" lon="-1.03549">
        <ele>107.8</ele>
      </trkpt>
      <trkpt lat="49.02184" lon="-1.03548">
        <ele>107.8</ele>
      </trkpt>
      <trkpt lat="49.02177" lon="-1.03518">
        <ele>108.6</ele>
      </trkpt>
      <trkpt lat="49.02167" lon="-1.03493">
        <ele>108.8</ele>
      </trkpt>
      <trkpt lat="49.02152" lon="-1.03468">
        <ele>108.4</ele>
      </trkpt>
      <trkpt lat="49.02134" lon="-1.03438">
        <ele>107.9</ele>
      </trkpt>
      <trkpt lat="49.02124" lon="-1.03414">
        <ele>107.4</ele>
      </trkpt>
      <trkpt lat="49.0212" lon="-1.03381">
        <ele>106.7</ele>
      </trkpt>
      <trkpt lat="49.02114" lon="-1.03314">
        <ele>105.2</ele>
      </trkpt>
      <trkpt lat="49.02109" lon="-1.03258">
        <ele>103.9</ele>
      </trkpt>
      <trkpt lat="49.02101" lon="-1.03193">
        <ele>102</ele>
      </trkpt>
      <trkpt lat="49.02095" lon="-1.03161">
        <ele>101.4</ele>
      </trkpt>
      <trkpt lat="49.0206" lon="-1.0311">
        <ele>102.7</ele>
      </trkpt>
      <trkpt lat="49.02042" lon="-1.0308">
        <ele>103.5</ele>
      </trkpt>
      <trkpt lat="49.02048" lon="-1.03044">
        <ele>103.5</ele>
      </trkpt>
      <trkpt lat="49.02049" lon="-1.03013">
        <ele>103.6</ele>
      </trkpt>
      <trkpt lat="49.02048" lon="-1.0298">
        <ele>103.5</ele>
      </trkpt>
      <trkpt lat="49.02041" lon="-1.02947">
        <ele>103.4</ele>
      </trkpt>
      <trkpt lat="49.0203" lon="-1.02903">
        <ele>103.5</ele>
      </trkpt>
      <trkpt lat="49.02021" lon="-1.02866">
        <ele>103.8</ele>
      </trkpt>
      <trkpt lat="49.02022" lon="-1.02842">
        <ele>103.7</ele>
      </trkpt>
      <trkpt lat="49.02014" lon="-1.02837">
        <ele>104.2</ele>
      </trkpt>
      <trkpt lat="49.02007" lon="-1.02816">
        <ele>104.4</ele>
      </trkpt>
      <trkpt lat="49.01995" lon="-1.0277">
        <ele>104.6</ele>
      </trkpt>
      <trkpt lat="49.01983" lon="-1.02716">
        <ele>104.4</ele>
      </trkpt>
      <trkpt lat="49.01975" lon="-1.02682">
        <ele>104.2</ele>
      </trkpt>
      <trkpt lat="49.01968" lon="-1.02667">
        <ele>104.2</ele>
      </trkpt>
      <trkpt lat="49.01961" lon="-1.02665">
        <ele>104.4</ele>
      </trkpt>
      <trkpt lat="49.01952" lon="-1.02664">
        <ele>104.6</ele>
      </trkpt>
      <trkpt lat="49.01945" lon="-1.02645">
        <ele>103.9</ele>
      </trkpt>
      <trkpt lat="49.01942" lon="-1.02622">
        <ele>102.9</ele>
      </trkpt>
      <trkpt lat="49.01937" lon="-1.02602">
        <ele>102.2</ele>
      </trkpt>
      <trkpt lat="49.0193" lon="-1.02588">
        <ele>101.7</ele>
      </trkpt>
      <trkpt lat="49.0192" lon="-1.0258">
        <ele>101.9</ele>
      </trkpt>
      <trkpt lat="49.01912" lon="-1.02571">
        <ele>102.3</ele>
      </trkpt>
      <trkpt lat="49.01913" lon="-1.02557">
        <ele>102.3</ele>
      </trkpt>
      <trkpt lat="49.01921" lon="-1.02536">
        <ele>101.8</ele>
      </trkpt>
      <trkpt lat="49.01926" lon="-1.02516">
        <ele>101.5</ele>
      </trkpt>
      <trkpt lat="49.01928" lon="-1.02489">
        <ele>101.7</ele>
      </trkpt>
      <trkpt lat="49.01926" lon="-1.0246">
        <ele>102.8</ele>
      </trkpt>
      <trkpt lat="49.01923" lon="-1.02434">
        <ele>103.9</ele>
      </trkpt>
      <trkpt lat="49.01921" lon="-1.02417">
        <ele>104.7</ele>
      </trkpt>
      <trkpt lat="49.01917" lon="-1.02396">
        <ele>105.2</ele>
      </trkpt>
      <trkpt lat="49.0191" lon="-1.02358">
        <ele>106.2</ele>
      </trkpt>
      <trkpt lat="49.01902" lon="-1.02309">
        <ele>106.7</ele>
      </trkpt>
      <trkpt lat="49.01897" lon="-1.02284">
        <ele>106.7</ele>
      </trkpt>
      <trkpt lat="49.01889" lon="-1.02278">
        <ele>107.1</ele>
      </trkpt>
      <trkpt lat="49.01877" lon="-1.02281">
        <ele>107.9</ele>
      </trkpt>
      <trkpt lat="49.01859" lon="-1.02285">
        <ele>109.2</ele>
      </trkpt>
      <trkpt lat="49.01849" lon="-1.02292">
        <ele>109.9</ele>
      </trkpt>
      <trkpt lat="49.0183" lon="-1.02304">
        <ele>111.6</ele>
      </trkpt>
      <trkpt lat="49.01806" lon="-1.0232">
        <ele>113.6</ele>
      </trkpt>
      <trkpt lat="49.01739" lon="-1.02363">
        <ele>119.4</ele>
      </trkpt>
      <trkpt lat="49.01731" lon="-1.02373">
        <ele>120.1</ele>
      </trkpt>
      <trkpt lat="49.01734" lon="-1.02394">
        <ele>120.3</ele>
      </trkpt>
      <trkpt lat="49.01738" lon="-1.02429">
        <ele>120.3</ele>
      </trkpt>
      <trkpt lat="49.01741" lon="-1.02464">
        <ele>119.3</ele>
      </trkpt>
      <trkpt lat="49.01742" lon="-1.02501">
        <ele>118.5</ele>
      </trkpt>
      <trkpt lat="49.01742" lon="-1.02538">
        <ele>118</ele>
      </trkpt>
      <trkpt lat="49.0174" lon="-1.02567">
        <ele>117.7</ele>
      </trkpt>
      <trkpt lat="49.01735" lon="-1.02599">
        <ele>117.5</ele>
      </trkpt>
      <trkpt lat="49.01726" lon="-1.02634">
        <ele>117.4</ele>
      </trkpt>
      <trkpt lat="49.01715" lon="-1.02675">
        <ele>117.1</ele>
      </trkpt>
      <trkpt lat="49.01701" lon="-1.02723">
        <ele>116.7</ele>
      </trkpt>
      <trkpt lat="49.01693" lon="-1.02755">
        <ele>116.3</ele>
      </trkpt>
      <trkpt lat="49.01687" lon="-1.02765">
        <ele>116.4</ele>
      </trkpt>
      <trkpt lat="49.01674" lon="-1.02767">
        <ele>116.6</ele>
      </trkpt>
      <trkpt lat="49.01654" lon="-1.02766">
        <ele>116.7</ele>
      </trkpt>
      <trkpt lat="49.01628" lon="-1.02767">
        <ele>116.6</ele>
      </trkpt>
      <trkpt lat="49.01609" lon="-1.0277">
        <ele>116.4</ele>
      </trkpt>
      <trkpt lat="49.01596" lon="-1.02777">
        <ele>116.1</ele>
      </trkpt>
      <trkpt lat="49.01584" lon="-1.02763">
        <ele>116.5</ele>
      </trkpt>
      <trkpt lat="49.01573" lon="-1.02753">
        <ele>116.6</ele>
      </trkpt>
      <trkpt lat="49.0156" lon="-1.02748">
        <ele>116.5</ele>
      </trkpt>
      <trkpt lat="49.01543" lon="-1.02747">
        <ele>116.1</ele>
      </trkpt>
      <trkpt lat="49.01521" lon="-1.02746">
        <ele>115.7</ele>
      </trkpt>
      <trkpt lat="49.01503" lon="-1.02742">
        <ele>115.4</ele>
      </trkpt>
      <trkpt lat="49.01485" lon="-1.02735">
        <ele>115.4</ele>
      </trkpt>
      <trkpt lat="49.01465" lon="-1.02726">
        <ele>115.3</ele>
      </trkpt>
      <trkpt lat="49.01471" lon="-1.02716">
        <ele>116</ele>
      </trkpt>
      <trkpt lat="49.01473" lon="-1.02699">
        <ele>116.8</ele>
      </trkpt>
      <trkpt lat="49.01472" lon="-1.02675">
        <ele>117.9</ele>
      </trkpt>
      <trkpt lat="49.0147" lon="-1.02604">
        <ele>121.6</ele>
      </trkpt>
      <trkpt lat="49.01465" lon="-1.02571">
        <ele>123.1</ele>
      </trkpt>
      <trkpt lat="49.01456" lon="-1.02528">
        <ele>124.8</ele>
      </trkpt>
      <trkpt lat="49.01448" lon="-1.02498">
        <ele>125.8</ele>
      </trkpt>
      <trkpt lat="49.01437" lon="-1.02466">
        <ele>126.6</ele>
      </trkpt>
      <trkpt lat="49.01421" lon="-1.024">
        <ele>128.6</ele>
      </trkpt>
      <trkpt lat="49.01401" lon="-1.0231">
        <ele>130.7</ele>
      </trkpt>
      <trkpt lat="49.01389" lon="-1.02255">
        <ele>130.6</ele>
      </trkpt>
      <trkpt lat="49.01381" lon="-1.02221">
        <ele>130.8</ele>
      </trkpt>
      <trkpt lat="49.0138" lon="-1.02206">
        <ele>130.9</ele>
      </trkpt>
      <trkpt lat="49.01387" lon="-1.02198">
        <ele>131.1</ele>
      </trkpt>
      <trkpt lat="49.0138" lon="-1.02188">
        <ele>131</ele>
      </trkpt>
      <trkpt lat="49.01364" lon="-1.02164">
        <ele>130.8</ele>
      </trkpt>
      <trkpt lat="49.0134" lon="-1.02121">
        <ele>130.7</ele>
      </trkpt>
      <trkpt lat="49.01316" lon="-1.02074">
        <ele>131.3</ele>
      </trkpt>
      <trkpt lat="49.01278" lon="-1.02001">
        <ele>132</ele>
      </trkpt>
      <trkpt lat="49.01244" lon="-1.01934">
        <ele>133.7</ele>
      </trkpt>
      <trkpt lat="49.01216" lon="-1.01869">
        <ele>135.1</ele>
      </trkpt>
      <trkpt lat="49.01181" lon="-1.01791">
        <ele>135.2</ele>
      </trkpt>
      <trkpt lat="49.01163" lon="-1.01746">
        <ele>134.9</ele>
      </trkpt>
      <trkpt lat="49.0111" lon="-1.01805">
        <ele>133.6</ele>
      </trkpt>
      <trkpt lat="49.01087" lon="-1.01832">
        <ele>133.1</ele>
      </trkpt>
      <trkpt lat="49.01048" lon="-1.0188">
        <ele>131.3</ele>
      </trkpt>
      <trkpt lat="49.01014" lon="-1.01926">
        <ele>129.7</ele>
      </trkpt>
      <trkpt lat="49.00977" lon="-1.0198">
        <ele>127.9</ele>
      </trkpt>
      <trkpt lat="49.00944" lon="-1.02033">
        <ele>125.9</ele>
      </trkpt>
      <trkpt lat="49.0093" lon="-1.02057">
        <ele>124.9</ele>
      </trkpt>
      <trkpt lat="49.00899" lon="-1.02104">
        <ele>122.7</ele>
      </trkpt>
      <trkpt lat="49.00863" lon="-1.02154">
        <ele>120.5</ele>
      </trkpt>
      <trkpt lat="49.00836" lon="-1.02191">
        <ele>118.3</ele>
      </trkpt>
      <trkpt lat="49.00801" lon="-1.02242">
        <ele>115.1</ele>
      </trkpt>
      <trkpt lat="49.0078" lon="-1.02271">
        <ele>113.8</ele>
      </trkpt>
      <trkpt lat="49.0075" lon="-1.02308">
        <ele>112.3</ele>
      </trkpt>
      <trkpt lat="49.00714" lon="-1.02351">
        <ele>111.6</ele>
      </trkpt>
      <trkpt lat="49.00647" lon="-1.02419">
        <ele>109.7</ele>
      </trkpt>
      <trkpt lat="49.00575" lon="-1.02487">
        <ele>107.4</ele>
      </trkpt>
      <trkpt lat="49.00524" lon="-1.02537">
        <ele>107.6</ele>
      </trkpt>
      <trkpt lat="49.00478" lon="-1.02584">
        <ele>107.7</ele>
      </trkpt>
      <trkpt lat="49.00474" lon="-1.02588">
        <ele>107.6</ele>
      </trkpt>
      <trkpt lat="49.00435" lon="-1.02635">
        <ele>106.1</ele>
      </trkpt>
      <trkpt lat="49.00405" lon="-1.02659">
        <ele>104.9</ele>
      </trkpt>
      <trkpt lat="49.00388" lon="-1.02673">
        <ele>104</ele>
      </trkpt>
      <trkpt lat="49.00356" lon="-1.02698">
        <ele>101.9</ele>
      </trkpt>
      <trkpt lat="49.00332" lon="-1.02718">
        <ele>99.9</ele>
      </trkpt>
      <trkpt lat="49.00321" lon="-1.02731">
        <ele>99.2</ele>
      </trkpt>
      <trkpt lat="49.0031" lon="-1.02749">
        <ele>98.4</ele>
      </trkpt>
      <trkpt lat="49.00303" lon="-1.02763">
        <ele>97.7</ele>
      </trkpt>
      <trkpt lat="49.00295" lon="-1.02784">
        <ele>96.8</ele>
      </trkpt>
      <trkpt lat="49.00285" lon="-1.02814">
        <ele>95.6</ele>
      </trkpt>
      <trkpt lat="49.0027" lon="-1.02852">
        <ele>94.2</ele>
      </trkpt>
      <trkpt lat="49.00252" lon="-1.02908">
        <ele>91.5</ele>
      </trkpt>
      <trkpt lat="49.00232" lon="-1.02967">
        <ele>87.4</ele>
      </trkpt>
      <trkpt lat="49.00216" lon="-1.03008">
        <ele>84.4</ele>
      </trkpt>
      <trkpt lat="49.00204" lon="-1.03034">
        <ele>82.5</ele>
      </trkpt>
      <trkpt lat="49.00184" lon="-1.0307">
        <ele>79.6</ele>
      </trkpt>
      <trkpt lat="49.00167" lon="-1.03093">
        <ele>77.5</ele>
      </trkpt>
      <trkpt lat="49.00136" lon="-1.03126">
        <ele>74</ele>
      </trkpt>
      <trkpt lat="49.00091" lon="-1.03172">
        <ele>68.2</ele>
      </trkpt>
      <trkpt lat="49.00069" lon="-1.03193">
        <ele>65.9</ele>
      </trkpt>
      <trkpt lat="49.00057" lon="-1.03199">
        <ele>64.9</ele>
      </trkpt>
      <trkpt lat="49.00053" lon="-1.03203">
        <ele>64.5</ele>
      </trkpt>
      <trkpt lat="49.00033" lon="-1.03215">
        <ele>62.7</ele>
      </trkpt>
      <trkpt lat="49.00021" lon="-1.03221">
        <ele>61.7</ele>
      </trkpt>
      <trkpt lat="49.00015" lon="-1.03222">
        <ele>61.3</ele>
      </trkpt>
      <trkpt lat="49.00005" lon="-1.03214">
        <ele>61</ele>
      </trkpt>
      <trkpt lat="48.99987" lon="-1.03197">
        <ele>61</ele>
      </trkpt>
      <trkpt lat="48.99976" lon="-1.03182">
        <ele>61.1</ele>
      </trkpt>
      <trkpt lat="48.99967" lon="-1.03169">
        <ele>61</ele>
      </trkpt>
      <trkpt lat="48.99958" lon="-1.03161">
        <ele>60.7</ele>
      </trkpt>
      <trkpt lat="48.99955" lon="-1.0316">
        <ele>60.6</ele>
      </trkpt>
      <trkpt lat="48.99949" lon="-1.03159">
        <ele>60.2</ele>
      </trkpt>
      <trkpt lat="48.99932" lon="-1.03161">
        <ele>59.1</ele>
      </trkpt>
      <trkpt lat="48.99877" lon="-1.03169">
        <ele>61.4</ele>
      </trkpt>
      <trkpt lat="48.99869" lon="-1.03169">
        <ele>62.1</ele>
      </trkpt>
      <trkpt lat="48.99856" lon="-1.03168">
        <ele>63.2</ele>
      </trkpt>
      <trkpt lat="48.99842" lon="-1.03169">
        <ele>64.5</ele>
      </trkpt>
      <trkpt lat="48.99821" lon="-1.03176">
        <ele>67.2</ele>
      </trkpt>
      <trkpt lat="48.99813" lon="-1.03143">
        <ele>65.9</ele>
      </trkpt>
      <trkpt lat="48.99804" lon="-1.03122">
        <ele>65.7</ele>
      </trkpt>
      <trkpt lat="48.99798" lon="-1.03099">
        <ele>65.1</ele>
      </trkpt>
      <trkpt lat="48.99794" lon="-1.03063">
        <ele>64.4</ele>
      </trkpt>
      <trkpt lat="48.99788" lon="-1.03038">
        <ele>64.9</ele>
      </trkpt>
      <trkpt lat="48.99776" lon="-1.0301">
        <ele>65.6</ele>
      </trkpt>
      <trkpt lat="48.99769" lon="-1.02984">
        <ele>66.3</ele>
      </trkpt>
      <trkpt lat="48.99765" lon="-1.02951">
        <ele>67</ele>
      </trkpt>
      <trkpt lat="48.99763" lon="-1.02902">
        <ele>67.5</ele>
      </trkpt>
      <trkpt lat="48.99766" lon="-1.02863">
        <ele>67.5</ele>
      </trkpt>
      <trkpt lat="48.99771" lon="-1.0284">
        <ele>66.9</ele>
      </trkpt>
      <trkpt lat="48.9978" lon="-1.0282">
        <ele>65.6</ele>
      </trkpt>
      <trkpt lat="48.99788" lon="-1.02793">
        <ele>64.5</ele>
      </trkpt>
      <trkpt lat="48.99794" lon="-1.02741">
        <ele>64.2</ele>
      </trkpt>
      <trkpt lat="48.99804" lon="-1.02699">
        <ele>65.1</ele>
      </trkpt>
      <trkpt lat="48.99825" lon="-1.02642">
        <ele>65.3</ele>
      </trkpt>
      <trkpt lat="48.99874" lon="-1.02529">
        <ele>66.5</ele>
      </trkpt>
      <trkpt lat="48.9989" lon="-1.02496">
        <ele>66.4</ele>
      </trkpt>
      <trkpt lat="48.9987" lon="-1.0251">
        <ele>67.6</ele>
      </trkpt>
      <trkpt lat="48.99859" lon="-1.02461">
        <ele>69.6</ele>
      </trkpt>
      <trkpt lat="48.99858" lon="-1.02455">
        <ele>69.8</ele>
      </trkpt>
      <trkpt lat="48.99855" lon="-1.02451">
        <ele>70</ele>
      </trkpt>
      <trkpt lat="48.9985" lon="-1.02449">
        <ele>70.5</ele>
      </trkpt>
      <trkpt lat="48.99843" lon="-1.02448">
        <ele>71</ele>
      </trkpt>
      <trkpt lat="48.99802" lon="-1.02456">
        <ele>74.5</ele>
      </trkpt>
      <trkpt lat="48.99796" lon="-1.02459">
        <ele>75.1</ele>
      </trkpt>
      <trkpt lat="48.99763" lon="-1.02475">
        <ele>78.4</ele>
      </trkpt>
      <trkpt lat="48.99722" lon="-1.02501">
        <ele>83.7</ele>
      </trkpt>
      <trkpt lat="48.99706" lon="-1.02508">
        <ele>85.7</ele>
      </trkpt>
      <trkpt lat="48.99691" lon="-1.02514">
        <ele>87.6</ele>
      </trkpt>
      <trkpt lat="48.99683" lon="-1.02515">
        <ele>88.6</ele>
      </trkpt>
      <trkpt lat="48.99674" lon="-1.02515">
        <ele>89.8</ele>
      </trkpt>
      <trkpt lat="48.99637" lon="-1.0251">
        <ele>92.8</ele>
      </trkpt>
      <trkpt lat="48.99592" lon="-1.02502">
        <ele>95.5</ele>
      </trkpt>
      <trkpt lat="48.99562" lon="-1.02493">
        <ele>97</ele>
      </trkpt>
      <trkpt lat="48.99527" lon="-1.0248">
        <ele>98.8</ele>
      </trkpt>
      <trkpt lat="48.99484" lon="-1.02464">
        <ele>101.5</ele>
      </trkpt>
      <trkpt lat="48.9946" lon="-1.02455">
        <ele>103.3</ele>
      </trkpt>
      <trkpt lat="48.99411" lon="-1.02438">
        <ele>106.9</ele>
      </trkpt>
      <trkpt lat="48.99403" lon="-1.02434">
        <ele>107.4</ele>
      </trkpt>
      <trkpt lat="48.99394" lon="-1.02431">
        <ele>107.9</ele>
      </trkpt>
      <trkpt lat="48.99377" lon="-1.02428">
        <ele>109</ele>
      </trkpt>
      <trkpt lat="48.99361" lon="-1.02426">
        <ele>110.1</ele>
      </trkpt>
      <trkpt lat="48.99274" lon="-1.02426">
        <ele>116.1</ele>
      </trkpt>
      <trkpt lat="48.9925" lon="-1.02427">
        <ele>117.6</ele>
      </trkpt>
      <trkpt lat="48.99235" lon="-1.02429">
        <ele>117.7</ele>
      </trkpt>
      <trkpt lat="48.99234" lon="-1.02393">
        <ele>118</ele>
      </trkpt>
      <trkpt lat="48.99229" lon="-1.02341">
        <ele>117.6</ele>
      </trkpt>
      <trkpt lat="48.99225" lon="-1.02318">
        <ele>117.9</ele>
      </trkpt>
      <trkpt lat="48.99224" lon="-1.02306">
        <ele>118.2</ele>
      </trkpt>
      <trkpt lat="48.99224" lon="-1.02291">
        <ele>118.5</ele>
      </trkpt>
      <trkpt lat="48.99213" lon="-1.02225">
        <ele>120.5</ele>
      </trkpt>
      <trkpt lat="48.99208" lon="-1.02199">
        <ele>121.5</ele>
      </trkpt>
      <trkpt lat="48.99189" lon="-1.02153">
        <ele>123.2</ele>
      </trkpt>
      <trkpt lat="48.9917" lon="-1.02116">
        <ele>124.4</ele>
      </trkpt>
      <trkpt lat="48.99155" lon="-1.02091">
        <ele>125.2</ele>
      </trkpt>
      <trkpt lat="48.99119" lon="-1.02044">
        <ele>126.4</ele>
      </trkpt>
      <trkpt lat="48.99086" lon="-1.02011">
        <ele>127.8</ele>
      </trkpt>
      <trkpt lat="48.99046" lon="-1.01973">
        <ele>129.4</ele>
      </trkpt>
      <trkpt lat="48.99032" lon="-1.01963">
        <ele>129.8</ele>
      </trkpt>
      <trkpt lat="48.98988" lon="-1.01918">
        <ele>131.1</ele>
      </trkpt>
      <trkpt lat="48.98964" lon="-1.01895">
        <ele>131</ele>
      </trkpt>
      <trkpt lat="48.98946" lon="-1.01878">
        <ele>131</ele>
      </trkpt>
      <trkpt lat="48.9893" lon="-1.01866">
        <ele>131.1</ele>
      </trkpt>
      <trkpt lat="48.98887" lon="-1.01839">
        <ele>131.4</ele>
      </trkpt>
      <trkpt lat="48.98857" lon="-1.01815">
        <ele>131.5</ele>
      </trkpt>
      <trkpt lat="48.98837" lon="-1.01798">
        <ele>131.5</ele>
      </trkpt>
      <trkpt lat="48.9882" lon="-1.01778">
        <ele>131.4</ele>
      </trkpt>
      <trkpt lat="48.98775" lon="-1.01701">
        <ele>131.9</ele>
      </trkpt>
      <trkpt lat="48.98756" lon="-1.0167">
        <ele>132.7</ele>
      </trkpt>
      <trkpt lat="48.98738" lon="-1.01641">
        <ele>133.4</ele>
      </trkpt>
      <trkpt lat="48.98703" lon="-1.01592">
        <ele>134.9</ele>
      </trkpt>
      <trkpt lat="48.98656" lon="-1.01518">
        <ele>136</ele>
      </trkpt>
      <trkpt lat="48.98654" lon="-1.01514">
        <ele>136</ele>
      </trkpt>
      <trkpt lat="48.98651" lon="-1.01512">
        <ele>136</ele>
      </trkpt>
      <trkpt lat="48.9865" lon="-1.01511">
        <ele>136</ele>
      </trkpt>
      <trkpt lat="48.98632" lon="-1.01592">
        <ele>135.4</ele>
      </trkpt>
      <trkpt lat="48.98618" lon="-1.01646">
        <ele>134</ele>
      </trkpt>
      <trkpt lat="48.98615" lon="-1.01667">
        <ele>133.6</ele>
      </trkpt>
      <trkpt lat="48.98611" lon="-1.01653">
        <ele>133.9</ele>
      </trkpt>
      <trkpt lat="48.98607" lon="-1.01647">
        <ele>134.1</ele>
      </trkpt>
      <trkpt lat="48.98602" lon="-1.0164">
        <ele>134.2</ele>
      </trkpt>
      <trkpt lat="48.98596" lon="-1.01633">
        <ele>134.4</ele>
      </trkpt>
      <trkpt lat="48.98594" lon="-1.0163">
        <ele>134.4</ele>
      </trkpt>
      <trkpt lat="48.9859" lon="-1.01621">
        <ele>134.6</ele>
      </trkpt>
      <trkpt lat="48.98589" lon="-1.01616">
        <ele>134.6</ele>
      </trkpt>
      <trkpt lat="48.98588" lon="-1.01611">
        <ele>134.7</ele>
      </trkpt>
      <trkpt lat="48.98586" lon="-1.0163">
        <ele>134.4</ele>
      </trkpt>
      <trkpt lat="48.98586" lon="-1.01647">
        <ele>134.2</ele>
      </trkpt>
      <trkpt lat="48.98587" lon="-1.01664">
        <ele>134</ele>
      </trkpt>
      <trkpt lat="48.98586" lon="-1.01676">
        <ele>134</ele>
      </trkpt>
      <trkpt lat="48.98586" lon="-1.01709">
        <ele>134</ele>
      </trkpt>
      <trkpt lat="48.98586" lon="-1.01728">
        <ele>134</ele>
      </trkpt>
      <trkpt lat="48.98585" lon="-1.01745">
        <ele>134</ele>
      </trkpt>
      <trkpt lat="48.98583" lon="-1.01758">
        <ele>134.1</ele>
      </trkpt>
      <trkpt lat="48.9858" lon="-1.01776">
        <ele>134.2</ele>
      </trkpt>
      <trkpt lat="48.98573" lon="-1.01816">
        <ele>134.5</ele>
      </trkpt>
      <trkpt lat="48.98557" lon="-1.01893">
        <ele>133.1</ele>
      </trkpt>
      <trkpt lat="48.98545" lon="-1.01967">
        <ele>131.4</ele>
      </trkpt>
      <trkpt lat="48.98537" lon="-1.02015">
        <ele>129.6</ele>
      </trkpt>
      <trkpt lat="48.98535" lon="-1.02042">
        <ele>128.2</ele>
      </trkpt>
      <trkpt lat="48.98535" lon="-1.02061">
        <ele>127.2</ele>
      </trkpt>
      <trkpt lat="48.98535" lon="-1.02079">
        <ele>126.3</ele>
      </trkpt>
      <trkpt lat="48.98536" lon="-1.0209">
        <ele>125.7</ele>
      </trkpt>
      <trkpt lat="48.98539" lon="-1.02102">
        <ele>124.8</ele>
      </trkpt>
      <trkpt lat="48.98549" lon="-1.02141">
        <ele>122.1</ele>
      </trkpt>
      <trkpt lat="48.98552" lon="-1.02147">
        <ele>121.8</ele>
      </trkpt>
      <trkpt lat="48.98555" lon="-1.02167">
        <ele>120.3</ele>
      </trkpt>
      <trkpt lat="48.9856" lon="-1.02214">
        <ele>117</ele>
      </trkpt>
      <trkpt lat="48.98565" lon="-1.02291">
        <ele>111.9</ele>
      </trkpt>
      <trkpt lat="48.98564" lon="-1.02339">
        <ele>109.2</ele>
      </trkpt>
      <trkpt lat="48.98566" lon="-1.02356">
        <ele>108.4</ele>
      </trkpt>
      <trkpt lat="48.98573" lon="-1.02369">
        <ele>107.6</ele>
      </trkpt>
      <trkpt lat="48.98584" lon="-1.02387">
        <ele>106.4</ele>
      </trkpt>
      <trkpt lat="48.98617" lon="-1.02433">
        <ele>104.3</ele>
      </trkpt>
      <trkpt lat="48.98626" lon="-1.02447">
        <ele>103.6</ele>
      </trkpt>
      <trkpt lat="48.98634" lon="-1.02463">
        <ele>102.6</ele>
      </trkpt>
      <trkpt lat="48.98659" lon="-1.02544">
        <ele>100.7</ele>
      </trkpt>
      <trkpt lat="48.98677" lon="-1.02601">
        <ele>100.5</ele>
      </trkpt>
      <trkpt lat="48.98686" lon="-1.0264">
        <ele>99.2</ele>
      </trkpt>
      <trkpt lat="48.98689" lon="-1.02646">
        <ele>99</ele>
      </trkpt>
      <trkpt lat="48.98692" lon="-1.02649">
        <ele>99</ele>
      </trkpt>
      <trkpt lat="48.98694" lon="-1.02649">
        <ele>98.9</ele>
      </trkpt>
      <trkpt lat="48.98719" lon="-1.02656">
        <ele>99</ele>
      </trkpt>
      <trkpt lat="48.98732" lon="-1.02661">
        <ele>99</ele>
      </trkpt>
      <trkpt lat="48.98777" lon="-1.02683">
        <ele>99.7</ele>
      </trkpt>
      <trkpt lat="48.988" lon="-1.02696">
        <ele>100.3</ele>
      </trkpt>
      <trkpt lat="48.98799" lon="-1.02705">
        <ele>100</ele>
      </trkpt>
      <trkpt lat="48.98787" lon="-1.02751">
        <ele>98.9</ele>
      </trkpt>
      <trkpt lat="48.98775" lon="-1.02805">
        <ele>97.5</ele>
      </trkpt>
      <trkpt lat="48.9877" lon="-1.02824">
        <ele>96.9</ele>
      </trkpt>
      <trkpt lat="48.98764" lon="-1.02845">
        <ele>96.3</ele>
      </trkpt>
      <trkpt lat="48.98751" lon="-1.02872">
        <ele>95.6</ele>
      </trkpt>
      <trkpt lat="48.98735" lon="-1.02906">
        <ele>94.9</ele>
      </trkpt>
      <trkpt lat="48.98722" lon="-1.02936">
        <ele>94.3</ele>
      </trkpt>
      <trkpt lat="48.98715" lon="-1.02964">
        <ele>93.7</ele>
      </trkpt>
      <trkpt lat="48.98709" lon="-1.02991">
        <ele>93.2</ele>
      </trkpt>
      <trkpt lat="48.98708" lon="-1.02994">
        <ele>93.1</ele>
      </trkpt>
      <trkpt lat="48.98699" lon="-1.03035">
        <ele>92.6</ele>
      </trkpt>
      <trkpt lat="48.98693" lon="-1.03057">
        <ele>92.3</ele>
      </trkpt>
      <trkpt lat="48.98685" lon="-1.03089">
        <ele>91.8</ele>
      </trkpt>
      <trkpt lat="48.98681" lon="-1.0311">
        <ele>91.1</ele>
      </trkpt>
      <trkpt lat="48.98676" lon="-1.03153">
        <ele>89.6</ele>
      </trkpt>
      <trkpt lat="48.98674" lon="-1.03186">
        <ele>88.7</ele>
      </trkpt>
      <trkpt lat="48.98674" lon="-1.032">
        <ele>88.4</ele>
      </trkpt>
      <trkpt lat="48.98674" lon="-1.03215">
        <ele>88</ele>
      </trkpt>
      <trkpt lat="48.98676" lon="-1.03234">
        <ele>87.7</ele>
      </trkpt>
      <trkpt lat="48.98663" lon="-1.03235">
        <ele>87.5</ele>
      </trkpt>
      <trkpt lat="48.98654" lon="-1.03236">
        <ele>87.9</ele>
      </trkpt>
      <trkpt lat="48.98637" lon="-1.03238">
        <ele>88.6</ele>
      </trkpt>
      <trkpt lat="48.98621" lon="-1.03241">
        <ele>89.2</ele>
      </trkpt>
      <trkpt lat="48.9861" lon="-1.03243">
        <ele>89.7</ele>
      </trkpt>
      <trkpt lat="48.986" lon="-1.03247">
        <ele>90.2</ele>
      </trkpt>
      <trkpt lat="48.98594" lon="-1.03251">
        <ele>90.5</ele>
      </trkpt>
      <trkpt lat="48.98584" lon="-1.03258">
        <ele>91.1</ele>
      </trkpt>
      <trkpt lat="48.98574" lon="-1.03268">
        <ele>91.5</ele>
      </trkpt>
      <trkpt lat="48.98563" lon="-1.03283">
        <ele>92</ele>
      </trkpt>
      <trkpt lat="48.98543" lon="-1.03313">
        <ele>92.9</ele>
      </trkpt>
      <trkpt lat="48.98521" lon="-1.03347">
        <ele>93.2</ele>
      </trkpt>
      <trkpt lat="48.98502" lon="-1.03377">
        <ele>92.9</ele>
      </trkpt>
      <trkpt lat="48.98496" lon="-1.03386">
        <ele>92.8</ele>
      </trkpt>
      <trkpt lat="48.98493" lon="-1.03382">
        <ele>92.9</ele>
      </trkpt>
      <trkpt lat="48.98492" lon="-1.0338">
        <ele>92.9</ele>
      </trkpt>
      <trkpt lat="48.98491" lon="-1.03376">
        <ele>93</ele>
      </trkpt>
      <trkpt lat="48.98484" lon="-1.0335">
        <ele>93.6</ele>
      </trkpt>
      <trkpt lat="48.98484" lon="-1.03347">
        <ele>93.7</ele>
      </trkpt>
      <trkpt lat="48.98482" lon="-1.03346">
        <ele>93.7</ele>
      </trkpt>
      <trkpt lat="48.9848" lon="-1.03345">
        <ele>93.8</ele>
      </trkpt>
      <trkpt lat="48.98476" lon="-1.03344">
        <ele>93.8</ele>
      </trkpt>
      <trkpt lat="48.98461" lon="-1.03345">
        <ele>93.8</ele>
      </trkpt>
      <trkpt lat="48.98421" lon="-1.03351">
        <ele>93.8</ele>
      </trkpt>
      <trkpt lat="48.98393" lon="-1.03359">
        <ele>94.4</ele>
      </trkpt>
      <trkpt lat="48.9836" lon="-1.0337">
        <ele>95.3</ele>
      </trkpt>
      <trkpt lat="48.98342" lon="-1.03376">
        <ele>95.7</ele>
      </trkpt>
      <trkpt lat="48.98328" lon="-1.03384">
        <ele>95.7</ele>
      </trkpt>
      <trkpt lat="48.98288" lon="-1.03408">
        <ele>94.7</ele>
      </trkpt>
      <trkpt lat="48.98282" lon="-1.03414">
        <ele>94.4</ele>
      </trkpt>
      <trkpt lat="48.98266" lon="-1.03439">
        <ele>93.6</ele>
      </trkpt>
      <trkpt lat="48.98225" lon="-1.035">
        <ele>91.7</ele>
      </trkpt>
      <trkpt lat="48.98198" lon="-1.03536">
        <ele>90.5</ele>
      </trkpt>
      <trkpt lat="48.98179" lon="-1.03566">
        <ele>89.6</ele>
      </trkpt>
      <trkpt lat="48.98168" lon="-1.03587">
        <ele>89</ele>
      </trkpt>
      <trkpt lat="48.98158" lon="-1.03617">
        <ele>88.7</ele>
      </trkpt>
      <trkpt lat="48.98155" lon="-1.03626">
        <ele>88.6</ele>
      </trkpt>
      <trkpt lat="48.98112" lon="-1.03745">
        <ele>87.3</ele>
      </trkpt>
      <trkpt lat="48.981" lon="-1.03753">
        <ele>87.6</ele>
      </trkpt>
      <trkpt lat="48.98091" lon="-1.03761">
        <ele>87.7</ele>
      </trkpt>
      <trkpt lat="48.98078" lon="-1.0377">
        <ele>88</ele>
      </trkpt>
      <trkpt lat="48.98064" lon="-1.03783">
        <ele>88.4</ele>
      </trkpt>
      <trkpt lat="48.98056" lon="-1.03791">
        <ele>88.5</ele>
      </trkpt>
      <trkpt lat="48.98033" lon="-1.03825">
        <ele>88.4</ele>
      </trkpt>
      <trkpt lat="48.9801" lon="-1.03857">
        <ele>87.7</ele>
      </trkpt>
      <trkpt lat="48.97981" lon="-1.0389">
        <ele>86.4</ele>
      </trkpt>
    </trkseg>
  </trk>
</gpx>